     2              OBSERVATION DATA    GPS                 RINEX VERSION / TYPE
teqc 1997Sep10 19970910 19:01:39UTC                         PGM / RUN BY / DATE
                                                            COMMENT
BIT 2 OF LLI FLAGS DATA COLLECTED UNDER A-S CONDITION       COMMENT
BIT 2 OF LLI FLAGS DATA COLLECTED UNDER A-S CONDITION       COMMENT
Original Marker Name: unknown                               COMMENT
Campaign Name: Southern California GPS Survey March - A     COMMENT
4-Character Station Name: ENDD                              COMMENT
6-Character Antenna Code: TI4100                            COMMENT
Vertical Measurement Point: PAE                             COMMENT
Vertical Offset to Rinex Ref. Point: 0.0000                 COMMENT
Radial Measurement Point: RRP                               COMMENT
Radial Offset to Rinex Ref. Point: 0.0000                   COMMENT
Antenna Height from Field Measurement: 1.2652 m             COMMENT
Original XYZ: 0.0000 0.0000 0.0000                          COMMENT
New XYZ position is based on association with SCEC monument COMMENT
E1D1R8K1+0011. Position of that monument is believed to be  COMMENT
valid to within 1 m horizontally; vertical accuracy         COMMENT
should be no worse than 3-times this value.                 COMMENT
                                                            COMMENT
Revised Rinex header created by UCSD GPS archive for        COMMENT
GSAC on 26-May-1999 (1999:146) 23:07:43 GMT                 COMMENT
For assistance contact dagnew@ucsd.edu or hjohnson@ucsd.edu COMMENT
                                                            COMMENT
ENDD                                                        MARKER NAME
unknown NATIONAL GEODETIC SURVEY                            OBSERVER / AGENCY
0066 TI 4100 GSI TI4100                                     REC # / TYPE / VERS
124 TI 4100                                                 ANT # / TYPE
 -2192419.0000 -4814959.0000  3550555.0000                  APPROX POSITION XYZ
        1.2652        0.0000        0.0000                  ANTENNA: DELTA H/E/N
     1     1     0                                          WAVELENGTH FACT L1/2
     6    L1    L2    P1    P2    D1    D2                  # / TYPES OF OBSERV
     0                                                      INTERVAL
  1988     3    22     3    42   12.000000                  TIME OF FIRST OBS
  1988     3    22     8    35    5.000000                  TIME OF LAST OBS
     0                                                      # OF SATELLITES
                                                            END OF HEADER
 88  3 22  3 42 12.2800000  0  3G 6G 9G11
  17725754.337 9 -37276230.198 8  17004151.753    17004153.813        1590.294
      1239.812
    697041.721 8  -1955913.024 8  19442919.949    19442923.610        3101.913
      2418.187
    166109.482 9                                                      2762.668

 88  3 22  3 56  5.0800000  0  3G 6G 9G11
  16510278.129 9 -38223354.093 9  16772854.986    16772856.517        1312.372
      1029.083
  -1868028.423 9  -3954666.722 8  18954802.176    18954804.581        3065.063
      2380.159
  -1931692.847 9  -1550821.442 8  17628685.801    17628688.601        2309.023
      1806.683
 88  3 22  3 56 35.0800000  0  3G 6G 9G11
  16470913.279 9 -38254028.003 8  16765363.928    16765365.071        1309.038
      1021.757
  -1959830.684 9  -4026200.908 9  18937333.017    18937336.739        3053.955
      2385.503
  -2000790.745 9  -1604663.924 7  17615536.845    17615540.036        2296.351
      1798.257
 88  3 22  3 57  5.0800000  0  3G 6G 9G11
  16431879.083 9 -38284444.246 9  16757935.534    16757936.331        1300.889
      1010.293
  -2051572.249 9  -4097687.787 8  18919875.048    18919878.455        3064.832
      2380.948
  -2069421.767 9  -1658142.615 8  17602477.912    17602479.768        2251.615
      1778.211
 88  3 22  3 57 35.0800000  0  3G 6G 9G11
  16393177.935 9 -38314600.981 9  16750570.516    16750571.924        1283.800
       989.216
  -2143250.860 9  -4169125.619 8  18902429.723    18902431.173        3055.510
      2390.971
  -2137583.999 9  -1711256.019 7  17589506.376    17589509.428        2268.872
      1763.522
 88  3 22  3 58  5.0800000  0  3G 6G 9G11
  16354811.821 9 -38344496.630 9  16743269.193    16743272.290        1284.533
       989.850
  -2234864.733 9  -4240512.996 8  18884995.879    18884998.499        3051.252
      2383.850
  -2205276.340 9  -1764003.291 7  17576624.594    17576627.609        2252.939
      1735.466
 88  3 22  3 58 35.0800000  0  3G 6G 9G11
  16316783.324 9 -38374129.212 8  16736032.421    16736035.475        1255.307
       993.466
  -2326411.743 9  -4311848.274 9  18867574.348    18867577.526        3053.620
      2385.739
  -2272496.832 9  -1816382.865 8  17563832.737    17563836.609        2231.321
      1735.932
 88  3 22  3 59  5.0800000  0  3G 6G 9G11
  16279094.751 9 -38403496.921 9  16728861.187    16728862.609        1258.003
       964.274
  -2417889.735 9  -4383129.750 8  18850167.197    18850170.043        3055.510
      2381.470
  -2339243.848 9  -1868393.512 8  17551131.365    17551135.162        2230.834
      1740.276
 88  3 22  3 59 35.0800000  0  3G 6G 9G11
  16241748.205 9 -38432598.126 9  16721755.193    16721756.866        1240.451
       966.970
  -2509297.000 9  -4454356.121 9  18832772.723    18832775.984        3053.979
      2364.332
  -2405516.230 9  -1920034.310 7  17538520.126    17538523.733        2202.517
      1714.545
 88  3 22  4  0  5.0800000  0  3G 6G 9G11
  16204745.833 9 -38461431.135 8  16714713.457    16714714.798        1236.815
       959.290
  -2600631.536 9  -4525525.824 9  18815393.004    18815394.829        3029.936
      2369.328
  -2471312.833 9  -1971304.344 7  17525999.000    17526002.968        2177.701
      1693.113
 88  3 22  4  0 35.0800000  0  3G 6G 9G11
  16168090.394 9 -38489993.805 9  16707738.075    16707740.532        1226.225
       956.332
  -2691890.700 9  -4596636.797 9  18798026.592    18798028.856        3036.539
      2376.891
  -2536632.000 9  -2022202.375 7  17513569.296    17513572.158        2170.038
      1699.743
 88  3 22  4  1  5.0800000  0  3G 6G 9G11
  16131784.129 9 -38518284.400 9  16700828.954    16700830.934        1183.522
       938.095
  -2783072.798 8  -4667687.718 9  18780675.447    18780677.615        3052.863
      2365.575
  -2601472.194 9  -2072727.189 7  17501231.273    17501233.451        2153.140
      1654.532
 88  3 22  4  1 35.0800000  0  3G 6G 9G11
  16095829.314 8 -38546301.130 8  16693987.855    16693989.774        1198.275
       942.880
  -2874175.561 9  -4738676.821 9  18763337.670    18763341.033        3046.762
      2373.902
  -2665831.937 9  -2122877.615 7  17488983.537    17488986.036        2134.145
      1660.124
 88  3 22  4  2  5.0800000  0  3G 6G 9G11
  16060228.136 9 -38574042.303 8  16687212.683    16687213.737        1183.785
       915.632
  -2965197.122 9  -4809602.635 9  18746018.144    18746020.208        3040.383
      2366.079
  -2729710.167 9  -2172652.833 8  17476827.549    17476830.833        2128.770
      1638.699
 88  3 22  4  2 35.0800000  0  3G 6G 9G11
  16024982.805 9 -38601506.177 8  16680506.741    16680507.400        1168.036
       914.464
  -3056135.225 9  -4880463.437 9  18728712.580    18728715.461        3028.916
      2357.330
  -2793105.377 9  -2222051.674 7  17464764.135    17464768.188        2103.819
      1623.718
 88  3 22  4  3  5.0800000  0  3G 6G 9G11
  15990095.708 9 -38628690.916 9  16673866.811    16673868.196        1150.245
       894.505
  -3146987.884 9  -4951257.653 9  18711424.200    18711426.276        3028.246
      2364.643
  -2856016.215 9  -2271073.089 8  17452791.948    17452795.470        2074.010
      1625.408
 88  3 22  4  3 35.0800000  0  3G 6G 9G11
  15955569.335 9 -38655594.574 9  16667295.564    16667298.369        1136.808
       891.479
  -3237752.691 9  -5021983.415 8  18694151.919    18694153.814        3021.627
      2356.093
  -2918440.921 9  -2319715.665 8  17440913.176    17440917.020        2080.526
      1610.855
 88  3 22  4  4  5.0800000  0  3G 6G 9G11
  15921405.960 9 -38682215.381 8  16660795.073    16660797.142        1157.382
       892.939
  -3328427.495 9  -5092639.057 9  18676896.622    18676899.348        3021.500
      2356.298
  -2980378.228 9  -2367978.487 7  17429127.505    17429130.805        2073.221
      1596.334
 88  3 22  4  4 35.0800000  0  3G 6G 9G11
  15887607.912 9 -38708551.500 9  16654363.151    16654366.088        1111.546
       879.859
  -3419010.124 9  -5163222.867 8  18659659.946    18659661.083        3031.531
      2366.936
  -3041827.250 9  -2415860.812 9  17417434.589    17417437.437        2047.926
      1585.267
 88  3 22  4  5  5.0800000  0  3G 6G 9G11
  15854177.656 9 -38734601.047 8  16648002.743    16648004.402        1106.314
       866.636
  -3509498.036 9  -5233732.880 8  18642440.547    18642442.617        3010.862
      2352.812
  -3102786.026 9  -2463361.134 8  17405834.003    17405838.063        2025.255
      1584.391
 88  3 22  4  5 35.0800000  0  3G 6G 9G11
  15821117.201 9 -38760362.425 9  16641711.551    16641713.061        1107.574
       854.551
  -3599889.423 9  -5304167.687 7  18625239.348    18625241.567        3005.328
      2346.803
  -3163253.729 9  -2510478.790 8  17394327.209    17394330.821        2010.614
      1578.842
 88  3 22  4  6  5.0800000  0  3G 6G 9G11
  15788429.015 9 -38785833.735 9  16635490.942    16635492.584        1095.972
       850.008
  -3690181.762 9  -5374525.305 8  18608057.762    18608058.928        2998.677
      2354.757
  -3223229.538 9  -2557213.151 7  17382914.649    17382917.439        1987.210
      1546.953
 88  3 22  4  6 35.0800000  0  3G 6G 9G11
  15756115.666 9 -38811012.957 8  16629341.162    16629343.423        1055.135
       829.441
  -3780372.763 9  -5444803.964 8  18590895.176    18590896.706        2992.337
      2346.406
  -3282711.468 9  -2603562.686 8  17371595.139    17371598.444        1973.390
      1536.476
 88  3 22  4  7  5.0800000  0  3G 6G 9G11
  15724179.124 9 -38835898.580 8  16623265.555    16623266.447        1062.176
       844.124
  -3870460.392 9  -5515002.077 8  18573752.025    18573753.929        3004.076
      2348.636
  -3341698.550 9  -2649526.626 7  17360369.759    17360372.291        1965.974
      1530.337
 88  3 22  4  7 35.0800000  0  3G 6G 9G11
  15692621.814 8 -38860488.684 8  16617259.433    16617260.604        1046.802
       818.815
  -3960442.295 9  -5585117.798 8  18556628.117    18556630.640        2996.484
      2331.269
  -3400189.559 9  -2695104.007 8  17349240.019    17349243.579        1929.715
      1519.618
 88  3 22  4  8  5.0800000  0  3G 6G 9G11
  15661445.763 9 -38884781.692 9  16611326.371    16611328.195        1039.449
       797.545
  -4050316.466 9  -5655149.573 8  18539525.887    18539528.045        3005.447
      2336.731
  -3458183.700 9  -2740294.225 8  17338203.864    17338206.273        1917.873
      1488.984
 88  3 22  4  8 35.0800000  0  3G 6G 9G11
  15630653.377 9 -38908775.763 8  16605466.832    16605468.484        1026.180
       787.684
  -4140080.186 9  -5725095.280 8  18522444.478    18522446.832        2999.881
      2338.831
  -3515679.355 9  -2785096.015 8  17327262.692    17327266.002        1908.431
      1479.546
 88  3 22  4  9  5.0800000  0  3G 6G 9G11
  15600247.084 9 -38932468.967 8  16599681.244    16599682.418        1009.785
       791.928
  -4229731.469 9  -5794953.373 8  18505384.711    18505386.488        2998.119
      2328.081
  -3572675.455 9  -2829508.539 8  17316416.564    17316419.794        1896.972
      1484.809
 88  3 22  4  9 35.0800000  0  3G 6G 9G11
  15570229.232 9 -38955859.486 9  16593969.965    16593969.930         975.455
       786.305
  -4319267.657 8  -5864721.783 8  18488345.855    18488346.906        2976.413
      2335.724
  -3629170.844 9  -2873530.907 8  17305665.870    17305669.310        1881.390
      1459.599
 88  3 22  4 10  5.0800000  0  3G 6G 9G11
  15540602.242 9 -38978945.440 9  16588330.522    16588333.264         980.894
       755.882
  -4408686.431 9  -5934398.704 8  18471329.958    18471332.532        2979.714
      2335.345
  -3685164.456 9  -2917162.261 8  17295010.486    17295013.914        1866.119
      1452.012
 88  3 22  4 10 35.0800000  0  3G 6G 9G11
  15511368.151 9 -39001725.249 8  16582766.678    16582770.025         978.095
       767.235
  -4497985.653 8  -6003982.461 9  18454336.825    18454339.213        2980.416
      2322.911
  -3740655.445 9  -2960401.979 7  17284452.152    17284454.138        1848.296
      1447.016
 88  3 22  4 11  5.0800000  0  3G 6G 9G11
  15482529.301 8 -39024197.068 8  16577281.153    16577282.448         933.654
       752.129
  -4587162.581 9  -6073470.920 9  18437367.091    18437368.962        2963.064
      2320.271
  -3795642.529 9  -3003249.027 7  17273988.044    17273991.197        1820.203
      1432.439
 88  3 22  4 11 35.0800000  0  3G 6G 9G11
  15454087.652 8 -39046359.387 8  16571867.672    16571870.045         940.719
       737.321
  -4676215.489 9  -6142862.732 8  18420421.627    18420421.932        2977.377
      2317.381
  -3850125.017 9  -3045702.901 8  17263620.361    17263623.389        1814.924
      1403.054
 88  3 22  4 12  5.0800000  0  3G 6G 9G11
  15426045.911 9 -39068210.086 8  16566531.644    16566533.315         922.864
       720.283
  -4765141.422 9  -6212155.642 8  18403499.336    18403501.206        2969.403
      2306.370
  -3904101.280 9  -3087762.300 7  17253348.857    17253351.533        1800.530
      1392.745
 88  3 22  4 12 35.0800000  0  3G 6G 9G11
  15398406.297 9 -39089747.446 8  16561272.098    16561273.447         922.178
       701.834
  -4853937.919 9  -6281347.663 9  18386601.402    18386603.607        2960.105
      2298.628
  -3957570.429 9  -3129426.552 8  17243174.109    17243176.536        1778.082
      1371.786
 88  3 22  4 13  5.0800000  0  3G 6G 9G11
  15371171.019 9 -39110969.735 9  16556089.881    16556091.470         893.327
       704.264
  -4942602.924 9  -6350437.238 8  18369728.715    18369730.932        2949.427
      2297.739
  -4010531.515 9  -3170694.920 7  17233095.950    17233097.256        1759.542
      1362.913
 88  3 22  4 13 35.0800000  0  3G 6G 9G11
  15344341.452 9 -39131875.870 9  16550984.573    16550985.802         882.028
       685.871
  -5031134.726 9  -6419423.011 8  18352882.209    18352883.377        2946.333
      2303.145
  -4062984.474 9  -3211567.340 8  17223114.011    17223117.088        1746.823
      1359.651
 88  3 22  4 14  5.0800000  0  3G 6G 9G11
  15317920.456 9 -39152463.661 9  16545956.177    16545957.877         886.613
       690.153
  -5119530.088 9  -6488302.470 9  18336061.017    18336062.815        2950.663
      2293.477
  -4114927.842 9  -3252042.669 8  17213229.657    17213232.262        1705.420
      1346.689
 88  3 22  4 14 35.0800000  0  3G 6G 9G11
  15291910.271 9 -39172731.331 9  16541006.085    16541007.925         863.423
       666.074
  -5207786.738 9  -6557073.850 9  18319266.024    18319268.293        2943.782
      2281.876
  -4166360.790 9  -3292120.261 8  17203441.170    17203444.814        1705.157
      1325.214
 88  3 22  4 15  5.0800000  0  3G 6G 9G11
  15266313.191 9 -39192677.105 9  16536135.078    16536138.114         836.343
       663.682
  -5295902.186 9  -6625735.190 9  18302498.620    18302500.736        2937.115
      2288.282
  -4217282.118 8  -3331799.194 8  17193751.247    17193755.359        1683.570
      1323.555
 88  3 22  4 15 35.0800000  0  3G 6G 9G11
  15241131.468 9 -39212299.226 8  16531342.347    16531345.715         849.723
       653.019
  -5383873.775 9  -6694284.439 8  18285758.371    18285759.540        2937.243
      2297.714
  -4267691.019 9  -3371078.838 7  17184159.721    17184162.693        1672.972
      1299.942
 88  3 22  4 16  5.0800000  0  3G 6G 9G11
  15216367.197 9 -39231596.055 8  16526630.388    16526633.017         820.896
       637.441
  -5471699.429 9  -6762719.968 9  18269045.276    18269047.946        2927.952
      2290.283
  -4317586.719 9  -3409958.590 7  17174665.403    17174668.012        1648.563
      1279.101
 88  3 22  4 16 35.0800000  0  3G 6G 9G11
  15192022.294 9 -39250566.102 8  16521997.523    16522000.817         810.793
       614.817
  -5559376.659 9  -6831039.856 8  18252360.570    18252363.408        2925.217
      2278.576
  -4366968.644 9  -3448437.991 8  17165267.663    17165271.012        1643.786
      1273.155
 88  3 22  4 17  5.0800000  0  3G 6G 9G11
  15168099.760 9 -39269207.032 8  16517446.304    16517448.420         784.517
       613.568
  -5646902.159 9  -6899241.512 8  18235705.175    18235707.382        2911.605
      2264.999
  -4415835.265 9  -3486515.856 8  17155969.034    17155972.140        1617.973
      1262.361
 88  3 22  4 17 35.0800000  0  3G 6G 9G11
  15144601.613 9 -39287517.289 8  16512973.939    16512976.118         787.651
       596.082
  -5734273.666 9  -6967323.171 8  18219078.538    18219080.976        2913.343
      2267.068
  -4464185.876 9  -3524191.640 8  17146767.558    17146771.146        1606.474
      1267.376
 88  3 22  4 18  5.0800000  0  3G 6G 9G11
  15121529.154 9 -39305495.824 8  16508583.893    16508586.300         773.289
       585.550
  -5821489.567 9  -7035283.567 8  18202482.604    18202484.351        2902.881
      2270.305
  -4512020.636 9  -3561465.453 7  17137664.297    17137667.464        1593.843
      1253.842
 88  3 22  4 18 35.0800000  0  3G 6G 9G11
  15098886.101 9 -39323139.759 8  16504275.398    16504277.441         743.832
       575.614
  -5908545.785 9  -7103119.553 8  18185915.578    18185917.694        2910.098
      2255.386
  -4559337.372 9  -3598335.612 7  17128660.863    17128663.858        1561.172
      1229.838
 88  3 22  4 19  5.0800000  0  3G 6G 9G11
  15076674.814 9 -39340447.256 9  16500048.740    16500050.722         750.212
       572.861
  -5995439.735 8  -7170829.089 8  18169380.456    18169381.862        2902.889
      2260.177
  -4606135.116 8  -3634801.366 8  17119755.324    17119758.114        1551.866
      1207.090
 88  3 22  4 19 35.0800000  0  3G 6G 9G11
  15054897.211 9 -39357416.804 8  16495905.010    16495906.114         713.083
       565.846
  -6082169.004 9  -7238410.303 8  18152876.220    18152878.025        2878.623
      2253.149
  -4652413.365 9  -3670862.332 8  17110948.746    17110952.586        1535.630
      1199.521
 88  3 22  4 20  5.0800000  0  3G 6G 9G11
  15033556.035 9 -39374046.293 8  16491842.885    16491843.752         685.332
       556.910
  -6168730.360 9  -7305860.686 9  18136403.636    18136406.077        2884.995
      2272.567
  -4698170.843 9  -3706517.476 7  17102241.862    17102244.345        1529.258
      1170.130
 88  3 22  4 20 35.0800000  0  3G 6G 9G11
  15012653.117 9 -39390334.278 9  16487865.282    16487866.612         690.212
       540.922
  -6255121.489 9  -7373178.410 9  18119963.811    18119965.650        2877.259
      2244.288
  -4743407.032 9  -3741766.439 8  17093633.818    17093636.398        1497.465
      1169.471
 88  3 22  4 21  5.0800000  0  3G 6G 9G11
  14992189.830 9 -39406279.689 9  16483971.895    16483972.841         677.804
       534.379
  -6341340.717 9  -7440362.176 9  18103557.108    18103559.703        2871.693
      2233.097
  -4788122.060 9  -3776609.300 8  17085124.875    17085128.186        1485.766
      1161.431
 88  3 22  4 21 35.0800000  0  3G 6G 9G11
  14972168.931 9 -39421880.392 8  16480161.389    16480163.869         652.685
       521.672
  -6427384.854 9  -7507409.526 9  18087183.672    18087185.723        2870.649
      2232.625
  -4832314.935 9  -3811045.272 8  17076714.390    17076719.101        1480.830
      1138.614
 88  3 22  4 22  5.0800000  0  3G 6G 9G11
  14952592.350 9 -39437134.878 8  16476436.248    16476436.998         651.912
       497.395
  -6513251.036 9  -7574318.208 8  18070843.870    18070846.840        2869.142
      2224.889
  -4875984.860 9  -3845073.779 8  17068403.416    17068409.042        1462.393
      1156.006
 88  3 22  4 22 35.0800000  0  4G 6G 9G11G13
  14933462.039 9 -39452041.609 9  16472796.225    16472798.174         624.280
       503.167
  -6598937.001 9  -7641086.461 9  18054539.091    18054540.532        2846.096
      2216.792
  -4919131.547 9  -3878694.544 7  17060194.168    17060197.766        1429.395
      1121.246
 -14484328.680 8  18324572.668 7  20163957.877    20163962.922        3692.829
      2866.704
 88  3 22  4 23  5.0800000  0  4G 6G 9G11G13
  14914779.609 9 -39466599.347 8  16469241.509    16469243.013         608.356
       483.277
  -6684440.771 9  -7707712.742 9  18038267.814    18038270.051        2841.758
      2218.980
  -4961755.128 9  -3911907.706 9  17052083.292    17052086.395        1405.656
      1110.571
 -14595140.316 8  18238225.509 8  20142872.968    20142877.836        3709.487
      2870.116
 88  3 22  4 23 35.0800000  0  4G 6G 9G11G13
  14896548.123 9 -39480805.700 8  16465771.439    16465772.685         593.842
       469.103
  -6769759.099 9  -7774194.531 9  18022032.636    18022033.939        2841.144
      2207.969
  -5003853.990 9  -3944711.981 8  17044072.267    17044075.350        1400.480
      1083.112
 -14705743.050 9  18152041.623 8  20121825.820    20121830.194        3687.207
      2877.833
 88  3 22  4 24  5.0800000  0  4G 6G 9G11G13
  14878769.385 9 -39494659.260 8  16462388.207    16462390.103         607.008
       460.149
  -6854888.655 9  -7840529.222 8  18005832.835    18005833.077        2842.539
      2201.960
  -5045427.673 9  -3977107.025 8  17036161.294    17036164.128        1373.655
      1065.968
 -14816134.431 9  18066022.452 9  20100819.379    20100823.302        3691.625
      2853.190
 88  3 22  4 24 35.0800000  0  4G 6G 9G11G13
  14861445.565 9 -39508158.338 8  16459091.706    16459092.198         576.889
       433.971
  -6939827.411 9  -7906715.251 8  17989668.730    17989671.645        2827.938
      2214.760
  -5086475.933 9  -4009092.676 9  17028348.381    17028352.697        1367.251
      1060.886
 -14926311.967 9  17980169.887 9  20079852.714    20079856.987        3677.837
      2855.451
 88  3 22  4 25  5.0800000  0  4G 6G 9G11G13
  14844578.486 9 -39521301.514 8  16455881.794    16455884.117         549.050
       446.237
  -7024572.731 8  -7972750.527 9  17973543.201    17973544.713        2816.973
      2195.119
  -5126998.656 8  -4040668.809 8  17020639.271    17020640.576        1336.933
      1055.703
 -15036273.620 9  17894485.539 8  20058928.758    20058932.475        3672.287
      2845.186
 88  3 22  4 25 35.0800000  0  4G 6G 9G11G13
  14828170.119 9 -39534087.264 8  16452759.928    16452761.070         535.701
       421.643
  -7109122.104 9  -8038633.131 8  17957453.427    17957455.721        2825.721
      2188.737
  -5166995.054 9  -4071834.818 8  17013027.518    17013030.375        1329.955
      1032.197
 -15146016.726 9  17808971.498 9  20038044.353    20038048.195        3651.139
      2837.599
 88  3 22  4 26  5.0800000  0  4G 6G 9G11G13
  14812223.180 9 -39546513.453 8  16449725.347    16449726.117         526.953
       412.974
  -7193472.002 9  -8104360.303 9  17941402.587    17941404.189        2804.788
      2198.636
  -5206464.350 8  -4102590.089 7  17005516.729    17005520.601        1293.967
      1021.807
 -15255538.419 9  17723629.975 9  20017203.365    20017207.534        3641.984
      2849.878
 88  3 22  4 26 35.0800000  0  4G 6G 9G11G13
  14796739.694 9 -39558578.500 8  16446778.672    16446780.087         502.177
       395.228
  -7277619.985 9  -8169930.140 8  17925389.221    17925391.625        2801.184
      2185.873
  -5245405.837 9  -4132934.081 9  16998106.368    16998109.452        1301.048
       992.640
 -15364836.767 9  17638462.454 9  19996405.004    19996408.612        3650.836
      2844.043
 88  3 22  4 27  5.0800000  0  4G 6G 9G11G13
  14781721.559 9 -39570280.956 8  16443920.784    16443922.197         502.512
       389.517
  -7361563.008 9  -8235340.263 8  17909415.268    17909417.724        2787.293
      2172.923
  -5283819.386 9  -4162866.691 9  16990796.226    16990800.795        1284.214
       999.239
 -15473909.510 9  17553470.724 8  19975648.477    19975653.750        3629.720
      2820.356
 88  3 22  4 27 35.0800000  0  4G 6G 9G11G13
  14767171.084 9 -39581618.978 8  16441151.618    16441153.919         478.310
       373.747
  -7445298.099 9  -8300588.364 8  17893480.901    17893483.073        2778.952
      2184.934
  -5321704.187 8  -4192387.299 8  16983587.637    16983590.056        1257.325
       974.818
 -15582753.422 9  17468657.314 8  19954936.971    19954940.854        3639.600
      2815.416
 88  3 22  4 28  5.0800000  0  4G 6G 9G11G13
  14753089.950 9 -39592591.299 8  16438471.880    16438473.636         463.246
       360.331
  -7528823.416 9  -8365673.000 8  17877585.960    17877588.159        2779.159
      2167.573
  -5359060.315 9  -4221495.947 8  16976478.735    16976481.171        1234.670
       962.086
 -15691367.504 9  17384023.010 9  19934266.666    19934271.657        3638.771
      2821.033
 88  3 22  4 28 35.0800000  0  4G 6G 9G11G13
  14739480.383 9 -39603196.164 9  16435882.144    16435883.932         447.856
       349.476
  -7612135.528 9  -8430591.499 9  17861733.159    17861734.799        2775.786
      2162.266
  -5395887.117 9  -4250192.147 9  16969470.325    16969473.202        1218.633
       943.955
 -15799749.071 9  17299569.891 9  19913642.647    19913647.240        3606.881
      2812.036
 88  3 22  4 29  5.0800000  0  4G 6G 9G11G13
  14726344.341 9 -39613432.027 8  16433382.826    16433383.869         426.859
       335.662
  -7695231.737 9  -8495341.783 9  17845920.224    17845922.366        2759.502
      2167.356
  -5432184.351 9  -4278475.678 8  16962563.352    16962566.311        1206.983
       944.122
 -15907894.779 9  17215300.557 8  19893063.374    19893067.588        3607.710
      2802.367
 88  3 22  4 29 35.0800000  0  4G 6G 9G11G13
  14713684.399 9 -39623296.916 9  16430972.956    16430975.759         415.847
       326.559
  -7778108.780 9  -8559921.281 8  17830149.283    17830151.054        2756.831
      2148.298
  -5467951.103 9  -4306345.855 8  16955756.795    16955759.849        1182.653
       911.587
 -16015802.679 9  17131216.530 8  19872530.672    19872533.773        3591.483
      2806.139
 88  3 22  4 30  5.0800000  0  4G 6G 9G11G13
  14701504.841 9 -39632787.470 8  16428654.801    16428657.421         396.916
       318.282
  -7860761.545 9  -8624326.009 9  17814420.641    17814422.926        2751.273
      2144.234
  -5503184.841 9  -4333800.698 9  16949052.150    16949054.782        1158.810
       907.244
 -16123467.773 8  17047321.694 8  19852040.863    19852045.480        3588.325
      2783.750
 88  3 22  4 30 35.0800000  0  4G 6G 9G11G13
  14689805.001 9 -39641904.235 8  16426428.218    16426431.577         387.713
       301.238
  -7943189.824 8  -8688555.818 9  17798735.735    17798737.338        2751.408
      2147.024
  -5537888.040 9  -4360842.131 7  16942448.858    16942451.757        1150.755
       893.822
 -16230890.244 9  16963615.926 8  19831600.030    19831602.739        3575.973
      2781.066
 88  3 22  4 31  5.0800000  0  4G 6G 9G11G13
  14678588.716 9 -39650644.197 8  16424294.085    16424297.064         369.508
       301.244
  -8025388.774 9  -8752606.920 8  17783093.085    17783095.869        2736.018
      2122.535
  -5572058.175 9  -4387468.201 8  16935946.229    16935948.861        1126.186
       901.645
 -16338065.679 9  16880102.634 7  19811203.639    19811207.216        3559.832
      2792.027
 88  3 22  4 31 35.0800000  0  4G 6G 9G11G13
  14667856.796 9 -39659006.729 8  16422252.527    16422254.280         345.664
       260.668
  -8107357.065 9  -8816478.301 9  17767496.474    17767497.508        2741.536
      2125.835
  -5605696.550 9  -4413679.907 8  16929545.431    16929548.368        1104.169
       860.578
 -16444993.530 8  16796782.239 7  19790857.440    19790860.291        3568.277
      2774.697
 88  3 22  4 32  5.0800000  0  4G 6G 9G11G13
  14657610.604 9 -39666990.784 8  16420302.127    16420304.158         333.488
       262.085
  -8189092.154 9  -8880167.953 9  17751941.047    17751944.008        2732.254
      2130.999
  -5638803.382 9  -4439477.427 7  16923244.346    16923246.985        1097.080
       844.031
 -16551672.061 8  16713656.122 7  19770557.492    19770559.786        3558.604
      2767.955
 88  3 22  4 32 35.0800000  0  4G 6G 9G11G13
  14647851.008 9 -39674595.673 8  16418446.150    16418447.519         325.473
       246.395
  -8270592.114 9  -8943674.397 8  17736432.618    17736435.208        2700.532
      2107.970
  -5671379.492 9  -4464861.394 8  16917045.423    16917048.498        1090.166
       850.829
 -16658099.468 9  16630725.669 9  19750305.108    19750307.938        3549.306
      2751.868
 88  3 22  4 33  5.0800000  0  4G 6G 9G11G13
  14638579.674 8 -39681820.084 8  16416681.359    16416683.207         310.777
       220.726
  -8351854.638 9  -9006995.821 9  17720969.488    17720971.582        2700.348
      2118.341
  -5703425.208 9  -4489832.066 8  16910947.578    16910951.179        1066.474
       826.626
 -16764274.326 9  16547992.056 7  19730100.472    19730104.047        3525.407
      2750.066
 88  3 22  4 33 35.0800000  0  4G 6G 9G11G13
  14629798.438 8 -39688662.610 8  16415009.717    16415012.599         294.660
       217.433
  -8432876.878 9  -9070130.021 8  17705551.943    17705553.165        2687.278
      2097.687
  -5734940.115 9  -4514389.120 7  16904950.855    16904952.810        1045.263
       813.844
 -16870194.453 9  16465456.938 8  19709944.100    19709948.005        3531.340
      2752.216
 88  3 22  4 34  5.0800000  0  4G 6G 9G11G13
  14621507.910 9 -39695122.784 8  16413431.815    16413434.653         277.755
       202.793
  -8513656.952 9  -9133075.504 9  17690179.532    17690181.798        2686.178
      2091.094
  -5765925.574 9  -4538533.622 7  16899054.840    16899056.880        1019.187
       787.926
 -16975858.396 9  16383121.423 8  19689837.991    19689839.598        3514.993
      2730.685
 88  3 22  4 34 35.0800000  0  4G 6G 9G11G13
  14613709.133 9 -39701199.764 7  16411948.705    16411950.345         259.693
       195.243
  -8594193.102 9  -9195830.917 9  17674854.163    17674856.499        2677.837
      2093.641
  -5796381.982 9  -4562265.874 7  16893259.028    16893261.413         996.173
       785.646
 -17081264.714 9  16300986.677 8  19669779.322    19669781.861        3520.168
      2733.854
 88  3 22  4 35  5.0800000  0  4G 6G 9G11G13
  14606403.866 9 -39706892.183 8  16410558.096    16410560.448         247.357
       176.161
  -8674482.520 9  -9258394.082 9  17659575.865    17659578.160        2659.807
      2079.256
  -5826309.628 9  -4585586.112 7  16887563.363    16887566.573         998.318
       799.503
 -17186411.532 9  16219054.103 8  19649770.865    19649773.208        3507.537
      2717.437
 88  3 22  4 35 35.0800000  0  4G 6G 9G11G13
  14599593.528 9 -39712198.943 8  16409263.415    16409264.576         214.718
       176.714
  -8754522.487 9  -9320762.866 9  17644344.358    17644345.742        2663.937
      2074.385
  -5855708.691 9  -4608494.457 8  16881968.664    16881972.319         980.248
       755.149
 -17291296.850 9  16137325.296 8  19629810.607    19629814.766        3478.486
      2716.586
 88  3 22  4 36  5.0800000  0  4G 6G 9G11G13
  14593280.109 8 -39717118.487 8  16408061.077    16408062.906         205.029
       158.967
  -8834310.269 9  -9382935.140 9  17629161.123    17629162.062        2652.877
      2067.649
  -5884579.157 9  -4630990.905 8  16876476.227    16876477.845         963.645
       746.095
 -17395918.160 9  16055802.226 8  19609902.129    19609904.707        3481.229
      2709.371
 88  3 22  4 36 35.0800000  0  4G 6G 9G11G13
  14587465.168 9 -39721649.621 8  16406954.218    16406957.144         174.622
       158.029
  -8913843.104 9  -9444908.749 9  17614026.401    17614027.721        2660.054
      2060.130
  -5912921.305 9  -4653075.673 7  16871081.650    16871084.412         927.976
       716.667
 -17500273.759 9  15974486.182 9  19590043.343    19590046.082        3476.899
      2699.703
 88  3 22  4 37  5.0800000  0  4G 6G 9G11G13
  14582150.540 8 -39725790.893 8  16405943.625    16405944.522         172.741
       130.508
  -8993117.825 9  -9506681.237 8  17598940.713    17598941.995        2641.274
      2049.480
  -5940734.987 8  -4674748.646 8  16865788.337    16865792.823         913.000
       702.400
 -17604361.106 9  15893379.190 8  19570236.551    19570239.414        3467.856
      2703.214
 88  3 22  4 37 35.0800000  0  4G 6G 9G11G13
  14577337.636 9 -39729541.215 9  16405027.855    16405028.868         149.647
       114.321
  -9072132.315 9  -9568250.959 8  17583904.296    17583906.166        2625.573
      2064.126
  -5968020.345 9  -4696009.959 8  16860597.026    16860599.980         908.407
       683.541
 -17708178.429 9  15812482.608 9  19550480.399    19550484.254        3453.439
      2702.089
 88  3 22  4 38  5.0800000  0  4G 6G 9G11G13
  14573028.545 8 -39732898.947 8  16404206.889    16404208.121         138.849
       114.520
  -9150883.057 9  -9629615.138 9  17568918.923    17568920.105        2619.233
      2040.097
  -5994777.059 9  -4716859.324 8  16855505.118    16855508.137         872.969
       689.115
 -17811722.900 9  15731798.634 8  19530775.841    19530780.827        3441.405
      2693.421
 88  3 22  4 38 35.0800000  0  4G 6G 9G11G13
  14569224.551 9 -39735863.098 7  16403483.765    16403485.982         112.303
        91.573
  -9229367.577 9  -9690771.896 9  17553983.484    17553984.981        2621.067
      2035.928
  -6021005.965 9  -4737297.407 8  16850515.016    16850517.386         871.557
       675.674
 -17914993.256 8  15651328.288 8  19511124.571    19511127.879        3437.952
      2677.507
 88  3 22  4 39  5.0800000  0  4G 6G 9G11G13
  14565927.197 9 -39738432.460 8  16402857.026    16402858.547         111.848
        73.130
  -9307583.045 9  -9751718.987 9  17539099.306    17539102.130        2593.931
      2033.399
  -6046707.289 9  -4757324.398 8  16845623.411    16845626.367         834.788
       664.496
 -18017987.602 8  15571072.959 8  19491525.723    19491530.006        3436.820
      2655.262
 88  3 22  4 39 35.0800000  0  4G 6G 9G11G13
  14563138.201 9 -39740605.719 8  16402325.556    16402327.334          78.029
        73.478
  -9385526.395 9  -9812454.051 9  17524267.983    17524268.642        2597.774
      2033.424
  -6071881.115 9  -4776940.358 8  16840833.184    16840834.919         811.359
       645.364
 -18120703.429 8  15491034.714 8  19471979.987    19471983.342        3417.243
      2671.101
 88  3 22  4 40  5.0800000  0  4G 6G 9G11G13
  14560858.858 9 -39742381.832 8  16401892.459    16401893.781          79.257
        51.444
  -9463195.523 9  -9872975.444 9  17509487.466    17509488.516        2583.357
      2012.682
  -6096527.820 9  -4796145.573 8  16836142.448    16836146.481         813.719
       636.994
 -18223138.743 9  15411215.030 9  19452485.879    19452490.205        3424.675
      2661.097
 88  3 22  4 40 35.0800000  0  4G 6G 9G11G13
  14559091.212 9 -39743759.235 7  16401555.011    16401556.593          57.383
        35.288
  -9540586.798 9  -9933280.308 8  17494761.023    17494761.323        2574.162
      2007.208
  -6120647.355 9  -4814939.982 8  16831553.129    16831555.309         788.991
       634.291
 -18325290.861 9  15331616.005 8  19433048.625    19433051.449        3404.819
      2647.532
 88  3 22  4 41  5.0800000  0  4G 6G 9G11G13
  14557836.672 9 -39744736.811 7  16401317.356    16401317.547          19.641
        34.132
  -9617697.700 9  -9993366.701 9  17480087.526    17480088.204        2569.720
      2016.864
  -6144240.203 9  -4833324.010 8  16827063.228    16827065.770         786.056
       611.387
 -18427158.480 9  15252238.674 9  19413663.627    19413667.500        3391.829
      2631.420
 88  3 22  4 41 35.0800000  0  4G 6G 9G11G13
  14557096.706 9 -39745313.419 7  16401176.508    16401177.876          16.778
         4.051
  -9694525.349 9 -10053232.388 9  17465466.982    17465468.664        2564.681
      1989.747
  -6167306.490 9  -4851297.721 9  16822673.978    16822675.618         760.674
       606.086
 -18528739.313 9  15173084.792 8  19394334.146    19394336.938        3391.135
      2620.036
 88  3 22  4 42  5.0800000  0  4G 6G 9G11G13
  14556872.563 9 -39745488.088 8  16401132.846    16401135.155          17.743
        -1.541
  -9771067.056 9 -10112875.279 8  17450901.999    17450903.909        2550.470
      1994.836
  -6189846.883 9  -4868861.650 8  16818384.645    16818387.140         727.325
       588.352
 -18630032.184 9  15094155.297 8  19375058.542    19375061.597        3365.968
      2633.470
 88  3 22  4 42 35.0800000  0  4G 6G 9G11G13
  14557166.010 9 -39745259.434 7  16401189.874    16401190.819         -29.601
       -12.850
  -9847319.907 9 -10172293.063 8  17436390.591    17436392.050        2532.337
      1974.939
  -6211861.367 9  -4886015.787 6  16814194.920    16814198.544         728.529
       552.176
 -18731034.173 9  15015452.486 8  19355838.528    19355841.240        3360.928
      2625.417
 88  3 22  4 43  5.0800000  0  4G 6G 9G11G13
  14557978.829 9 -39744626.075 8  16401344.774    16401345.755         -32.519
       -33.685
  -9923280.781 9 -10231483.343 9  17421936.502    17421937.513        2525.463
      1974.716
  -6233350.298 9  -4902760.386 8  16810106.719    16810109.146         719.127
       557.519
 -18831743.442 9  14936977.739 9  19336673.972    19336677.542        3362.284
      2612.474
 88  3 22  4 43 35.0800000  0  4G 6G 9G11G13
  14559311.501 9 -39743587.634 7  16401597.175    16401599.808         -50.406
       -34.673
  -9998947.394 9 -10290444.334 8  17407537.764    17407539.462        2513.270
      1959.150
  -6254314.669 9  -4919096.242 8  16806116.571    16806119.863         688.283
       533.155
 -18932158.659 9  14858732.157 7  19317565.550    19317568.565        3345.809
      2611.647
 88  3 22  4 44  5.0800000  0  4G 6G 9G11G13
  14561166.016 9 -39742142.570 8  16401950.941    16401951.813         -71.299
       -50.717
 -10074316.585 9 -10349173.552 9  17393194.942    17393196.858        2519.418
      1959.722
  -6274754.716 9  -4935023.549 8  16802226.910    16802229.038         677.063
       524.810
 -19032276.942 9  14780717.908 8  19298513.878    19298516.471        3332.515
      2594.603
 88  3 22  4 44 35.0800000  0  4G 6G 9G11G13
  14563543.722 9 -39740289.821 7  16402403.401    16402404.481         -85.477
       -45.702
 -10149385.686 8 -10407668.944 9  17378910.268    17378912.229        2478.757
      1944.647
  -6294670.721 9  -4950542.494 9  16798436.507    16798440.428         666.616
       515.539
 -19132097.071 9  14702936.019 9  19279517.834    19279521.348        3331.000
      2602.780
 88  3 22  4 45  5.0800000  0  4G 6G 9G11G13
  14566446.275 9 -39738028.108 7  16402955.603    16402957.329        -110.030
       -63.437
 -10224151.276 9 -10465927.831 9  17364681.548    17364684.180        2488.653
      1940.801
  -6314063.009 8  -4965653.346 9  16794747.136    16794750.406         649.168
       517.024
 -19231616.601 9  14625388.365 8  19260580.338    19260583.693        3304.206
      2581.162
 88  3 22  4 45 35.0800000  0  4G 6G 9G11G13
  14569875.165 9 -39735356.240 8  16403607.666    16403609.658        -131.385
       -90.734
 -10298610.746 9 -10523948.177 9  17350512.721    17350515.496        2470.543
      1930.455
  -6332931.913 9  -4980356.381 8  16791155.093    16791159.327         617.598
       470.508
 -19330833.243 9  14548076.715 8  19241700.025    19241703.354        3307.643
      2583.138
 88  3 22  4 46  5.0800000  0  4G 6G 9G11G13
  14573831.176 9 -39732273.641 9  16404359.919    16404362.865        -139.344
      -111.308
 -10372761.279 9 -10581727.788 9  17336403.604    17336405.707        2465.775
      1933.320
  -6351278.645 8  -4994652.510 8  16787665.314    16787668.166         593.539
       460.410
 -19429745.809 9  14471002.021 9  19222877.335    19222880.326        3285.188
      2559.451
 88  3 22  4 46 35.0800000  0  4G 6G 9G11G13
  14578315.695 9 -39728779.221 8  16405213.634    16405215.756        -144.049
      -127.277
 -10446600.475 8 -10639264.807 9  17322351.859    17322353.357        2439.930
      1916.847
  -6369103.642 9  -5008542.108 9  16784271.562    16784275.441         596.490
       459.876
 -19528352.285 9  14394165.812 9  19204113.430    19204116.633        3302.053
      2560.315
 88  3 22  4 47  5.0800000  0  4G 6G 9G11G13
  14583330.555 9 -39724871.547 8  16406168.385    16406170.417        -172.764
      -128.725
 -10520124.636 9 -10696556.355 8  17308360.678    17308363.206        2463.909
      1912.851
  -6386406.593 9  -5022024.923 8  16780980.579    16780983.092         563.532
       450.263
 -19626650.109 9  14317570.134 8  19185407.574    19185410.935        3272.046
      2553.915
 88  3 22  4 47 35.0800000  0  4G 6G 9G11G13
  14588877.261 9 -39720549.439 9  16407223.785    16407225.835        -205.507
      -146.596
 -10593330.905 9 -10753600.179 9  17294429.657    17294432.501        2432.984
      1906.812
  -6403188.304 9  -5035101.566 8  16777787.142    16777789.878         547.009
       425.097
 -19724637.919 9  14241216.030 9  19166760.792    19166764.601        3285.778
      2536.200
 88  3 22  4 48  5.0800000  0  4G 6G 9G11G13
  14594957.063 9 -39715811.947 8  16408379.885    16408382.619        -191.999
      -177.733
 -10666216.096 9 -10810393.823 9  17280560.190    17280562.503        2429.475
      1886.343
  -6419449.177 9  -5047772.367 8  16774691.563    16774695.671         550.980
       423.948
 -19822313.663 9  14165105.092 9  19148173.055    19148176.948        3262.006
      2524.617
 88  3 22  4 48 35.0800000  0  4G 6G 9G11G13
  14601571.038 9 -39710658.210 8  16409638.845    16409640.875        -208.346
      -162.503
 -10738777.904 9 -10866935.477 9  17266752.038    17266753.633        2408.240
      1898.839
  -6435190.124 8  -5060038.031 8  16771697.218    16771700.229         510.566
       417.100
 -19919674.797 8  14089239.326 9  19129644.924    19129650.102        3231.999
      2520.187
 88  3 22  4 49  5.0800000  0  4G 6G 9G11G13
  14608720.857 9 -39705086.933 8  16411000.138    16411002.624        -254.318
      -200.245
 -10811012.630 9 -10923222.261 9  17253007.099    17253008.441        2401.749
      1879.253
  -6450411.403 9  -5071898.750 9  16768800.542    16768803.882         511.842
       391.276
 -20016719.587 9  14013620.034 8  19111179.959    19111183.372        3231.265
      2509.723
 88  3 22  4 49 35.0800000  0  4G 6G 9G11G13
  14616408.194 9 -39699096.811 8  16412462.580    16412464.746        -259.980
      -217.961
 -10882917.104 9 -10979251.702 9  17239323.857    17239325.139        2398.351
      1850.042
  -6465113.177 9  -5083354.660 8  16766003.065    16766006.312         486.555
       367.800
 -20113445.831 9  13938248.966 8  19092773.618    19092776.471        3219.168
      2520.938
 88  3 22  4 50  5.0800000  0  4G 6G 9G11G13
  14624633.921 9 -39692687.162 8  16414028.265    16414030.220        -273.497
      -216.078
 -10954488.886 9 -11035021.903 8  17225703.489    17225705.602        2382.299
      1854.821
  -6479296.446 9  -5094406.547 8  16763303.103    16763306.980         465.806
       351.141
 -20209851.622 9  13863127.571 9  19074428.571    19074430.732        3207.478
      2501.881
 88  3 22  4 50 35.0800000  0  4G 6G 9G11G13
  14633399.214 9 -39685857.081 8  16415696.714    16415697.785        -310.609
      -241.449
 -11025724.957 9 -11090530.510 9  17212147.678    17212149.432        2371.430
      1846.619
  -6492961.565 8  -5105054.678 8  16760703.194    16760707.119         430.982
       348.879
 -20305935.269 9  13788257.218 7  19056143.423    19056146.705        3194.703
      2484.258
 88  3 22  4 51  5.0800000  0  4G 6G 9G11G13
  14642705.098 9 -39678605.753 8  16417466.065    16417468.167        -308.751
      -238.622
 -11096622.528 9 -11145775.365 8  17198656.827    17198657.943        2358.488
      1840.691
  -6506109.620 9  -5115299.908 8  16758201.165    16758204.313         433.805
       348.109
 -20401694.912 9  13713639.338 8  19037920.408    19037924.942        3190.006
      2487.465
 88  3 22  4 51 35.0800000  0  4G 6G 9G11G13
  14652552.842 9 -39670932.191 7  16419341.185    16419342.167        -343.360
      -245.761
 -11167178.634 9 -11200754.134 8  17185230.286    17185232.586        2342.643
      1818.365
  -6518741.446 8  -5125142.859 8  16755797.727    16755800.523         417.282
       315.387
 -20497129.106 9  13639275.068 8  19019760.442    19019764.257        3176.800
      2463.275
 88  3 22  4 52  5.0800000  0  4G 6G 9G11G13
  14662943.294 9 -39662835.748 8  16421318.764    16421319.711        -352.666
      -261.451
 -11237390.649 9 -11255464.768 9  17171869.208    17171872.216        2343.025
      1813.580
  -6530857.881 9  -5134584.226 8  16753492.061    16753493.914         393.335
       311.068
 -20592236.367 9  13565165.546 8  19001662.778    19001665.366        3167.056
      2470.638
 88  3 22  4 52 35.0800000  0  4G 6G 9G11G13
  14673877.112 9 -39654315.900 8  16423399.216    16423400.695        -366.916
      -301.356
 -11307256.149 8 -11309905.411 8  17158573.926    17158576.920        2323.759
      1800.811
  -6542460.084 9  -5143624.893 8  16751284.089    16751287.252         361.342
       291.339
 -20687015.140 9  13491311.964 8  18983626.495    18983629.617        3163.922
      2462.529
 88  3 22  4 53  5.0800000  0  4G 6G 9G11G13
  14685355.868 9 -39645371.409 8  16425583.634    16425585.282        -383.933
      -285.250
 -11376771.791 9 -11364073.433 8  17145346.182    17145347.622        2319.836
      1800.910
  -6553548.258 9  -5152265.010 8  16749175.017    16749176.537         354.986
       292.477
 -20781463.557 9  13417715.806 8  18965654.522    18965657.362        3157.359
      2451.170
 88  3 22  4 53 35.0800000  0  4G 6G 9G11G13
  14697380.918 9 -39636001.255 8  16427870.965    16427872.459        -399.938
      -325.969
 -11445934.222 9 -11417966.226 9  17132184.321    17132186.625        2285.084
      1792.559
  -6564123.014 9  -5160505.073 8  16747161.918    16747164.017         332.475
       271.667
 -20875578.988 9  13344379.131 7  18947743.700    18947746.265        3110.932
      2438.115
 88  3 22  4 54  5.0800000  0  4G 6G 9G11G13
  14709953.174 9 -39626204.705 7  16430264.376    16430266.578        -427.896
      -329.803
 -11514740.589 9 -11471581.558 8  17119090.933    17119092.841        2296.112
      1792.969
  -6574185.685 9  -5168346.102 8  16745247.528    16745250.271         320.920
       246.414
 -20969359.810 9  13271303.184 8  18929898.278    18929902.066        3110.190
      2429.086
 88  3 22  4 54 35.0800000  0  4G 6G 9G11G13
  14723073.604 9 -39615981.000 8  16432761.196    16432762.428        -456.739
      -348.481
 -11583188.359 8 -11524917.472 9  17106066.673    17106067.795        2266.057
      1780.299
  -6583737.069 8  -5175788.728 7  16743429.400    16743431.730         307.411
       241.561
 -21062804.337 9  13198489.306 7  18912115.826    18912119.182        3106.753
      2409.687
 88  3 22  4 55  5.0800000  0  4G 6G 9G11G13
  14736743.196 9 -39605329.386 8  16435361.600    16435364.232        -458.525
      -352.235
 -11651274.466 9 -11577971.575 8  17093109.668    17093110.621        2250.603
      1753.499
  -6592777.478 8  -5182833.191 7  16741707.277    16741711.735         302.730
       225.846
 -21155910.807 9  13125938.826 7  18894399.075    18894401.574        3097.407
      2417.777
 88  3 22  4 55 35.0800000  0  4G 6G 9G11G13
  14750963.306 9 -39594248.791 7  16438067.096    16438069.830        -484.091
      -368.185
 -11718995.508 9 -11630741.205 8  17080223.518    17080225.340        2246.416
      1747.440
  -6601307.970 8  -5189480.321 8  16740085.702    16740087.433         277.061
       203.079
 -21248677.241 9  13053653.310 9  18876746.252    18876750.032        3095.581
      2411.060
 88  3 22  4 56  5.0800000  0  4G 6G 9G11G13
  14765734.860 9 -39582738.506 7  16440878.662    16440880.428        -504.633
      -376.475
 -11786348.752 9 -11683224.244 9  17067406.785    17067408.441        2247.038
      1750.877
  -6609329.648 8  -5195730.953 8  16738558.601    16738561.910         238.154
       201.482
 -21341102.421 9  12981633.714 8  18859158.019    18859161.088        3063.477
      2394.563
 88  3 22  4 56 35.0800000  0  4G 6G 9G11G13
  14781057.991 9 -39570798.414 8  16443795.112    16443796.821        -516.379
      -414.944
 -11853331.881 9 -11735418.869 9  17054659.778    17054662.099        2222.381
      1721.541
  -6616843.518 8  -5201585.911 8  16737128.798    16737131.337         248.864
       186.451
 -21433185.445 9  12909880.736 8  18841635.434    18841638.596        3072.918
      2395.302
 88  3 22  4 57  5.0800000  0  4G 6G 9G11G13
  14796933.986 9 -39558427.514 7  16446816.760    16446817.942        -527.065
      -418.436
 -11919941.876 9 -11787322.753 8  17041984.590    17041985.801        2216.472
      1735.205
  -6623850.424 9  -5207045.831 7  16735796.692    16735799.033         223.418
       185.736
 -21524923.696 9  12838396.422 8  18824177.887    18824181.094        3059.593
      2380.122
 88  3 22  4 57 35.0800000  0  4G 6G 9G11G13
  14813363.782 9 -39545625.078 8  16449943.377    16449943.861        -548.085
      -425.532
 -11986175.781 8 -11838933.574 8  17029380.951    17029382.252        2186.887
      1715.775
  -6630351.299 9  -5212111.435 8  16734558.784    16734562.428         226.982
       159.278
 -21616315.491 9  12767182.056 8  18806786.454    18806789.138        3044.745
      2361.207
 88  3 22  4 58  5.0800000  0  4G 6G 9G11G13
  14830347.442 9 -39532391.066 9  16453174.483    16453174.415        -566.355
      -426.160
 -12052031.341 9 -11890249.592 8  17016849.614    17016850.019        2194.910
      1696.301
  -6636347.805 9  -5216784.031 8  16733417.380    16733419.254         206.265
       137.847
 -21707360.227 9  12696238.128 9  18789461.405    18789463.933        3037.313
      2370.260
 88  3 22  4 58 35.0800000  0  4G 6G 9G11G13
  14847885.612 9 -39518724.978 8  16456511.329    16456515.249        -586.514
      -451.835
 -12117506.127 9 -11941268.904 8  17004388.981    17004390.761        2174.926
      1708.536
  -6641841.464 9  -5221064.798 8  16732371.516    16732375.173         157.797
       147.646
 -21798056.383 9  12625565.818 8  18772203.218    18772205.217        3019.793
      2377.972
 88  3 22  4 59  5.0800000  0  4G 6G 9G11G13
  14865978.805 9 -39504626.399 8  16459954.212    16459957.252        -601.721
      -481.904
 -12182597.105 9 -11991989.130 9  16992002.111    16992003.876        2165.373
      1682.867
  -6646833.359 8  -5224954.571 8  16731422.672    16731424.356         169.870
       114.905
 -21888402.437 9  12555166.329 8  18755010.480    18755013.025        3007.536
      2345.878
 88  3 22  4 59 35.0800000  0  4G 6G 9G11G13
  14884628.645 9 -39490094.068 7  16463503.720    16463505.548        -627.933
      -493.872
 -12247301.000 9 -12042407.743 9  16979690.364    16979691.741        2162.470
      1674.627
  -6651323.741 9  -5228453.557 8  16730568.143    16730569.874         152.095
       114.141
 -21978395.928 9  12485041.554 8  18737885.371    18737887.643        2993.318
      2337.004
 88  3 22  5  0  5.0800000  0  4G 6G 9G11G13
  14903835.705 9 -39475127.539 8  16467158.898    16467160.165        -640.859
      -508.791
 -12311615.094 9 -12092522.612 8  16967450.926    16967453.131        2143.228
      1684.513
  -6655314.149 9  -5231562.967 7  16729808.852    16729812.329         126.242
       100.253
 -22068035.954 9  12415192.205 8  18720826.962    18720829.860        2987.122
      2337.812
 88  3 22  5  0 35.0800000  0  4G 6G 9G11G13
  14923600.697 9 -39459726.264 8  16470918.127    16470921.733        -666.991
      -515.558
 -12375536.244 9 -12142331.295 9  16955286.846    16955288.481        2137.048
      1661.796
  -6658805.650 8  -5234283.606 8  16729144.765    16729148.120         125.652
        76.069
 -22157320.624 9  12345619.764 8  18703836.414    18703840.218        2974.842
      2320.718
 88  3 22  5  1  5.0800000  0  4G 6G 9G11G13
  14943924.387 9 -39443889.654 8  16474786.945    16474789.922        -688.522
      -530.974
 -12439061.689 9 -12191831.627 9  16943198.780    16943199.958        2114.233
      1646.466
  -6661799.147 9  -5236616.184 7  16728574.772    16728577.849          78.404
        69.694
 -22246248.606 9  12276325.269 8  18686914.016    18686917.536        2955.743
      2305.239
 88  3 22  5  1 35.0800000  0  4G 6G 9G11G13
  14964807.545 9 -39427617.058 8  16478761.536    16478763.352        -699.375
      -542.612
 -12502188.677 9 -12241021.492 8  16931186.463    16931187.694        2107.104
      1635.946
  -6664295.675 9  -5238561.519 8  16728100.017    16728103.204          92.614
        54.004
 -22334818.171 9  12207310.053 9  18670060.289    18670062.916        2954.667
      2290.003
 88  3 22  5  2  5.0800000  0  4G 6G 9G11G13
  14986251.077 9 -39410907.835 9  16482842.158    16482843.381        -731.336
      -551.138
 -12564913.903 9 -12289898.276 8  16919251.067    16919252.875        2082.136
      1626.334
  -6666296.155 9  -5240120.321 8  16727718.956    16727721.143          66.147
        68.097
 -22423027.500 9  12138575.529 8  18653273.449    18653276.471        2940.983
      2289.282
 88  3 22  5  2 35.0800000  0  4G 6G 9G11G13
  15008255.370 8 -39393761.645 8  16487028.692    16487030.233        -751.623
      -589.048
 -12627234.722 9 -12338459.938 9  16907391.439    16907392.088        2069.728
      1600.037
  -6667801.798 9  -5241293.533 8  16727432.546    16727434.867          31.945
        39.706
 -22510875.218 9  12070122.780 8  18636556.733    18636560.423        2926.549
      2281.173
 88  3 22  5  3  5.0800000  0  4G 6G 9G11G13
  15030821.498 9 -39376177.677 8  16491323.133    16491325.254        -756.551
      -579.379
 -12689147.912 9 -12386703.971 8  16895608.672    16895610.369        2064.282
      1602.187
  -6668813.575 9  -5242081.911 7  16727240.393    16727242.110          27.950
        30.740
 -22598359.806 9  12001952.996 7  18619909.356    18619912.549        2905.935
      2259.897
 88  3 22  5  3 35.0800000  0  4G 6G 9G11G13
  15053949.947 9 -39358155.524 8  16495723.537    16495726.979        -770.251
      -607.957
 -12750650.696 9 -12434628.212 9  16883905.418    16883906.534        2042.623
      1596.216
  -6669332.882 9  -5242486.569 8  16727141.065    16727143.140           8.804
         1.404
 -22685479.681 9  11934067.408 9  18603331.544    18603333.876        2888.790
      2255.324
 88  3 22  5  4  5.0800000  0  4G 6G 9G11G13
  15077641.088 9 -39339694.904 8  16500231.853    16500235.653        -794.055
      -627.487
 -12811740.407 9 -12482230.573 8  16872280.867    16872281.648        2031.148
      1566.066
  -6669360.980 9  -5242508.460 8  16727135.566    16727138.920          -0.080
         4.232
 -22772233.545 9  11866467.035 8  18586822.275    18586824.898        2892.124
      2247.445
 88  3 22  5  4 35.0800000  0  4G 6G 9G11G13
  15101896.403 9 -39320794.677 8  16504848.679    16504850.336        -818.233
      -636.180
 -12872413.393 9 -12529508.217 8  16860734.160    16860735.534        2007.983
      1559.380
  -6668898.063 9  -5242147.726 8  16727223.750    16727226.467         -29.577
       -20.058
 -22858618.887 9  11799153.796 9  18570384.078    18570387.257        2866.988
      2249.732
 88  3 22  5  5  5.0800000  0  4G 6G 9G11G13
  15126715.295 9 -39301455.286 9  16509571.545    16509572.968        -811.678
      -642.636
 -12932667.685 9 -12576459.609 8  16849268.174    16849270.310        2007.417
      1560.362
  -6667946.405 9  -5241406.166 8  16727404.905    16727407.771         -35.127
       -27.366
 -22944635.098 9  11732128.222 8  18554015.665    18554018.310        2868.145
      2237.708
 88  3 22  5  5 35.0800000  0  4G 6G 9G11G13
  15152099.043 9 -39281675.774 9  16514401.224    16514404.084        -855.529
      -663.210
 -12992499.986 9 -12623082.172 8  16837882.632    16837883.666        2001.348
      1557.740
  -6666506.884 9  -5240284.446 8  16727678.355    16727681.344         -69.297
       -36.444
 -23030280.317 8  11665391.724 8  18537717.761    18537720.016        2875.641
      2211.753
 88  3 22  5  6  5.0800000  0  4G 6G 9G11G13
  15178047.623 9 -39261456.132 8  16519338.859    16519340.921        -869.420
      -672.599
 -13051907.715 9 -12669373.908 8  16826577.875    16826579.072        1965.950
      1522.098
  -6664581.135 9  -5238783.841 7  16728044.775    16728048.038         -69.473
       -44.230
 -23115553.375 9  11598945.210 8  18521489.606    18521493.400        2841.319
      2227.468
 88  3 22  5  6 35.0800000  0  4G 6G 9G11G13
  15204561.628 9 -39240795.877 7  16524385.820    16524387.394        -899.260
      -696.578
 -13110888.062 9 -12715332.620 7  16815354.406    16815356.129        1968.597
      1522.967
  -6662170.335 9  -5236905.285 7  16728503.624    16728506.248         -72.862
       -52.718
 -23200453.578 9  11532789.232 8  18505333.662    18505336.381        2829.294
      2205.514
 88  3 22  5  7  5.0800000  0  4G 6G 9G11G13
  15231641.229 9 -39219694.904 8  16529538.890    16529540.447        -904.356
      -704.227
 -13169438.302 9 -12760956.181 8  16804213.013    16804214.109        1953.646
      1495.558
  -6659275.995 9  -5234649.945 8  16729054.204    16729056.902        -111.920
       -74.640
 -23284979.181 9  11466925.145 8  18489249.477    18489253.223        2807.603
      2172.451
 88  3 22  5  7 35.0800000  0  4G 6G 9G11G13
  15259287.463 9 -39198152.403 9  16534799.426    16534800.468        -934.969
      -729.001
 -13227555.420 9 -12806242.239 8  16793153.070    16793154.596        1937.617
      1500.498
  -6655899.208 9  -5232018.684 8  16729696.346    16729699.804        -114.472
       -92.380
 -23369127.773 9  11401354.832 7  18473237.852    18473239.035        2806.718
      2176.254
 88  3 22  5  8  5.0800000  0  4G 6G 9G11G13
  15287500.240 9 -39176168.430 7  16540168.116    16540169.447        -947.904
      -734.270
 -13285236.752 9 -12851188.720 8  16782176.774    16782178.834        1923.502
      1483.504
  -6652041.275 9  -5229012.496 8  16730431.980    16730433.970        -132.350
       -96.550
 -23452899.085 9  11336078.510 7  18457296.448    18457299.150        2785.499
      2173.364
 88  3 22  5  8 35.0800000  0  4G 6G 9G11G13
  15316280.435 9 -39153742.324 8  16545644.617    16545646.885        -982.863
      -744.784
 -13342478.820 9 -12895792.938 8  16771283.783    16771285.858        1900.871
      1474.363
  -6647703.180 9  -5225632.138 9  16731257.384    16731260.201        -146.609
      -110.059
 -23536291.006 9  11271097.813 9  18441426.695    18441430.241        2771.926
      2163.832
 88  3 22  5  9  5.0800000  0  4G 6G 9G11G13
  15345628.293 9 -39130873.875 8  16551230.238    16551230.669        -983.182
      -759.877
 -13399279.122 9 -12940052.905 9  16760474.761    16760476.811        1900.895
      1461.898
  -6642886.396 9  -5221878.786 7  16732174.927    16732176.833        -159.870
      -124.680
 -23619302.375 9  11206413.654 8  18425630.425    18425633.516        2784.015
      2148.596
 88  3 22  5  9 35.0800000  0  4G 6G 9G11G13
  15375544.764 9 -39107562.363 7  16556923.718    16556924.495       -1021.890
      -780.805
 -13455634.382 9 -12983966.096 8  16749751.559    16749753.243        1877.084
      1462.569
  -6637591.916 9  -5217753.209 9  16733181.457    16733183.767        -195.380
      -144.334
 -23701931.119 9  11142027.635 9  18409907.225    18409909.621        2767.931
      2149.019
 88  3 22  5 10  5.0800000  0  4G 6G 9G11G13
  15406030.054 9 -39083807.618 8  16562722.706    16562725.236       -1017.576
      -791.537
 -13511541.765 9 -13027530.288 8  16739113.391    16739114.488        1853.894
      1454.504
  -6631820.839 9  -5213256.254 8  16734280.074    16734281.837        -203.450
      -145.340
 -23784175.975 9  11077940.755 8  18394255.208    18394259.599        2744.973
      2122.560
 88  3 22  5 10 35.0800000  0  4G 6G 9G11G13
  15437084.224 9 -39059609.575 7  16568632.139    16568634.672       -1041.339
      -803.939
 -13566998.517 9 -13070743.334 8  16728559.623    16728561.112        1842.124
      1436.111
  -6625575.116 9  -5208389.443 8  16735468.588    16735469.700        -213.832
      -168.549
 -23866036.076 9  11014153.688 8  18378678.544    18378680.972        2725.771
      2129.843
 88  3 22  5 11  5.0800000  0  4G 6G 9G11G13
  15468708.230 9 -39034967.520 8  16574650.215    16574653.625       -1047.511
      -830.746
 -13622001.568 9 -13113602.834 8  16718093.134    16718094.474        1833.687
      1429.444
  -6618855.821 9  -5203153.612 8  16736746.770    16736749.657        -244.422
      -174.166
 -23947509.276 9  10950668.093 9  18363174.534    18363178.306        2720.795
      2107.007
 88  3 22  5 11 35.0800000  0  4G 6G 9G11G13
  15500902.641 9 -39009880.977 8  16580777.774    16580779.273       -1076.171
      -840.874
 -13676547.482 9 -13156106.147 8  16707713.714    16707714.706        1817.069
      1412.642
  -6611663.508 9  -5197549.200 8  16738114.526    16738117.749        -251.782
      -195.796
 -24028594.314 9  10887484.973 8  18347744.736    18347747.237        2704.336
      2094.306
 88  3 22  5 12  5.0800000  0  4G 6G 9G11G13
  15533668.003 9 -38984349.557 8  16587012.515    16587014.332       -1099.632
      -851.978
 -13730633.249 9 -13198250.896 8  16697420.392    16697422.408        1799.445
      1387.022
  -6603999.416 9  -5191577.168 9  16739573.677    16739576.276        -251.846
      -212.859
 -24109289.397 9  10824605.714 8  18332388.661    18332392.092        2684.774
      2100.054
 88  3 22  5 12 35.0800000  0  4G 6G 9G11G13
  15567004.526 9 -38958373.065 8  16593355.762    16593357.530       -1118.778
      -879.282
 -13784256.108 9 -13240034.931 9  16687215.864    16687218.983        1772.444
      1385.214
  -6595864.973 9  -5185238.633 8  16741121.242    16741123.735        -289.964
      -212.847
 -24189593.509 9  10762031.102 9  18317107.140    18317110.362        2669.567
      2077.628
 88  3 22  5 13  5.0800000  0  4G 6G 9G11G13
  15600912.713 9 -38931951.113 8  16599808.601    16599809.320       -1140.381
      -877.753
 -13837412.777 9 -13281455.719 8  16677101.254    16677102.890        1757.724
      1374.520
  -6587261.227 9  -5178534.418 9  16742758.790    16742761.148        -293.313
      -226.927
 -24269505.294 9  10699762.200 8  18301900.341    18301903.263        2656.226
      2083.737
 88  3 22  5 13 35.0800000  0  4G 6G 9G11G13
  15635392.570 9 -38905083.712 9  16606369.295    16606371.705       -1152.302
      -912.476
 -13890100.853 9 -13322511.354 9  16667074.739    16667076.766        1752.612
      1356.562
  -6578189.868 9  -5171465.819 7  16744484.392    16744488.299        -299.118
      -240.144
 -24349023.519 9  10637799.974 9  18286768.983    18286771.888        2647.383
      2060.280
 88  3 22  5 14  5.0800000  0  4G 6G 9G11G13
  15670444.630 9 -38877770.434 8  16613040.104    16613041.109       -1187.302
      -913.165
 -13942317.328 9 -13363199.500 9  16657138.884    16657140.616        1749.773
      1357.320
  -6568652.283 9  -5164033.931 8  16746300.092    16746301.487        -320.075
      -244.015
 -24428146.028 9  10576146.095 7  18271712.533    18271715.311        2643.077
      2036.878
 88  3 22  5 14 35.0800000  0  4G 6G 9G11G13
  15706067.932 9 -38850012.021 9  16619820.212    16619820.859       -1203.586
      -927.271
 -13994060.074 9 -13403518.520 8  16647291.899    16647293.807        1720.140
      1337.679
  -6558650.632 9  -5156240.423 8  16748203.332    16748206.446        -324.485
      -270.797
 -24506872.854 9  10514800.539 8  18256731.311    18256733.899        2613.492
      2023.929
 88  3 22  5 15  5.0800000  0  4G 6G 9G11G13
  15742263.077 9 -38821808.038 8  16626706.103    16626707.981       -1227.094
      -945.545
 -14045326.212 9 -13443466.154 9  16637536.241    16637539.123        1701.193
      1330.489
  -6548186.177 9  -5148086.299 8  16750194.754    16750196.550        -360.840
      -287.897
 -24585202.327 9  10453764.610 9  18241825.661    18241828.450        2602.391
      2030.646
 88  3 22  5 15 35.0800000  0  4G 6G 9G11G13
  15779029.597 9 -38793158.802 8  16633702.717    16633704.255       -1231.759
      -967.231
 -14096113.326 9 -13483040.512 8  16627872.426    16627873.246        1699.431
      1313.942
  -6537260.971 9  -5139573.130 8  16752274.143    16752275.644        -371.461
      -285.586
 -24663133.593 9  10393038.986 8  18226995.970    18226998.440        2596.953
      2010.358
 88  3 22  5 16  5.0800000  0  4G 6G 9G11G13
  15816366.669 8 -38764064.988 7  16640808.195    16640809.826       -1261.926
      -975.707
 -14146419.449 9 -13522240.081 8  16618298.834    16618301.193        1662.701
      1282.295
  -6525877.427 8  -5130702.828 8  16754439.781    16754442.704        -375.265
      -307.545
 -24740666.702 9  10332623.610 9  18212241.686    18212244.336        2577.368
      2023.444
 88  3 22  5 16 35.0800000  0  4G 6G 9G11G13
  15854274.402 8 -38734526.505 8  16648022.523    16648023.036       -1276.910
      -992.577
 -14196242.055 9 -13561062.891 9  16608817.843    16608820.289        1658.961
      1287.080
  -6514036.837 9  -5121476.393 7  16756692.626    16756696.912        -397.713
      -317.555
 -24817800.607 9  10272519.281 8  18197563.157    18197567.368        2566.268
      1993.463
 88  3 22  5 17  5.0800000  0  4G 6G 9G11G13
  15892751.824 9 -38704544.130 7  16655343.482    16655345.155       -1286.830
     -1004.079
 -14245579.272 9 -13599507.477 8  16599429.547    16599430.249        1645.189
      1276.274
  -6501741.998 9  -5111895.984 8  16759032.103    16759034.677        -418.973
      -339.770
 -24894535.049 9  10212726.235 8  18182960.068    18182965.060        2544.306
      1984.210
 88  3 22  5 17 35.0800000  0  4G 6G 9G11G13
  15931799.434 9 -38674117.431 8  16662774.364    16662776.347       -1303.943
     -1021.851
 -14294427.945 9 -13637571.364 8  16590134.207    16590136.138        1610.485
      1258.229
  -6488993.589 9  -5101962.147 9  16761458.587    16761460.769        -424.571
      -337.595
 -24970867.928 9  10153246.112 7  18168434.562    18168438.879        2536.659
      1962.040
 88  3 22  5 18  5.0800000  0  4G 6G 9G11G13
  15971416.912 9 -38643246.679 8  16670313.403    16670315.315       -1314.557
     -1028.941
 -14342785.502 9 -13675252.590 9  16580932.200    16580934.199        1602.638
      1241.732
  -6475793.310 8  -5091676.213 8  16763969.696    16763971.967        -441.397
      -362.817
 -25046798.644 9  10094079.335 8  18153986.760    18153989.947        2505.535
      1975.555
 88  3 22  5 18 35.0800000  0  4G 6G 9G11G13
  16011604.093 9 -38611932.023 8  16677960.052    16677962.396       -1342.363
     -1046.457
 -14390649.418 9 -13712549.140 8  16571823.563    16571824.742        1582.328
      1246.280
  -6462143.104 9  -5081039.684 8  16766567.087    16766570.888        -461.125
      -362.537
 -25122326.398 9  10035226.576 9  18139614.126    18139616.724        2508.549
      1944.250
 88  3 22  5 19  5.0800000  0  4G 6G 9G11G13
  16052360.750 9 -38580173.601 9  16685715.172    16685717.772       -1359.404
     -1063.955
 -14438016.831 8 -13749458.801 9  16562811.067    16562811.959        1567.758
      1235.431
  -6448044.908 9  -5070054.080 8  16769249.751    16769253.456        -469.171
      -391.468
 -25197449.906 9   9976688.785 8  18125318.902    18125320.217        2501.332
      1952.949
 88  3 22  5 19 35.0800000  0  4G 6G 9G11G13
  16093686.645 9 -38547971.628 8  16693579.599    16693582.159       -1386.278
     -1077.545
 -14484885.849 9 -13785980.117 8  16553890.033    16553893.810        1561.371
      1202.268
  -6433500.759 9  -5058720.967 9  16772019.101    16772020.670        -489.107
      -371.224
 -25272168.335 9   9918466.665 8  18111100.108    18111103.018        2483.494
      1947.748
 88  3 22  5 20  5.0800000  0  4G 6G 9G11G13
  16135580.766 9 -38515326.870 8  16701552.516    16701553.945       -1402.721
     -1093.968
 -14531254.467 9 -13822111.501 9  16545067.714    16545069.072        1547.815
      1200.460
  -6418512.981 9  -5047042.167 7  16774870.290    16774872.149        -502.879
      -401.901
 -25346481.761 9   9860560.133 8  18096957.175    18096961.416        2479.522
      1923.433
 88  3 22  5 20 35.0800000  0  4G 6G 9G11G13
  16178043.204 9 -38482239.294 9  16709632.398    16709634.310       -1433.287
     -1122.961
 -14577119.647 9 -13857850.601 8  16536339.593    16536341.764        1531.260
      1192.425
  -6403082.465 9  -5035018.380 8  16777806.828    16777808.565        -524.218
      -404.008
 -25420388.497 9   9802970.481 8  18082895.737    18082896.885        2465.958
      1916.536
 88  3 22  5 21  5.0800000  0  4G 6G 9G11G13
  16221073.520 9 -38448709.200 8  16717822.192    16717823.317       -1436.421
     -1127.715
 -14622479.043 9 -13893195.577 9  16527707.963    16527709.338        1503.047
      1191.586
  -6387211.612 9  -5022651.471 8  16780826.461    16780828.970        -539.625
      -415.851
 -25493888.219 9   9745697.996 8  18068908.582    18068911.176        2433.901
      1912.099
 88  3 22  5 21 35.0800000  0  4G 6G 9G11G13
  16264671.921 9 -38414736.440 8  16726117.984    16726120.098       -1465.998
     -1142.255
 -14667329.696 8 -13928144.137 8  16519173.123    16519174.425        1482.919
      1157.833
  -6370901.524 8  -5009942.306 8  16783929.797    16783933.723        -564.441
      -419.424
 -25566978.841 9   9688744.280 7  18054999.280    18055002.373        2441.174
      1900.890
 88  3 22  5 22  5.0800000  0  4G 6G 9G11G13
  16308838.083 9 -38380321.274 8  16734522.926    16734524.083       -1484.235
     -1155.018
 -14711668.978 9 -13962694.235 8  16510735.981    16510737.938        1454.961
      1132.586
  -6354153.919 9  -4996892.208 8  16787116.992    16787120.057        -552.854
      -447.989
 -25639660.384 9   9632109.335 8  18041168.126    18041171.713        2417.968
      1891.053
 88  3 22  5 22 35.0800000  0  4G 6G 9G11G13
  16353572.212 9 -38345463.516 8  16743034.747    16743036.247       -1489.690
     -1162.524
 -14755493.635 9 -13996843.308 9  16502396.009    16502398.489        1457.409
      1133.034
  -6336969.730 9  -4983501.923 8  16790387.074    16790389.980        -584.760
      -462.256
 -25711931.084 9   9575794.524 8  18027415.689    18027418.380        2402.594
      1889.991
 88  3 22  5 23  5.0800000  0  4G 6G 9G11G13
  16398873.373 9 -38310163.939 8  16751655.640    16751657.702       -1532.966
     -1180.874
 -14798801.999 9 -14030590.077 8  16494154.896    16494156.303        1435.073
      1124.428
  -6319351.614 9  -4969773.505 8  16793739.835    16793743.510        -582.192
      -448.586
 -25783790.268 9   9519800.372 8  18013740.176    18013744.994        2392.307
      1853.156
 88  3 22  5 23 35.0800000  0  4G 6G 9G11G13
  16444741.112 9 -38274422.871 8  16760383.353    16760385.531       -1548.779
     -1192.462
 -14841591.772 9 -14063932.753 9  16486011.731    16486014.296        1427.107
      1109.782
  -6301301.418 9  -4955708.425 8  16797174.705    16797177.922        -609.376
      -474.261
 -25855237.445 9   9464127.265 8  18000145.526    18000148.843        2368.464
      1867.025
 88  3 22  5 24  5.0800000  0  4G 6G 9G11G13
  16491175.672 9 -38238240.113 8  16769220.069    16769222.108       -1543.851
     -1211.216
 -14883859.460 8 -14096868.615 8  16477968.789    16477970.673        1395.600
      1088.643
  -6282820.120 9  -4941307.396 8  16800692.169    16800693.757        -630.030
      -481.444
 -25926271.243 9   9408776.270 9  17986628.487    17986630.967        2341.247
      1856.722
 88  3 22  5 24 35.0800000  0  4G 6G 9G11G13
  16538177.124 9 -38201615.620 8  16778164.005    16778166.554       -1575.382
     -1217.597
 -14925602.435 9 -14129395.599 8  16470026.057    16470027.203        1394.173
      1098.380
  -6263909.350 8  -4926571.732 8  16804290.526    16804292.772        -609.552
      -502.689
 -25996890.330 8   9353748.443 8  17973188.736    17973192.998        2337.148
      1822.845
 88  3 22  5 25  5.0800000  0  4G 6G 9G11G13
  16585744.044 9 -38164550.504 7  16787216.463    16787217.480       -1596.059
     -1237.954
 -14966818.785 9 -14161512.235 8  16462182.166    16462183.638        1362.570
      1046.557
  -6244571.811 9  -4911503.503 8  16807971.102    16807972.085        -661.353
      -503.273
 -26067094.627 9   9299043.831 8  17959830.210    17959833.944        2321.319
      1830.599
 88  3 22  5 25 35.0800000  0  4G 6G 9G11G13
  16633875.866 9 -38127045.215 9  16796375.628    16796376.845       -1609.313
     -1248.592
 -15007506.427 9 -14193216.891 8  16454440.227    16454442.403        1344.126
      1051.037
  -6224809.212 9  -4896104.069 7  16811730.025    16811733.174        -669.543
      -499.694
 -26136883.571 8   9244662.861 8  17946549.111    17946552.704        2332.651
      1816.389
 88  3 22  5 26  5.0800000  0  4G 6G 9G11G13
  16682572.358 9 -38089099.921 7  16805641.416    16805643.727       -1628.220
     -1280.238
 -15047662.641 9 -14224507.436 8  16446798.483    16446800.716        1341.271
      1038.789
  -6204623.241 8  -4880374.730 8  16815571.213    16815574.798        -677.477
      -538.027
 -26206255.857 9   9190606.560 9  17933347.571    17933352.560        2290.618
      1792.615
 88  3 22  5 26 35.0800000  0  4G 6G 9G11G13
  16731832.590 9 -38050715.348 7  16815015.482    16815017.414       -1654.679
     -1284.992
 -15087285.415 9 -14255382.327 8  16439259.191    16439260.275        1313.129
      1022.783
  -6184016.080 9  -4864317.193 8  16819494.126    16819495.395        -691.161
      -541.357
 -26275211.097 9   9136875.238 9  17920226.736    17920230.337        2303.536
      1800.419
 88  3 22  5 27  5.0800000  0  4G 6G 9G11G13
  16781656.342 9 -38011891.660 8  16824497.577    16824499.280       -1663.427
     -1294.226
 -15126371.985 8 -14285839.385 9  16431820.740    16431821.831        1305.235
      1005.073
  -6162989.125 9  -4847932.551 8  16823494.215    16823496.663        -690.651
      -542.929
 -26343748.455 9   9083469.536 8  17907184.003    17907187.301        2299.055
      1781.871
 88  3 22  5 27 35.0800000  0  4G 6G 9G11G13
  16832042.838 9 -37972629.472 8  16834085.032    16834086.342       -1683.849
     -1320.019
 -15164919.924 9 -14315876.749 8  16424485.602    16424488.168        1295.785
       998.555
  -6141544.675 8  -4831222.580 8  16827576.033    16827577.684        -715.890
      -571.351
 -26411867.408 9   9030389.864 8  17894222.114    17894225.251        2260.148
      1775.626
 88  3 22  5 28  5.0800000  0  4G 6G 9G11G13
  16882991.574 9 -37932929.171 7  16843780.801    16843782.614       -1708.091
     -1333.981
 -15202926.988 9 -14345492.628 9  16417252.455    16417254.551        1270.626
       962.770
  -6119684.435 9  -4814188.608 8  16831735.335    16831737.505        -737.652
      -577.696
 -26479567.206 9   8977636.789 9  17881338.732    17881341.995        2259.215
      1759.066
 88  3 22  5 28 35.0800000  0  4G 6G 9G11G13
  16934501.715 9 -37892791.416 8  16853582.180    16853584.156       -1719.614
     -1330.993
 -15240391.114 9 -14374685.447 8  16410123.740    16410125.434        1236.831
       977.838
  -6097410.387 8  -4796832.198 8  16835974.002    16835976.685        -741.998
      -586.401
 -26546847.020 9   8925210.977 9  17868535.297    17868539.600        2223.585
      1739.947
 88  3 22  5 29  5.0800000  0  4G 6G 9G11G13
  16986572.468 9 -37852216.831 8  16863490.840    16863492.967       -1745.937
     -1366.784
 -15277310.099 9 -14403453.478 8  16403098.404    16403098.270        1224.375
       945.533
  -6074724.390 9  -4779154.787 8  16840290.171    16840293.285        -763.202
      -609.796
 -26613706.309 9   8873112.859 8  17855812.612    17855815.995        2216.409
      1737.772
 88  3 22  5 29 35.0800000  0  4G 6G 9G11G13
  17039203.233 9 -37811205.870 8  16873506.327    16873508.004       -1752.939
     -1351.970
 -15313681.587 9 -14431794.904 8  16396176.477    16396177.865        1198.626
       935.411
  -6051628.531 9  -4761158.007 8  16844685.711    16844687.978        -768.361
      -607.460
 -26680144.713 9   8821342.698 8  17843169.302    17843173.228        2191.234
      1734.739
 88  3 22  5 30  5.0800000  0  4G 6G 9G11G13
  17092393.951 9 -37769758.579 7  16883628.883    16883629.564       -1765.491
     -1383.760
 -15349502.457 9 -14459707.283 8  16389360.072    16389361.312        1202.334
       928.147
  -6028124.212 9  -4742842.950 7  16849159.006    16849160.303        -779.214
      -626.555
 -26746160.839 9   8769901.561 7  17830608.532    17830611.115        2185.301
      1694.269
 88  3 22  5 30 35.0800000  0  4G 6G 9G11G13
  17146143.586 9 -37727875.762 8  16893856.662    16893857.525       -1797.866
     -1419.850
 -15384770.803 8 -14487189.095 9  16382648.397    16382649.488        1171.840
       917.993
  -6004213.535 9  -4724211.243 7  16853708.269    16853711.025        -796.000
      -606.683
 -26811754.261 9   8718789.832 9  17818125.730    17818129.022        2176.744
      1694.393
 88  3 22  5 31  5.0800000  0  4G 6G 9G11G13
  17200450.946 9 -37685558.358 7  16904191.387    16904191.912       -1813.680
     -1415.301
 -15419484.627 9 -14514238.826 8  16376042.708    16376043.753        1153.052
       900.377
  -5979898.692 9  -4705264.599 8  16858334.997    16858337.446        -811.494
      -636.764
 -26876924.570 9   8668007.800 8  17805724.853    17805727.050        2175.652
      1686.931
 88  3 22  5 31 35.0800000  0  4G 6G 9G11G13
  17255316.029 9 -37642806.352 8  16914631.723    16914632.032       -1832.364
     -1435.303
 -15453641.276 8 -14540854.402 8  16369543.003    16369544.353        1120.549
       888.130
  -5955181.296 9  -4686004.268 9  16863039.500    16863041.544        -821.901
      -651.453
 -26941671.025 9   8617556.037 8  17793404.402    17793406.787        2165.795
      1678.610
 88  3 22  5 32  5.0800000  0  4G 6G 9G11G13
  17310737.727 9 -37599620.629 8  16925177.969    16925178.464       -1859.293
     -1455.666
 -15487238.452 9 -14567034.004 8  16363149.810    16363150.949        1109.129
       853.768
  -5930063.218 9  -4666431.733 9  16867819.239    16867820.727        -844.436
      -649.782
 -27005992.848 9   8567435.157 8  17781164.559    17781165.760        2128.810
      1678.797
 88  3 22  5 32 35.0800000  0  4G 6G 9G11G13
  17366715.559 9 -37556001.560 8  16935829.720    16935830.965       -1873.073
     -1453.615
 -15520273.742 9 -14592775.806 8  16356863.330    16356864.188        1090.732
       843.888
  -5904546.307 9  -4646548.440 9  16872675.316    16872677.853        -843.551
      -672.810
 -27069889.201 9   8517645.807 9  17769004.791    17769007.315        2128.842
      1654.917
 88  3 22  5 33  5.0800000  0  4G 6G 9G11G13
  17423249.433 9 -37511949.223 8  16946587.290    16946588.980       -1885.465
     -1459.363
 -15552744.264 9 -14618077.489 8  16350684.864    16350685.226        1076.722
       845.342
  -5878631.644 9  -4626355.184 8  16877606.423    16877609.071        -861.980
      -664.552
 -27133359.081 9   8468188.773 8  17756926.737    17756930.153        2131.035
      1626.104
 88  3 22  5 33 35.0800000  0  4G 6G 9G11G13
  17480339.163 9 -37467463.750 9  16957452.473    16957453.786       -1917.434
     -1495.279
 -15584647.060 8 -14642936.811 8  16344613.759    16344615.057        1053.285
       838.090
  -5852320.357 9  -4605852.878 8  16882613.228    16882615.043        -883.431
      -684.734
 -27196401.168 8   8419065.102 8  17744930.557    17744933.873        2080.613
      1645.211
 88  3 22  5 34  5.0800000  0  4G 6G 9G11G13
  17537983.492 9 -37422546.103 7  16968420.414    16968423.231       -1940.368
     -1509.869
 -15615980.320 9 -14667352.353 8  16338651.498    16338652.223        1041.299
       809.370
  -5825614.904 9  -4585043.419 8  16887694.858    16887697.727        -889.539
      -702.108
 -27259015.245 9   8370274.940 8  17733015.169    17733018.401        2074.800
      1619.480
 88  3 22  5 34 35.0800000  0  4G 6G 9G11G13
  17596181.900 9 -37377196.720 8  16979496.292    16979498.770       -1942.808
     -1504.053
 -15646741.507 8 -14691322.111 7  16332797.008    16332798.431        1028.580
       799.608
  -5798517.203 9  -4563928.323 8  16892852.301    16892853.941        -922.059
      -706.252
 -27321200.337 9   8321819.032 7  17721181.085    17721185.131        2079.186
      1607.195
 88  3 22  5 35  5.0800000  0  4G 6G 9G11G13
  17654933.093 9 -37331416.590 8  16990675.981    16990678.211       -1967.824
     -1530.554
 -15676928.883 9 -14714844.732 7  16327052.758    16327054.450        1009.338
       782.719
  -5771029.268 9  -4542509.154 9  16898082.255    16898084.580        -920.783
      -724.819
 -27382956.144 9   8273697.638 8  17709430.644    17709432.199        2042.265
      1597.719
 88  3 22  5 35 35.0800000  0  4G 6G 9G11G13
  17714236.138 9 -37285206.443 8  17001960.715    17001963.227       -1984.435
     -1551.482
 -15706540.380 9 -14737918.643 8  16321418.089    16321420.359         976.388
       752.353
  -5743153.159 9  -4520787.493 8  16903386.217    16903389.346        -929.084
      -728.113
 -27444282.355 9   8225911.010 9  17697760.211    17697762.806        2026.021
      1588.641
 88  3 22  5 36  5.0800000  0  4G 6G 9G11G13
  17774090.229 9 -37238566.918 9  17013350.540    17013353.046       -2002.273
     -1550.333
 -15735573.789 9 -14760542.083 8  16315892.960    16315894.520         957.672
       748.357
  -5714890.776 9  -4498764.856 8  16908765.235    16908767.426        -931.564
      -746.860
 -27505178.500 9   8178459.489 8  17686172.245    17686174.379        2023.533
      1574.132
 88  3 22  5 36 35.0800000  0  4G 6G 9G11G13
  17834494.248 9 -37191498.874 8  17024845.264    17024847.010       -2014.474
     -1564.190
 -15764026.720 9 -14782713.199 7  16310477.963    16310480.166         948.215
       733.537
  -5686243.923 9  -4476442.620 8  16914215.449    16914217.902        -959.219
      -743.001
 -27565644.368 9   8131343.240 8  17674665.362    17674667.949        2009.665
      1568.807
 88  3 22  5 37  5.0800000  0  4G 6G 9G11G13
  17895446.558 9 -37144003.586 7  17036444.949    17036446.250       -2039.840
     -1585.714
 -15791898.077 9 -14804431.143 7  16305174.943    16305176.350         919.387
       712.833
  -5657215.418 9  -4453822.990 9  16919740.657    16919742.418        -984.227
      -756.895
 -27625680.030 9   8084562.224 7  17663240.783    17663243.117        2001.611
      1557.075
 88  3 22  5 37 35.0800000  0  4G 6G 9G11G13
  17956945.083 9 -37096082.679 8  17048147.505    17048149.408       -2060.462
     -1600.391
 -15819186.853 9 -14825695.129 8  16299981.394    16299983.966         889.157
       702.611
  -5627808.547 9  -4430908.532 8  16925336.407    16925338.754        -993.589
      -781.439
 -27685285.804 9   8038116.172 7  17651897.630    17651900.966        1976.843
      1519.295
 88  3 22  5 38  5.0800000  0  4G 6G 9G11G13
  18018988.717 9 -37047737.006 9  17059953.949    17059955.530       -2070.717
     -1625.514
 -15845890.889 8 -14846503.476 8  16294900.902    16294901.847         886.677
       675.519
  -5598024.717 9  -4407700.352 8  16931003.082    16931006.740        -987.353
      -772.038
 -27744461.700 9   7992005.106 8  17640637.582    17640640.773        1958.941
      1528.411
 88  3 22  5 38 35.0800000  0  4G 6G 9G11G13
  18081576.311 9 -36998967.470 8  17071863.857    17071866.842       -2087.631
     -1632.877
 -15872008.322 9 -14866854.717 7  16289930.921    16289931.712         863.160
       666.435
  -5567866.188 9  -4384200.202 8  16936742.552    16936744.413       -1010.710
      -791.058
 -27803207.276 9   7946229.352 7  17629457.930    17629461.117        1935.624
      1530.617
 88  3 22  5 39  5.0800000  0  4G 6G 9G11G13
  18144706.881 9 -36949774.846 9  17083877.500    17083879.074       -2121.697
     -1638.817
 -15897537.205 9 -14886747.346 7  16285073.102    16285073.169         856.637
       644.251
  -5537335.520 9  -4360410.073 8  16942552.555    16942554.129       -1022.895
      -805.468
 -27861522.568 8   7900788.887 8  17618361.050    17618363.879        1942.043
      1520.445
 88  3 22  5 39 35.0800000  0  4G 6G 9G11G13
  18208379.066 9 -36900160.189 9  17095993.233    17095995.513       -2136.625
     -1655.992
 -15922475.508 9 -14906179.792 8  16280326.931    16280328.944         820.067
       650.154
  -5506434.405 9  -4336331.284 8  16948432.573    16948435.527       -1030.933
      -812.042
 -27919406.769 8   7855684.335 9  17607346.091    17607349.439        1933.151
      1506.930
 88  3 22  5 40  5.0800000  0  4G 6G 9G11G13
  18272592.034 9 -36850124.126 9  17108213.154    17108215.438       -2137.287
     -1670.856
 -15946821.252 8 -14925150.503 7  16275694.798    16275695.808         792.444
       621.248
  -5475164.875 9  -4311965.403 8  16954383.211    16954385.249       -1056.427
      -814.683
 -27976859.062 9   7810916.365 8  17596413.724    17596416.584        1922.849
      1481.316
 88  3 22  5 40 35.0800000  0  4G 6G 9G11G13
  18337344.470 9 -36799667.701 8  17120534.804    17120536.545       -2155.397
     -1677.007
 -15970572.538 8 -14943658.013 7  16271174.714    16271174.601         774.294
       623.646
  -5443529.041 9  -4287314.095 9  16960404.275    16960406.769       -1064.720
      -830.391
 -28033879.401 9   7766484.936 7  17585563.605    17585565.171        1904.627
      1475.152
 88  3 22  5 41  5.0800000  0  4G 6G 9G11G13
  18402635.128 9 -36748791.897 8  17132959.907    17132961.477       -2175.795
     -1701.527
 -15993727.484 9 -14961700.829 9  16266767.699    16266768.292         764.007
       597.288
  -5411528.612 9  -4262378.688 8  16966493.016    16966494.792       -1070.581
      -838.761
 -28090468.165 9   7722389.821 8  17574794.952    17574797.537        1864.397
      1458.711
 88  3 22  5 41 35.0800000  0  4G 6G 9G11G13
  18468462.865 9 -36697497.573 9  17145485.946    17145487.361       -2203.187
     -1717.652
 -16016284.043 8 -14979277.370 9  16262476.079    16262477.715         738.625
       573.315
  -5379165.873 9  -4237160.968 8  16972650.559    16972653.511       -1080.916
      -840.849
 -28146624.670 9   7678631.522 9  17564108.666    17564111.118        1860.824
      1459.282
 88  3 22  5 42  5.0800000  0  4G 6G 9G11G13
  18534826.314 9 -36645785.808 8  17158114.913    17158116.502       -2227.413
     -1729.445
 -16038240.700 9 -14996386.443 8  16258298.154    16258299.136         724.606
       571.923
  -5346443.327 9  -4211662.879 8  16978876.850    16978880.360       -1092.463
      -866.941
 -28202348.771 9   7635210.170 8  17553503.860    17553507.072        1857.483
      1457.928
 88  3 22  5 42 35.0800000  0  4G 6G 9G11G13
  18601724.161 9 -36593657.637 8  17170845.321    17170847.361       -2235.619
     -1755.866
 -16059595.336 9 -15013026.422 7  16254233.729    16254235.245         716.982
       543.893
  -5313362.481 9  -4185885.590 8  16985173.680    16985176.090       -1113.324
      -847.013
 -28257640.016 9   7592126.118 9  17542982.508    17542985.951        1844.580
      1425.672
 88  3 22  5 43  5.0800000  0  4G 6G 9G11G13
  18669155.017 9 -36541114.138 8  17183677.426    17183679.067       -2260.060
     -1751.529
 -16080346.716 8 -15029196.317 8  16250285.138    16250286.751         662.246
       526.270
  -5279925.781 9  -4159831.010 8  16991536.011    16991538.061       -1129.025
      -865.568
 -28312498.421 9   7549379.337 8  17532543.559    17532546.701        1819.812
      1424.454
 88  3 22  5 43 35.0800000  0  4G 6G 9G11G13
  18737117.660 9 -36488156.256 8  17196609.689    17196612.011       -2270.993
     -1771.743
 -16100492.505 9 -15044894.360 8  16246451.896    16246453.191         657.207
       515.185
  -5246135.206 9  -4133500.690 9  16997966.207    16997969.433       -1124.966
      -885.607
 -28366924.065 9   7506969.756 8  17522187.125    17522189.003        1812.866
      1411.368
 88  3 22  5 44  5.0800000  0  4G 6G 9G11G13
  18805610.866 9 -36434784.967 8  17209643.498    17209643.508       -2279.701
     -1772.724
 -16120030.949 8 -15060119.127 8  16242733.841    16242734.824         642.007
       509.083
  -5211992.776 9  -4106896.202 9  17004463.409    17004465.929       -1152.502
      -887.919
 -28420916.058 9   7464898.106 8  17511912.464    17511915.697        1810.657
      1392.043
 88  3 22  5 44 35.0800000  0  4G 6G 9G11G13
  18874633.200 9 -36381001.337 8  17222777.398    17222780.277       -2288.808
     -1791.372
 -16138960.466 9 -15074869.392 7  16239131.253    16239131.576         635.835
       471.204
  -5177500.533 9  -4080019.126 8  17011026.838    17011030.401       -1154.719
      -907.797
 -28474474.774 9   7423164.063 9  17501721.101    17501723.446        1777.723
      1384.207
 88  3 22  5 45  5.0800000  0  4G 6G 9G11G13
  18944183.264 9 -36326806.505 8  17236012.908    17236014.854       -2318.568
     -1808.081
 -16157279.512 8 -15089143.977 7  16235645.929    16235646.737         594.416
       466.195
  -5142660.619 9  -4052871.136 8  17017656.757    17017659.549       -1163.889
      -912.631
 -28527599.929 9   7381767.855 9  17491610.786    17491613.745        1773.130
      1366.020
 88  3 22  5 45 35.0800000  0  4G 6G 9G11G13
  19014259.551 9 -36272201.632 8  17249347.751    17249349.420       -2342.986
     -1815.848
 -16174986.320 9 -15102941.481 7  16232274.593    16232277.096         589.855
       475.174
  -5107475.078 9  -4025453.822 8  17024351.478    17024353.603       -1168.961
      -919.696
 -28580291.239 9   7340709.709 8  17481583.058    17481586.330        1741.464
      1364.870
 88  3 22  5 46  5.0800000  0  4G 6G 9G11G13
  19084860.651 9 -36217187.818 8  17262782.117    17262784.684       -2371.637
     -1837.553
 -16192079.003 9 -15116260.464 6  16229022.830    16229023.331         561.482
       427.577
  -5071945.748 9  -3997768.633 8  17031112.954    17031116.383       -1191.632
      -929.445
 -28632548.664 9   7299989.665 9  17471639.278    17471641.996        1746.480
      1359.793
 88  3 22  5 46 35.0800000  0  4G 6G 9G11G13
  19155985.169 9 -36161766.126 8  17276317.502    17276319.515       -2360.298
     -1862.992
 -16208556.064 9 -15129099.730 8  16225888.154    16225888.518         525.382
       407.767
  -5036075.055 9  -3969817.444 9  17037939.443    17037941.447       -1212.317
      -935.274
 -28684372.206 9   7259607.699 8  17461778.306    17461780.530        1709.646
      1343.998
 88  3 22  5 47  5.0800000  0  4G 6G 9G11G13
  19227631.839 9 -36105937.568 8  17289951.415    17289953.037       -2398.782
     -1878.644
 -16224416.063 9 -15141458.173 6  16222869.617    16222871.197         520.175
       405.748
  -4999865.352 9  -3941602.085 8  17044829.209    17044831.963       -1214.399
      -940.133
 -28735762.252 9   7219563.523 7  17451999.599    17452001.302        1706.425
      1329.626
 88  3 22  5 47 35.0800000  0  4G 6G 9G11G13
  19299798.185 9 -36049704.063 8  17303684.174    17303685.458       -2418.598
     -1864.347
 -16239657.311 9 -15153334.466 9  16219969.566    16219970.344         507.002
       395.271
  -4963318.723 9  -3913124.197 9  17051784.381    17051786.102       -1215.204
      -947.615
 -28786718.622 9   7179857.277 8  17442302.572    17442304.271        1696.130
      1307.964
 88  3 22  5 48  5.0800000  0  4G 6G 9G11G13
  19372483.799 9 -35993065.935 7  17317515.983    17317517.580       -2426.469
     -1888.934
 -16254278.184 9 -15164727.363 8  16217186.963    16217188.540         475.495
       363.687
  -4926437.150 9  -3884385.312 8  17058802.349    17058805.040       -1242.532
      -960.657
 -28837240.720 9   7140489.426 8  17432688.890    17432691.734        1679.655
      1310.773
 88  3 22  5 48 35.0800000  0  4G 6G 9G11G13
  19445686.776 9 -35936024.691 8  17331446.210    17331447.521       -2439.866
     -1904.351
 -16268276.978 8 -15175635.520 7  16214523.901    16214524.356         461.181
       338.005
  -4889222.688 9  -3855387.028 8  17065883.779    17065886.973       -1251.472
      -973.197
 -28887328.506 9   7101460.005 7  17423156.337    17423158.719        1656.585
      1299.414
 88  3 22  5 49  5.0800000  0  4G 6G 9G11G13
  19519405.605 9 -35878581.465 9  17345473.677    17345475.981       -2457.107
     -1917.002
 -16281652.663 9 -15186058.137 8  16211977.249    16211979.010         441.245
       335.805
  -4851677.600 9  -3826131.121 9  17073028.037    17073032.101       -1248.569
      -964.106
 -28936982.650 9   7062768.483 7  17413708.176    17413710.773        1645.086
      1291.939
 88  3 22  5 49 35.0800000  0  4G 6G 9G11G13
  19593638.521 9 -35820737.665 7  17359599.913    17359603.122       -2479.849
     -1957.448
 -16294403.342 9 -15195993.730 7  16209552.592    16209553.976         422.912
       339.105
  -4813803.964 9  -3796619.201 8  17080236.119    17080238.114       -1261.408
      -977.540
 -28986202.611 9   7024415.274 8  17404342.000    17404343.675        1638.324
      1275.889
 88  3 22  5 50  5.0800000  0  4G 6G 9G11G13
  19668384.091 9 -35762494.378 8  17373823.425    17373825.352       -2503.422
     -1938.309
 -16306527.583 8 -15205441.186 8  16207244.528    16207245.607         396.756
       309.391
  -4775603.862 9  -3766852.882 9  17087505.609    17087508.087       -1285.897
      -989.831
 -29034988.640 9   6986400.212 8  17395057.952    17395060.303        1606.003
      1264.909
 88  3 22  5 50 35.0800000  0  4G 6G 9G11G13
  19743640.627 9 -35703852.939 9  17388144.147    17388146.079       -2515.176
     -1951.986
 -16318024.160 8 -15214399.551 6  16205055.848    16205057.300         380.233
       296.801
  -4737079.207 9  -3736833.672 8  17094836.226    17094837.864       -1288.217
      -997.288
 -29083340.820 9   6948723.210 8  17385857.609    17385859.094        1617.072
      1247.138
 88  3 22  5 51  5.0800000  0  4G 6G 9G11G13
  19819406.256 9 -35644814.816 8  17402561.959    17402563.733       -2540.207
     -1972.131
 -16328891.646 8 -15222867.735 6  16202989.405    16202989.250         333.280
       283.523
  -4698232.404 9  -3706563.438 8  17102227.967    17102231.398       -1304.445
     -1018.421
 -29131259.392 9   6911384.073 8  17376738.599    17376741.621        1592.495
      1255.812
 88  3 22  5 51 35.0800000  0  4G 6G 9G11G13
  19895679.780 9 -35585380.932 8  17417076.610    17417078.608       -2542.687
     -1987.100
 -16339128.483 8 -15230844.502 8  16201041.358    16201042.510         323.520
       260.681
  -4659065.608 9  -3676043.841 8  17109681.991    17109684.534       -1302.332
     -1033.247
 -29178743.863 9   6874383.205 8  17367702.381    17367706.047        1558.397
      1249.169
 88  3 22  5 52  5.0800000  0  4G 6G 9G11G13
  19972459.073 9 -35525552.938 8  17431687.112    17431689.898       -2562.113
     -1984.291
 -16348733.495 9 -15238328.939 8  16199213.684    16199214.988         312.818
       237.106
  -4619580.964 9  -3645276.594 8  17117196.049    17117198.061       -1329.461
     -1024.168
 -29225794.973 9   6837720.026 8  17358748.877    17358751.887        1566.825
      1212.918
 88  3 22  5 52 35.0800000  0  4G 6G 9G11G13
  20049742.818 9 -35465331.869 8  17446394.159    17446396.801       -2585.007
     -2020.076
 -16357705.158 9 -15245319.831 8  16197505.785    16197506.193         278.512
       222.801
  -4579780.309 9  -3614263.094 9  17124769.990    17124771.161       -1336.143
     -1039.429
 -29272412.686 8   6801394.552 8  17349877.725    17349880.439        1542.296
      1207.574
 88  3 22  5 53  5.0800000  0  4G 6G 9G11G13
  20127528.906 9 -35404719.344 8  17461196.817    17461199.100       -2607.216
     -2046.615
 -16366042.199 8 -15251816.247 7  16195918.796    16195921.273         282.412
       209.734
  -4539666.122 9  -3583005.291 8  17132403.308    17132405.606       -1357.897
     -1033.980
 -29318596.880 9   6765406.882 7  17341088.609    17341091.885        1544.960
      1206.294
 88  3 22  5 53 35.0800000  0  4G 6G 9G11G13
  20205815.912 9 -35343716.520 8  17476094.188    17476095.901       -2629.488
     -2046.783
 -16373743.403 9 -15257817.181 7  16194453.707    16194454.388         253.680
       203.719
  -4499240.132 9  -3551504.520 8  17140095.444    17140097.689       -1340.473
     -1040.815
 -29364347.768 9   6729756.866 8  17332382.471    17332384.844        1522.065
      1171.416
 88  3 22  5 54  5.0800000  0  4G 6G 9G11G13
  20284601.944 9 -35282324.832 8  17491086.100    17491088.799       -2629.616
     -2055.657
 -16380807.501 9 -15263321.669 7  16193109.290    16193111.059         235.140
       158.855
  -4458504.764 9  -3519762.673 8  17147847.621    17147849.030       -1369.420
     -1061.476
 -29409665.426 9   6694444.426 8  17323758.399    17323762.112        1519.577
      1174.846
 88  3 22  5 54 35.0800000  0  4G 6G 9G11G13
  20363885.159 9 -35220545.728 9  17506172.570    17506176.127       -2633.204
     -2066.947
 -16387233.437 8 -15268328.884 8  16191886.451    16191888.060         206.719
       159.222
  -4417462.303 9  -3487781.535 8  17155657.476    17155659.125       -1369.747
     -1053.342
 -29454550.133 9   6659469.336 7  17315217.347    17315220.231        1477.760
      1160.524
 88  3 22  5 55  5.0800000  0  4G 6G 9G11G13
  20443663.713 9 -35158380.643 9  17521353.833    17521356.848       -2676.361
     -2073.913
 -16393019.765 9 -15272837.702 8  16190785.750    16190786.518         178.984
       148.236
  -4376114.856 9  -3455562.735 8  17163525.292    17163528.224       -1379.301
     -1070.188
 -29499002.176 9   6624831.411 8  17306758.490    17306760.985        1471.380
      1159.244
 88  3 22  5 55 35.0800000  0  4G 6G 9G11G13
  20523935.754 9 -35095831.030 8  17536629.992    17536632.172       -2683.403
     -2081.605
 -16398165.552 9 -15276847.439 8  16189806.065    16189807.275         150.428
       120.411
  -4334464.471 9  -3423107.868 9  17171450.867    17171454.284       -1386.796
     -1091.631
 -29543021.986 9   6590530.275 8  17298381.687    17298383.852        1458.717
      1130.294
 88  3 22  5 56  5.0800000  0  4G 6G 9G11G13
  20604699.639 9 -35032898.162 8  17551998.908    17552001.083       -2702.533
     -2089.528
 -16402669.383 9 -15280356.912 9  16188948.878    16188950.587         141.768
       106.169
  -4292513.017 9  -3390418.443 9  17179433.975    17179436.703       -1395.919
     -1105.954
 -29586609.463 9   6556566.021 8  17290088.011    17290090.551        1469.977
      1115.710
 88  3 22  5 56 35.0800000  0  4G 6G 9G11G13
  20685953.237 9 -34969583.698 8  17567461.061    17567463.955       -2732.963
     -2128.631
 -16406530.339 8 -15283365.433 8  16188213.649    16188216.765         130.612
        83.333
  -4250263.029 9  -3357496.367 8  17187474.375    17187476.005       -1424.284
     -1086.896
 -29629764.756 9   6522938.544 8  17281875.743    17281877.321        1436.915
      1115.349
 88  3 22  5 57  5.0800000  0  4G 6G 9G11G13
  20767694.926 9 -34905888.905 9  17583015.959    17583018.729       -2738.434
     -2139.300
 -16409747.194 9 -15285872.082 8  16187602.335    16187603.755          89.887
        64.387
  -4207716.654 9  -3324343.347 8  17195570.720    17195572.888       -1432.689
     -1110.776
 -29672488.155 9   6489647.589 8  17273744.831    17273748.003        1415.241
      1109.092
 88  3 22  5 57 35.0800000  0  4G 6G 9G11G13
  20849922.592 9 -34841815.448 8  17598663.198    17598666.042       -2755.467
     -2126.220
 -16412319.116 8 -15287876.183 8  16187113.043    16187114.335          78.308
        57.353
  -4164876.160 9  -3290961.154 8  17203722.340    17203724.175       -1441.469
     -1109.036
 -29714780.423 9   6456692.593 8  17265696.767    17265699.965        1398.878
      1081.317
 88  3 22  5 58  5.0800000  0  4G 6G 9G11G13
  20932634.282 9 -34777364.804 9  17614402.553    17614405.501       -2775.004
     -2147.552
 -16414244.966 9 -15289376.855 8  16186746.146    16186748.225          52.232
        36.960
  -4121743.497 9  -3257351.289 8  17211929.986    17211933.418       -1442.513
     -1120.233
 -29756641.610 9   6424073.509 8  17257731.641    17257734.406        1382.195
      1091.165
 88  3 22  5 58 35.0800000  0  4G 6G 9G11G13
  21015828.192 9 -34712538.404 9  17630233.380    17630234.749       -2778.792
     -2162.403
 -16415523.746 8 -15290373.321 7  16186503.557    16186504.267          42.894
        38.171
  -4078320.644 9  -3223515.294 8  17220193.351    17220196.090       -1440.607
     -1130.865
 -29798071.987 9   6391790.112 9  17249848.380    17249850.015        1383.543
      1072.654
 88  3 22  5 59  5.0800000  0  4G 6G 9G11G13
  21099502.193 9 -34647337.912 8  17646155.775    17646158.384       -2792.197
     -2175.719
 -16416154.550 8 -15290864.853 7  16186382.914    16186383.988           0.518
        21.835
  -4034610.133 9  -3189455.164 8  17228511.115    17228514.390       -1454.666
     -1144.063
 -29839072.159 9   6359841.931 9  17242045.751    17242048.494        1368.647
      1074.612
 88  3 22  5 59 35.0800000  0  4G 6G 9G11G13
  21183654.779 9 -34581764.493 8  17662170.813    17662172.762       -2803.218
     -2191.651
 -16416136.177 8 -15290850.551 8  16186386.159    16186387.685          -4.290
         0.789
  -3990614.070 9  -3155172.522 9  17236883.508    17236886.013       -1478.143
     -1157.237
 -29879641.913 9   6328229.168 7  17234325.192    17234328.370        1348.998
      1049.763
 88  3 22  6  0  5.0800000  0  4G 6G 9G11G13
  21268283.360 9 -34515820.179 9  17678275.349    17678277.677       -2820.817
     -2195.802
 -16415467.980 8 -15290329.891 8  16186512.547    16186515.355         -36.570
       -32.995
  -3946334.440 9  -3120668.905 9  17245309.365    17245312.191       -1465.982
     -1149.140
 -29919781.974 9   6296951.235 9  17226688.415    17226690.476        1326.574
      1033.750
 88  3 22  6  0 35.0800000  0  4G 6G 9G11G13
  21353386.175 9 -34449506.327 8  17694469.147    17694471.289       -2850.641
     -2211.231
 -16414148.968 9 -15289302.100 6  16186764.609    16186766.751         -62.272
       -39.663
  -3901773.204 8  -3085945.866 7  17253788.915    17253792.651       -1487.377
     -1163.680
 -29959492.514 9   6266007.961 8  17219131.350    17219132.752        1318.544
      1025.417
 88  3 22  6  1  5.0800000  0  4G 6G 9G11G13
  21438961.300 9 -34382824.415 8  17710753.025    17710756.930       -2862.196
     -2234.011
 -16412178.339 9 -15287766.556 8  16187139.157    16187141.057         -53.317
       -64.170
  -3856932.572 9  -3051005.114 9  17262322.027    17262324.636       -1488.246
     -1172.914
 -29998774.053 9   6235398.994 8  17211655.562    17211659.244        1314.868
      1018.955
 88  3 22  6  1 35.0800000  0  4G 6G 9G11G13
  21525006.385 9 -34315776.316 8  17727127.224    17727129.423       -2860.051
     -2233.607
 -16409555.315 8 -15285722.652 8  16187638.618    16187640.194         -95.254
       -82.538
  -3811814.944 9  -3015848.516 9  17270907.581    17270909.943       -1493.541
     -1170.211
 -30037627.313 9   6205123.736 8  17204262.975    17204264.217        1290.793
       990.291
 88  3 22  6  2  5.0800000  0  4G 6G 9G11G13
  21611519.498 9 -34248363.517 8  17743590.609    17743593.134       -2884.851
     -2255.672
 -16406279.059 8 -15283169.731 8  16188261.823    16188263.341        -112.096
       -98.047
  -3766422.637 9  -2980477.887 9  17279545.574    17279548.485       -1509.721
     -1183.838
 -30076052.379 9   6175182.141 8  17196949.517    17196953.154        1274.765
       991.788
 88  3 22  6  2 35.0800000  0  4G 6G 9G11G13
  21698498.717 9 -34180587.537 8  17760141.783    17760144.863       -2894.620
     -2272.785
 -16402348.571 9 -15280107.016 7  16189011.286    16189011.725        -140.827
      -104.286
  -3720757.219 9  -2944894.447 8  17288235.646    17288238.899       -1541.084
     -1179.084
 -30114049.441 9   6145574.051 7  17189719.583    17189722.382        1278.832
       968.101
 88  3 22  6  3  5.0800000  0  4G 6G 9G11G13
  21785941.713 9 -34112450.173 7  17776781.849    17776785.106       -2912.402
     -2273.586
 -16397763.308 8 -15276534.092 7  16189882.409    16189883.968        -177.437
      -122.033
  -3674821.152 9  -2909100.120 9  17296977.314    17296980.050       -1544.099
     -1187.417
 -30151619.386 9   6116298.804 9  17182569.574    17182572.794        1252.492
       957.109
 88  3 22  6  3 35.0800000  0  4G 6G 9G11G13
  21873846.467 9 -34043952.978 9  17793510.434    17793512.590       -2941.437
     -2289.338
 -16392522.731 8 -15272450.530 7  16190880.561    16190880.614        -189.598
      -138.449
  -3628616.590 9  -2873096.558 9  17305770.163    17305772.528       -1542.528
     -1201.211
 -30188762.214 9   6087356.358 9  17175501.655    17175504.006        1241.448
       961.129
 88  3 22  6  4  5.0800000  0  4G 6G 9G11G13
  21962210.829 9 -33975097.660 9  17810325.035    17810328.298       -2955.823
     -2306.171
 -16386625.854 8 -15267855.571 8  16192001.623    16192002.946        -208.458
      -162.826
  -3582145.541 9  -2836885.362 8  17314612.675    17314615.119       -1549.880
     -1206.624
 -30225479.157 9   6058745.767 8  17168514.645    17168517.695        1219.279
       949.118
 88  3 22  6  4 35.0800000  0  4G 6G 9G11G13
  22051032.521 9 -33905885.969 8  17827227.646    17827229.917       -2975.392
     -2324.378
 -16380072.385 8 -15262748.980 7  16193249.427    16193250.204        -224.701
      -176.329
  -3535410.304 9  -2800468.297 9  17323506.306    17323508.359       -1553.636
     -1220.393
 -30261770.811 9   6030466.561 7  17161607.679    17161611.637        1204.917
       947.354
 88  3 22  6  5  5.0800000  0  4G 6G 9G11G13
  22140309.590 9 -33836319.449 8  17844216.139    17844218.772       -2981.875
     -2317.978
 -16372861.431 9 -15257130.056 7  16194621.077    16194623.499        -243.138
      -193.603
  -3488413.167 9  -2763847.153 8  17332449.874    17332451.563       -1559.425
     -1219.679
 -30297637.011 9   6002518.894 9  17154783.342    17154786.343        1183.713
       927.053
 88  3 22  6  5 35.0800000  0  4G 6G 9G11G13
  22230039.656 9 -33766399.929 9  17861291.749    17861294.158       -3003.398
     -2340.030
 -16364992.379 9 -15250998.323 7  16196118.364    16196119.673        -246.144
      -221.155
  -3441156.028 9  -2727023.410 9  17341442.787    17341444.851       -1585.174
     -1234.778
 -30333078.529 9   5974902.138 9  17148039.073    17148042.342        1167.278
       919.789
 88  3 22  6  6  5.0800000  0  4G 6G 9G11G13
  22320220.491 9 -33696129.180 9  17878452.590    17878454.907       -3014.482
     -2360.207
 -16356464.880 8 -15244353.524 7  16197741.430    16197742.319        -291.287
      -237.410
  -3393640.872 9  -2689998.603 9  17350484.621    17350486.522       -1579.784
     -1243.291
 -30368096.255 9   5947615.630 8  17141376.131    17141379.551        1163.419
       887.061
 88  3 22  6  6 35.0800000  0  4G 6G 9G11G13
  22410850.027 9 -33625508.782 8  17895698.783    17895700.867       -3028.780
     -2356.286
 -16347278.112 9 -15237195.013 7  16199490.428    16199490.799        -313.464
      -259.854
  -3345870.140 9  -2652774.664 8  17359574.901    17359577.306       -1587.511
     -1242.502
 -30402690.264 9   5920659.267 8  17134792.749    17134795.880        1153.419
       901.465
 88  3 22  6  7  5.0800000  0  4G 6G 9G11G13
  22501925.864 9 -33554540.617 8  17913029.699    17913031.835       -3038.469
     -2378.525
 -16337431.829 9 -15229522.584 7  16201363.480    16201364.578        -325.896
      -273.773
  -3297845.939 9  -2615353.202 9  17368712.669    17368715.897       -1596.123
     -1247.448
 -30436861.584 9   5894032.275 9  17128289.587    17128292.661        1133.579
       869.743
 88  3 22  6  7 35.0800000  0  4G 6G 9G11G13
  22593445.638 9 -33483226.533 8  17930444.709    17930447.384       -3054.306
     -2373.927
 -16326925.876 8 -15221336.155 7  16203362.252    16203363.812        -347.554
      -283.926
  -3249570.683 9  -2577736.122 8  17377899.914    17377902.102       -1611.290
     -1267.208
 -30470610.710 9   5867734.273 7  17121867.302    17121870.505        1118.196
       874.137
 88  3 22  6  8  5.0800000  0  4G 6G 9G11G13
  22685407.181 8 -33411568.227 8  17947944.513    17947947.699       -3072.440
     -2400.416
 -16315759.328 8 -15212634.961 7  16205487.631    16205490.117        -393.024
      -294.981
  -3201046.079 9  -2539924.744 8  17387134.195    17387136.459       -1623.077
     -1249.126
 -30503938.213 9   5841764.812 8  17115526.320    17115528.860        1103.268
       869.495
 88  3 22  6  8 35.0800000  0  4G 6G 9G11G13
  22777808.346 9 -33339567.352 8  17965527.720    17965530.597       -3079.314
     -2385.851
 -16303931.945 7 -15203418.811 7  16207738.784    16207739.985        -405.831
      -330.909
  -3152274.303 9  -2501920.747 9  17396414.708    17396416.693       -1615.118
     -1276.833
 -30536844.823 9   5816123.306 7  17109263.439    17109265.938        1087.455
       852.631
 88  3 22  6  9  5.0800000  0  4G 6G 9G11G13
  22870646.894 9 -33267225.644 9  17983194.472    17983197.186       -3103.484
     -2414.633
 -16291443.076 9 -15193687.248 7  16210115.280    16210115.549        -423.127
      -349.656
  -3103257.649 9  -2463725.958 9  17405741.938    17405744.507       -1638.698
     -1283.600
 -30569330.662 9   5790809.679 8  17103082.576    17103083.816        1073.763
       841.235
 88  3 22  6  9 35.0800000  0  4G 6G 9G11G13
  22963920.555 9 -33194544.901 9  18000943.888    18000947.251       -3112.926
     -2427.757
 -16278292.476 9 -15183440.019 7  16212617.136    16212618.883        -434.275
      -346.965
  -3053998.105 9  -2425341.896 9  17415115.313    17415117.705       -1633.802
     -1271.819
 -30601396.915 9   5765822.996 8  17096978.796    17096982.250        1080.685
       814.944
 88  3 22  6 10  5.0800000  0  4G 6G 9G11G13
  23057626.686 9 -33121527.160 8  18018776.290    18018778.970       -3137.774
     -2453.059
 -16264480.051 9 -15172677.102 8  16215246.351    16215247.062        -477.369
      -361.213
  -3004497.818 9  -2386770.250 8  17424535.118    17424538.052       -1644.392
     -1287.782
 -30633044.202 9   5741162.790 9  17090957.139    17090960.890        1054.960
       801.330
 88  3 22  6 10 35.0800000  0  4G 6G 9G11G13
  23151762.873 9 -33048174.307 8  18036689.368    18036692.195       -3131.338
     -2444.664
 -16250005.513 9 -15161398.240 7  16217999.885    16218000.825        -498.509
      -380.054
  -2954758.906 9  -2348012.665 9  17434000.235    17434002.632       -1650.644
     -1295.978
 -30664273.228 9   5716828.498 7  17085014.880    17085017.641        1026.858
       801.131
 88  3 22  6 11  5.0800000  0  4G 6G 9G11G13
  23246327.142 9 -32974487.885 8  18054684.584    18054686.692       -3159.336
     -2452.823
 -16234868.178 8 -15149602.922 6  16220881.937    16220882.645        -519.250
      -404.927
  -2904783.257 9  -2309070.599 8  17443510.081    17443513.115       -1664.376
     -1300.924
 -30695084.784 9   5692819.520 9  17079150.981    17079153.661        1019.689
       808.625
 88  3 22  6 11 35.0800000  0  4G 6G 9G11G13
  23341316.836 9 -32900469.961 9  18072760.256    18072763.142       -3182.877
     -2468.910
 -16219068.355 8 -15137291.393 8  16223887.529    16223890.016        -533.405
      -434.580
  -2854573.315 9  -2269945.976 9  17453065.208    17453067.224       -1679.934
     -1306.156
 -30725479.360 9   5669135.449 8  17073367.573    17073370.016        1004.506
       790.120
 88  3 22  6 12  5.0800000  0  4G 6G 9G11G13
  23436729.774 9 -32826122.245 9  18090916.604    18090918.753       -3197.502
     -2477.013
 -16202605.342 8 -15124463.070 7  16227020.080    16227021.206        -568.588
      -436.512
  -2804130.559 9  -2230639.922 9  17462664.791    17462666.859       -1677.151
     -1316.079
 -30755457.646 9   5645775.765 8  17067662.785    17067664.803         979.291
       780.184
 88  3 22  6 12 35.0800000  0  4G 6G 9G11G13
  23532563.422 9 -32751446.702 9  18109152.962    18109154.975       -3194.862
     -2495.555
 -16185479.222 8 -15111118.047 7  16230280.632    16230280.943        -596.450
      -451.587
  -2753457.719 9  -2191154.599 8  17472307.065    17472309.069       -1695.101
     -1310.506
 -30785020.457 9   5622739.823 8  17062037.538    17062040.291         973.964
       772.230
 88  3 22  6 13  5.0800000  0  4G 6G 9G11G13
  23628815.360 9 -32676445.220 8  18127469.302    18127471.696       -3201.258
     -2494.120
 -16167690.075 8 -15097256.385 7  16233664.655    16233665.628        -610.190
      -459.416
  -2702556.661 9  -2151491.439 9  17481993.010    17481996.104       -1696.648
     -1336.312
 -30814168.871 9   5600026.796 8  17056490.827    17056494.031         970.894
       756.864
 88  3 22  6 13 35.0800000  0  4G 6G 9G11G13
  23725483.206 9 -32601119.639 9  18145864.958    18145866.399       -3229.240
     -2513.016
 -16149237.502 9 -15082877.756 7  16237175.933    16237175.876        -629.121
      -502.192
  -2651429.570 9  -2111652.144 9  17491723.002    17491724.488       -1696.481
     -1333.143
 -30842902.717 9   5577636.794 9  17051023.271    17051025.380         955.687
       737.172
 88  3 22  6 14  5.0800000  0  4G 6G 9G11G13
  23822564.440 9 -32525471.945 9  18164338.918    18164341.026       -3243.952
     -2517.384
 -16130121.599 8 -15067982.261 6  16240813.993    16240814.868        -642.438
      -504.006
  -2600078.437 9  -2071638.277 8  17501493.160    17501496.664       -1718.059
     -1333.167
 -30871223.670 9   5555568.534 8  17045633.534    17045636.176         935.033
       716.791
 88  3 22  6 14 35.0800000  0  4G 6G 9G11G13
  23920056.393 9 -32449504.208 9  18182891.099    18182893.665       -3260.411
     -2533.254
 -16110342.416 8 -15052569.918 7  16244577.174    16244578.998        -672.733
      -519.814
  -2548505.587 9  -2031451.649 9  17511307.709    17511309.701       -1709.032
     -1332.857
 -30899132.702 9   5533821.254 8  17040323.314    17040324.906         917.872
       721.526
 88  3 22  6 15  5.0800000  0  4G 6G 9G11G13
  24017956.888 9 -32373218.134 9  18201520.736    18201524.223       -3276.320
     -2551.343
 -16089899.863 7 -15036640.652 8  16248467.188    16248469.369        -696.456
      -539.269
  -2496713.034 9  -1991093.821 9  17521164.394    17521166.731       -1732.947
     -1348.354
 -30926630.035 9   5512394.769 8  17035089.894    17035092.891         908.431
       698.094
 88  3 22  6 15 35.0800000  0  4G 6G 9G11G13
  24116263.285 9 -32296615.755 8  18220228.151    18220230.733       -3277.748
     -2564.130
 -16068793.869 8 -15020194.442 7  16252483.416    16252485.137        -712.708
      -560.266
  -2444702.764 9  -1950566.335 9  17531060.289    17531064.379       -1741.360
     -1354.990
 -30953716.880 9   5491288.142 8  17029935.097    17029937.950         901.078
       684.933
 88  3 22  6 16  5.0800000  0  4G 6G 9G11G13
  24214972.960 9 -32219699.140 9  18239012.493    18239014.501       -3301.615
     -2566.187
 -16047024.651 7 -15003231.426 8  16256625.599    16256628.413        -741.208
      -569.089
  -2392476.675 9  -1909870.684 8  17540999.810    17541002.225       -1747.660
     -1342.165
 -30980393.987 9   5470500.798 8  17024858.028    17024862.171         877.825
       691.495
 88  3 22  6 16 35.0800000  0  4G 6G 9G11G13
  24314083.430 9 -32142470.218 9  18257870.882    18257873.741       -3307.221
     -2577.521
 -16024592.288 8 -14985751.676 8  16260895.646    16260896.059        -763.537
      -582.399
  -2340037.386 9  -1869008.898 9  17550977.387    17550980.716       -1741.017
     -1360.825
 -31006662.369 9   5450031.940 7  17019859.810    17019862.421         880.441
       670.349
 88  3 22  6 17  5.0800000  0  4G 6G 9G11G13
  24413592.516 9 -32064930.702 9  18276807.820    18276810.703       -3320.801
     -2582.921
 -16001496.584 8 -14967755.029 7  16265288.954    16265292.374        -796.423
      -597.797
  -2287386.199 9  -1827982.008 9  17560997.214    17560999.386       -1759.135
     -1365.690
 -31032522.927 9   5429880.857 9  17014939.978    17014942.399         844.381
       664.123
 88  3 22  6 17 35.0800000  0  4G 6G 9G11G13
  24513497.275 9 -31987082.864 9  18295818.023    18295822.024       -3319.055
     -2601.482
 -15977737.929 8 -14949241.812 8  16269811.406    16269812.707        -807.858
      -642.288
  -2234525.624 9  -1786791.958 9  17571056.441    17571059.367       -1761.408
     -1380.081
 -31057976.153 9   5410047.200 8  17010095.264    17010098.010         842.443
       660.662
 88  3 22  6 18  5.0800000  0  4G 6G 9G11G13
  24613795.396 9 -31908928.513 9  18314904.853    18314906.226       -3345.370
     -2608.199
 -15953316.548 7 -14930212.176 8  16274458.213    16274460.662        -828.185
      -654.405
  -2181457.861 9  -1745440.467 9  17581153.658    17581158.249       -1783.457
     -1386.743
 -31083023.341 9   5390529.926 9  17005328.530    17005332.157         841.877
       654.653
 88  3 22  6 18 35.0800000  0  4G 6G 9G11G13
  24714484.609 9 -31830469.402 9  18334065.846    18334068.311       -3365.338
     -2632.979
 -15928232.176 8 -14910665.942 8  16279231.604    16279232.512        -843.727
      -653.647
  -2128184.304 9  -1703928.610 9  17591291.526    17591295.507       -1781.479
     -1386.836
 -31107664.675 9   5371328.889 8  17000639.688    17000642.524         811.574
       636.919
 88  3 22  6 19  5.0800000  0  4G 6G 9G11G13
  24815561.874 9 -31751707.915 9  18353300.386    18353302.985       -3369.158
     -2641.542
 -15902485.413 8 -14890603.545 6  16284129.606    16284134.388        -863.320
      -680.925
  -2074707.636 9  -1662258.485 9  17601469.724    17601471.714       -1779.996
     -1393.864
 -31131901.904 9   5352442.745 8  16996027.989    16996029.405         795.936
       630.463
 88  3 22  6 19 35.0800000  0  4G 6G 9G11G13
  24917025.139 9 -31672645.667 9  18372607.785    18372609.715       -3387.068
     -2636.925
 -15876076.372 9 -14870025.069 7  16289156.333    16289157.476        -870.776
      -697.255
  -2021029.160 9  -1620431.109 9  17611683.625    17611688.019       -1788.576
     -1397.772
 -31155735.540 9   5333871.110 8  16991492.375    16991495.220         787.213
       608.503
 88  3 22  6 20  5.0800000  0  4G 6G 9G11G13
  25018871.191 9 -31593285.113 9  18391988.811    18391991.170       -3393.743
     -2644.966
 -15849005.568 9 -14848930.950 7  16294308.768    16294309.258        -900.401
      -706.302
  -1967151.531 9  -1578448.539 9  17621935.529    17621938.429       -1796.949
     -1402.967
 -31179167.100 9   5315612.748 8  16987032.726    16987036.726         771.048
       609.821
 88  3 22  6 20 35.0800000  0  4G 6G 9G11G13
  25121097.801 9 -31513628.045 9  18411441.216    18411444.864       -3407.179
     -2657.729
 -15821273.076 8 -14827321.222 8  16299585.665    16299586.392        -936.508
      -719.904
  -1913076.808 9  -1536312.385 8  17632226.096    17632229.373       -1804.134
     -1396.026
 -31202196.520 9   5297667.776 8  16982651.643    16982654.117         765.761
       598.294
 88  3 22  6 21  5.0800000  0  4G 6G 9G11G13
  25223701.906 9 -31433676.826 9  18430966.222    18430968.801       -3449.882
     -2659.593
 -15792879.841 8 -14805196.652 7  16304988.828    16304989.613        -954.084
      -730.368
  -1858806.948 9  -1494024.177 9  17642553.265    17642555.804       -1808.887
     -1404.750
 -31224825.901 9   5280034.503 9  16978344.923    16978348.075         742.987
       591.851
 88  3 22  6 21 35.0800000  0  4G 6G 9G11G13
  25326681.078 9 -31353433.338 9  18450563.431    18450566.324       -3437.530
     -2666.633
 -15763825.694 7 -14782557.053 8  16310516.985    16310519.177        -981.181
      -768.850
  -1804343.884 9  -1451585.428 8  17652917.829    17652919.621       -1820.968
     -1418.302
 -31247055.986 9   5262712.362 8  16974115.099    16974117.372         719.630
       563.951
 88  3 22  6 22  5.0800000  0  4G 6G 9G11G13
  25430032.778 9 -31272899.545 9  18470230.449    18470233.262       -3442.227
     -2695.738
 -15734111.232 8 -14759402.952 7  16316170.736    16316172.895       -1006.125
      -773.119
  -1749689.560 9  -1408997.644 9  17663317.529    17663319.883       -1819.860
     -1427.145
 -31268887.050 9   5245701.165 8  16969961.310    16969962.405         718.091
       566.424
 88  3 22  6 22 35.0800000  0  4G 6G 9G11G13
  25533754.175 9 -31192077.696 9  18489968.046    18489969.939       -3459.443
     -2688.232
 -15703737.030 9 -14735734.766 8  16321951.669    16321953.247       -1012.847
      -795.166
  -1694845.990 9  -1366262.414 9  17673754.012    17673757.149       -1843.400
     -1422.894
 -31290321.016 9   5228999.382 9  16965881.126    16965884.305         712.333
       551.815
 88  3 22  6 23  5.0800000  0  4G 6G 9G11G13
  25637842.633 9 -31110969.849 9  18509774.563    18509778.328       -3469.363
     -2707.911
 -15672703.474 8 -14711552.797 7  16327856.041    16327859.383       -1045.326
      -808.625
  -1639814.999 9  -1323381.129 9  17684226.219    17684228.435       -1837.092
     -1428.164
 -31311358.081 9   5212606.874 8  16961878.384    16961881.206         695.252
       528.284
 88  3 22  6 23 35.0800000  0  4G 6G 9G11G13
  25742295.784 9 -31029577.820 9  18529651.921    18529655.153       -3480.639
     -2712.665
 -15641010.797 9 -14686857.221 9  16333887.428    16333890.093       -1057.655
      -827.744
  -1584598.504 9  -1280355.299 8  17694733.619    17694735.850       -1833.113
     -1439.380
 -31331999.015 9   5196523.055 8  16957950.905    16957952.720         683.347
       544.794
 88  3 22  6 24  5.0800000  0  4G 6G 9G11G13
  25847110.817 9 -30947903.804 9  18549597.341    18549600.875       -3496.707
     -2728.174
 -15608659.627 8 -14661648.541 7  16340044.794    16340045.586       -1098.803
      -863.654
  -1529198.672 9  -1237186.596 9  17705275.700    17705277.835       -1844.022
     -1436.030
 -31352245.523 9   5180746.569 8  16954097.112    16954100.453         650.700
       518.491
 88  3 22  6 24 35.0800000  0  4G 6G 9G11G13
  25952285.067 9 -30865949.854 9  18569610.680    18569614.504       -3505.838
     -2739.689
 -15575650.599 8 -14635927.217 8  16346325.672    16346327.636       -1132.869
      -857.092
  -1473617.298 9  -1193876.430 9  17715852.878    17715855.023       -1846.725
     -1451.807
 -31372098.654 9   5165276.617 9  16950319.080    16950323.004         653.770
       514.073
 88  3 22  6 25  5.0800000  0  4G 6G 9G11G13
  26057815.739 9 -30783718.197 9  18589694.122    18589696.180       -3524.179
     -2745.387
 -15541984.341 9 -14609693.788 8  16352732.444    16352734.275       -1128.579
      -862.952
  -1417856.731 9  -1150426.639 9  17726463.067    17726466.645       -1860.537
     -1453.721
 -31391559.574 9   5150112.273 8  16946616.080    16946619.130         640.030
       495.966
 88  3 22  6 25 35.0800000  0  4G 6G 9G11G13
  26163700.276 9 -30701210.796 9  18609842.455    18609845.421       -3521.516
     -2751.097
 -15507661.516 9 -14582948.744 7  16359263.295    16359266.393       -1163.187
      -904.739
  -1361918.799 9  -1106838.656 9  17737107.191    17737110.580       -1857.977
     -1444.624
 -31410629.183 9   5135252.845 9  16942987.431    16942990.314         635.668
       497.159
 88  3 22  6 26  5.0800000  0  4G 6G 9G11G13
  26269935.816 9 -30618429.895 8  18630057.863    18630061.691       -3556.180
     -2765.078
 -15472682.383 9 -14555692.291 8  16365919.725    16365921.944       -1176.226
      -927.407
  -1305805.657 9  -1063114.136 9  17747785.109    17747788.440       -1876.039
     -1458.375
 -31429308.404 9   5120697.615 8  16939431.525    16939434.657         631.378
       502.826
 88  3 22  6 26 35.0800000  0  4G 6G 9G11G13
  26376519.323 9 -30535377.835 9  18650340.563    18650343.353       -3559.505
     -2775.592
 -15437048.331 9 -14527925.504 8  16372701.925    16372702.035       -1198.019
      -924.493
  -1249519.001 9  -1019254.407 9  17758496.822    17758500.019       -1876.805
     -1457.549
 -31447598.871 9   5106445.314 8  16935950.845    16935954.363         590.102
       478.797
 88  3 22  6 27  5.0800000  0  4G 6G 9G11G13
  26483448.235 9 -30452056.628 9  18670688.814    18670690.658       -3565.191
     -2778.531
 -15400760.009 8 -14499648.893 7  16379607.432    16379609.659       -1220.962
      -944.060
  -1193060.770 9   -975260.993 9  17769240.360    17769243.174       -1877.379
     -1467.106
 -31465501.428 8   5092495.284 7  16932545.746    16932549.229         592.997
       445.013
 88  3 22  6 27 35.0800000  0  4G 6G 9G11G13
  26590719.801 9 -30368468.436 9  18691101.475    18691105.249       -3576.403
     -2786.888
 -15363818.171 8 -14470863.072 7  16386637.131    16386637.572       -1255.451
      -961.509
  -1136432.948 9   -931135.424 8  17780016.156    17780019.440       -1877.235
     -1473.388
 -31483017.323 9   5078846.547 8  16929212.622    16929214.991         576.913
       457.384
 88  3 22  6 28  5.0800000  0  4G 6G 9G11G13
  26698331.466 9 -30284615.217 8  18711579.131    18711583.114       -3605.518
     -2800.497
 -15326222.978 8 -14441568.132 7  16393790.572    16393791.661       -1252.803
      -986.625
  -1079637.228 9   -886879.016 9  17790824.143    17790827.271       -1893.918
     -1478.974
 -31500147.061 9   5065498.717 8  16925953.235    16925956.337         570.286
       446.622
 88  3 22  6 28 35.0800000  0  4G 6G 9G11G13
  26806280.387 9 -30200499.191 9  18732120.648    18732125.045       -3598.739
     -2796.669
 -15287975.653 8 -14411765.039 8  16401069.244    16401070.701       -1288.026
      -990.434
  -1022675.520 9   -842493.277 9  17801663.156    17801665.818       -1905.026
     -1475.177
 -31516892.471 9   5052450.357 9  16922766.594    16922768.595         545.143
       436.158
 88  3 22  6 29  5.0800000  0  4G 6G 9G11G13
  26914563.899 9 -30116122.464 9  18752726.030    18752730.289       -3613.604
     -2814.645
 -15249077.023 9 -14381454.437 8  16408470.572    16408472.446       -1321.542
     -1016.532
   -965549.839 9   -797979.761 9  17812533.637    17812537.176       -1883.535
     -1481.497
 -31533254.432 9   5039700.788 7  16919653.067    16919655.402         536.810
       414.577
 88  3 22  6 29 35.0800000  0  4G 6G 9G11G13
  27023179.047 9 -30031487.299 9  18773396.180    18773399.374       -3636.929
     -2823.780
 -15209527.797 9 -14350636.873 8  16415996.858    16415998.496       -1321.877
     -1027.797
   -908262.147 8   -753340.005 9  17823435.899    17823438.922       -1904.340
     -1482.739
 -31549233.814 9   5027249.335 8  16916612.581    16916614.449         528.349
       429.149
 88  3 22  6 30  5.0800000  0  4G 6G 9G11G13
  27132123.238 8 -29946595.763 8  18794126.916    18794130.368       -3626.929
     -2833.834
 -15169328.860 8 -14319313.050 8  16423645.722    16423648.506       -1358.208
     -1053.044
   -850814.294 9   -708575.463 9  17834367.537    17834370.544       -1919.659
     -1501.865
 -31564832.290 9   5015094.684 9  16913643.546    16913645.877         525.071
       402.187
 88  3 22  6 30 35.0800000  0  4G 6G 9G11G13
  27241393.424 8 -29861450.211 9  18814920.888    18814923.032       -3658.738
     -2853.469
 -15128481.231 8 -14287483.747 6  16431419.145    16431420.362       -1364.995
     -1044.929
   -793208.304 9   -663687.679 9  17845329.281    17845332.189       -1910.696
     -1502.940
 -31580050.743 9   5003236.178 9  16910748.388    16910750.402         493.597
       398.154
 88  3 22  6 31  5.0800000  0  4G 6G 9G11G13
  27350986.783 8 -29776052.814 9  18835774.880    18835778.097       -3654.552
     -2849.958
 -15086986.016 9 -14255149.827 7  16439315.709    16439318.684       -1390.465
     -1097.764
   -735446.029 9   -618678.120 9  17856321.692    17856324.863       -1919.874
     -1499.125
 -31594890.563 9   4991672.684 7  16907923.807    16907926.089         501.603
       382.676
 88  3 22  6 31 35.0800000  0  4G 6G 9G11G13
  27460900.301 9 -29690405.939 9  18856690.647    18856693.903       -3657.478
     -2862.417
 -15044844.318 9 -14222312.153 8  16447335.632    16447336.846       -1434.276
     -1105.140
   -677529.581 9   -573548.420 9  17867342.948    17867346.336       -1942.705
     -1510.192
 -31609353.104 9   4980403.169 8  16905171.521    16905174.209         490.112
       375.120
 88  3 22  6 32  5.0800000  0  4G 6G 9G11G13
  27571131.207 9 -29604511.758 8  18877668.254    18877670.968       -3683.483
     -2865.859
 -15002057.233 9 -14188971.593 7  16455477.034    16455479.099       -1427.466
     -1116.014
   -619460.860 9   -528300.080 9  17878392.414    17878395.191       -1927.027
     -1523.179
 -31623440.036 9   4969426.357 8  16902491.147    16902494.063         467.871
       358.082
 88  3 22  6 32 35.0800000  0  4G 6G 9G11G13
  27681676.669 9 -29518372.468 8  18898703.698    18898707.274       -3689.256
     -2874.472
 -14958625.840 9 -14155128.957 8  16463741.920    16463743.602       -1461.109
     -1134.420
   -561241.396 9   -482934.268 9  17889471.123    17889474.201       -1939.052
     -1516.710
 -31637151.612 9   4958742.020 8  16899882.752    16899885.426         455.998
       351.222
 88  3 22  6 33  5.0800000  0  4G 6G 9G11G13
  27792534.132 9 -29431990.050 9  18919799.353    18919802.171       -3699.814
     -2885.750
 -14914550.602 9 -14120784.622 7  16472129.747    16472129.632       -1484.841
     -1138.875
   -502872.727 8   -437452.194 9  17900578.865    17900581.880       -1944.156
     -1519.308
 -31650489.065 8   4948349.207 8  16897344.012    16897346.143         440.783
       348.631
 88  3 22  6 33 35.0800000  0  4G 6G 9G11G13
  27903700.574 9 -29345366.878 9  18940954.690    18940957.230       -3707.127
     -2881.580
 -14869833.026 9 -14085939.770 8  16480638.604    16480640.220       -1482.074
     -1171.149
   -444357.088 9   -391855.601 9  17911714.196    17911717.481       -1938.104
     -1517.804
 -31663453.920 9   4938246.740 9  16894876.115    16894879.371         409.818
       336.924
 88  3 22  6 34  5.0800000  0  4G 6G 9G11G13
  28015172.981 9 -29258505.274 9  18962166.295    18962169.775       -3734.838
     -2897.637
 -14824474.367 8 -14050595.371 8  16489270.994    16489271.879       -1527.544
     -1177.114
   -385696.643 8   -346146.166 9  17922877.281    17922879.906       -1959.355
     -1520.774
 -31676047.898 9   4928433.262 8  16892480.340    16892482.508         411.309
       320.874
 88  3 22  6 34 35.0800000  0  4G 6G 9G11G13
  28126948.552 9 -29171407.444 9  18983436.995    18983439.510       -3727.796
     -2900.545
 -14778475.770 9 -14014752.307 7  16498023.570    16498024.496       -1556.196
     -1199.235
   -326892.732 9   -300324.948 8  17934065.960    17934069.853       -1963.964
     -1520.768
 -31688272.219 9   4918907.831 9  16890153.573    16890156.322         390.313
       309.192
 88  3 22  6 35  5.0800000  0  4G 6G 9G11G13
  28239024.350 9 -29084075.659 9  19004764.455    19004766.843       -3738.490
     -2915.135
 -14731838.425 8 -13978411.540 8  16506898.562    16506900.346       -1571.219
     -1214.826
   -267947.385 9   -254393.531 9  17945282.021    17945286.853       -1956.173
     -1527.037
 -31700127.785 9   4909669.739 9  16887896.485    16887899.730         390.432
       313.510
 88  3 22  6 35 35.0800000  0  4G 6G 9G11G13
  28351397.703 9 -28996512.042 9  19026147.764    19026149.990       -3749.702
     -2916.123
 -14684563.202 9 -13941573.715 8  16515894.398    16515895.731       -1575.119
     -1235.263
   -208862.583 9   -208353.436 9  17956526.974    17956529.822       -1969.172
     -1540.857
 -31711615.779 9   4900718.055 9  16885711.311    16885714.076         371.764
       301.828
 88  3 22  6 36  5.0800000  0  4G 6G 9G11G13
  28464065.502 9 -28908718.986 8  19047588.494    19047590.097       -3775.730
     -2929.551
 -14636652.004 9 -13904240.320 7  16525011.387    16525012.716       -1610.987
     -1271.011
   -149640.048 9   -162206.008 9  17967796.623    17967799.637       -1966.684
     -1536.743
 -31722738.036 9   4892051.377 8  16883594.760    16883597.655         344.867
       291.557
 88  3 22  6 36 35.0800000  0  4G 6G 9G11G13
  28577024.944 9 -28820698.669 9  19069083.228    19069086.746       -3763.705
     -2935.236
 -14588105.553 8 -13866411.948 7  16534249.898    16534251.307       -1620.732
     -1264.611
    -90281.258 9   -115952.404 9  17979093.267    17979096.401       -1976.061
     -1546.008
 -31733495.346 9   4883669.062 8  16881546.417    16881550.091         343.910
       271.611
 88  3 22  6 37  5.0800000  0  4G 6G 9G11G13
  28690273.217 9 -28732453.285 9  19090633.971    19090637.284       -3781.815
     -2939.866
 -14538925.440 9 -13828089.801 8  16543607.557    16543610.376       -1660.301
     -1274.466
    -30788.117 9    -69594.111 9  17990414.180    17990416.746       -1981.923
     -1539.571
 -31743888.844 9   4875570.234 8  16879569.146    16879573.546         338.057
       254.287
 88  3 22  6 37 35.0800000  0  4G 6G 9G11G13
  28803807.342 9 -28643985.161 8  19112238.395    19112241.369       -3788.043
     -2952.610
 -14489112.880 8 -13789274.828 8  16553087.576    16553088.437       -1668.730
     -1304.671
     28837.326 9    -23132.732 9  18001760.371    18001762.813       -1982.513
     -1547.934
 -31753920.216 9   4867753.589 8  16877661.652    16877664.043         333.216
       248.551
 88  3 22  6 38  5.0800000  0  4G 6G 9G11G13
  28917624.367 8 -28555296.596 8  19133896.614    19133900.046       -3798.314
     -2943.209
 -14438669.305 8 -13749968.170 8  16562686.041    16562688.354       -1702.382
     -1319.130
     88593.448 9     23430.478 9  18013131.053    18013133.942       -1977.569
     -1551.215
 -31763590.902 9   4860218.001 8  16875821.296    16875824.023         308.887
       241.785
 88  3 22  6 38 35.0800000  0  4G 6G 9G11G13
  29031721.457 9 -28466389.802 9  19155609.133    19155612.365       -3802.947
     -2963.186
 -14387595.913 8 -13710170.738 8  16572405.721    16572406.788       -1712.852
     -1327.637
    148478.540 8     70094.184 9  18024527.074    18024530.050       -2001.811
     -1551.706
 -31772901.808 9   4852962.759 8  16874049.857    16874051.142         310.242
       234.595
 88  3 22  6 39  5.0800000  0  4G 6G 9G11G13
  29146095.709 9 -28377267.047 9  19177373.551    19177377.259       -3812.428
     -2977.328
 -14335894.267 9 -13669883.764 8  16582244.155    16582246.095       -1738.290
     -1351.977
    208490.908 8    116857.044 8  18035946.953    18035949.096       -2005.854
     -1560.300
 -31781854.214 9   4845986.874 8  16872345.558    16872347.320         287.188
       221.714
 88  3 22  6 39 35.0800000  0  4G 6G 9G11G13
  29260743.772 9 -28287930.920 9  19199189.913    19199193.914       -3814.836
     -2986.792
 -14283566.299 8 -13629108.747 7  16592201.642    16592203.084       -1739.143
     -1375.278
    268628.643 8    163717.610 9  18047390.345    18047393.857       -2012.082
     -1563.363
 -31790450.651 9   4839288.358 8  16870709.992    16870712.226         283.696
       210.368
 88  3 22  6 40  5.0800000  0  4G 6G 9G11G13
  29375663.154 9 -28198383.382 9  19221059.519    19221062.271       -3837.515
     -2979.534
 -14230612.804 9 -13587846.300 8  16602277.924    16602279.472       -1771.368
     -1386.513
    328890.130 9    210674.603 9  18058857.865    18058860.322       -1993.039
     -1571.926
 -31798691.223 9   4832867.136 9  16869141.098    16869144.539         273.800
       213.189
 88  3 22  6 40 35.0800000  0  4G 6G 9G11G13
  29490850.702 8 -28108626.883 9  19242977.736    19242981.582       -3826.694
     -2998.723
 -14177035.679 9 -13546097.900 7  16612473.886    16612475.622       -1798.074
     -1404.769
    389273.236 9    257726.366 9  18070349.597    18070351.151       -2012.050
     -1570.913
 -31806577.484 9   4826722.001 8  16867640.260    16867643.138         263.768
       193.789
 88  3 22  6 41  5.0800000  0  4G 6G 9G11G13
  29606303.707 8 -28018663.516 8  19264948.722    19264951.591       -3850.697
     -2995.690
 -14122836.206 9 -13503864.570 8  16622787.859    16622789.487       -1822.124
     -1406.360
    449776.587 9    304871.826 9  18081862.623    18081865.279       -2018.772
     -1575.176
 -31814111.140 8   4820851.644 8  16866206.859    16866210.539         243.098
       194.914
 88  3 22  6 41 35.0800000  0  4G 6G 9G11G13
  29722018.975 8 -27928495.805 9  19286969.055    19286971.883       -3873.647
     -2999.170
 -14068016.229 9 -13461147.727 7  16633219.615    16633221.282       -1823.592
     -1420.583
    510398.687 9    352109.823 9  18093398.820    18093400.712       -2012.903
     -1582.899
 -31821293.987 9   4815254.624 9  16864839.544    16864844.064         226.894
       189.893
 88  3 22  6 42  5.0800000  0  4G 6G 9G11G13
  29837993.572 9 -27838126.019 9  19309037.581    19309041.466       -3879.086
     -3015.301
 -14012577.088 9 -13417948.409 8  16643769.127    16643771.748       -1859.397
     -1455.337
    571137.626 9    399438.867 9  18104957.410    18104959.191       -2038.405
     -1582.825
 -31828126.731 9   4809930.419 9  16863539.738    16863542.084         213.729
       178.031
 88  3 22  6 42 35.0800000  0  4G 6G 9G11G13
  29954224.590 8 -27747556.420 9  19331155.332    19331159.347       -3861.295
     -3024.193
 -13956520.427 9 -13374267.920 8  16654436.379    16654439.710       -1876.462
     -1450.645
    631991.779 9    446857.692 8  18116537.642    18116539.442       -2028.612
     -1591.481
 -31834610.601 9   4804878.063 9  16862306.272    16862308.674         195.635
       164.230
 88  3 22  6 43  5.0800000  0  4G 6G 9G11G13
  30070709.336 7 -27656789.107 9  19353321.933    19353326.018       -3892.865
     -3028.946
 -13899847.714 9 -13330107.375 8  16665220.981    16665223.852       -1892.307
     -1466.509
    692959.675 9    494365.138 9  18128138.710    18128141.103       -2025.319
     -1576.189
 -31840747.105 9   4800096.377 9  16861138.253    16861142.052         177.549
       156.239
 88  3 22  6 43 35.0800000  0  4G 6G 9G11G13
  30187444.578 9 -27565826.584 9  19375536.683    19375539.800       -3893.304
     -3033.116
 -13842560.711 9 -13285468.164 9  16676121.852    16676124.807       -1916.349
     -1490.382
    754039.253 9    541959.601 9  18139762.127    18139763.916       -2034.322
     -1578.301
 -31846537.714 9   4795584.219 8  16860036.924    16860039.473         192.876
       140.021
 88  3 22  6 44  5.0800000  0  4G 6G 9G11G13
  30304427.027 9 -27474671.461 9  19397797.264    19397800.498       -3904.580
     -3027.057
 -13784661.588 9 -13240351.985 8  16687139.743    16687142.096       -1938.845
     -1510.577
    815228.561 9    589639.569 8  18151404.560    18151407.984       -2038.604
     -1604.517
 -31851984.561 9   4791339.937 9  16858999.794    16859002.299         188.570
       146.036
 88  3 22  6 44 35.0800000  0  4G 6G 9G11G13
  30421654.091 9 -27383325.713 9  19420104.164    19420108.846       -3904.971
     -3050.253
 -13726151.600 9 -13194759.801 8  16698273.745    16698276.406       -1953.167
     -1537.999
    876526.358 9    637404.069 9  18163070.022    18163073.211       -2046.324
     -1592.804
 -31857088.081 9   4787363.177 9  16858029.549    16858031.154         169.654
       140.425
 88  3 22  6 45  5.0800000  0  4G 6G 9G11G13
  30539122.564 8 -27291791.864 9  19442458.515    19442461.866       -3927.498
     -3048.967
 -13667032.675 9 -13148693.126 8  16709525.202    16709526.251       -1978.589
     -1549.196
    937930.862 9    685251.722 9  18174754.508    18174758.360       -2047.225
     -1581.918
 -31861850.268 9   4783652.386 9  16857123.035    16857125.379         151.497
       112.140
 88  3 22  6 45 35.0800000  0  4G 6G 9G11G13
  30656829.461 8 -27200072.232 8  19464856.379    19464860.433       -3920.058
     -3061.612
 -13607306.673 8 -13102153.395 9  16720889.437    16720891.778       -2010.622
     -1557.908
    999440.431 9    733181.264 9  18186459.244    18186463.196       -2051.276
     -1599.074
 -31866272.151 9   4780206.773 8  16856280.973    16856283.669         150.994
       110.021
 88  3 22  6 46  5.0800000  0  4G 6G 9G11G13
  30774771.726 8 -27108169.198 8  19487300.385    19487303.664       -3945.265
     -3062.258
 -13546975.310 8 -13055141.961 8  16732370.861    16732372.546       -2023.756
     -1564.482
   1061053.676 9    781191.574 9  18198184.029    18198187.159       -2048.899
     -1593.668
 -31870356.012 9   4777024.555 8  16855504.121    16855506.934         128.363
       109.791
 88  3 22  6 46 35.0800000  0  4G 6G 9G11G13
  30892946.526 9 -27016084.966 9  19509788.306    19509792.514       -3947.793
     -3066.279
 -13486040.239 9 -13007660.104 9  16743965.426    16743968.586       -2042.512
     -1577.046
   1122768.705 9    829281.199 9  18209928.535    18209931.602       -2052.057
     -1612.334
 -31874102.706 9   4774105.065 8  16854791.866    16854793.743         128.706
        98.314
 88  3 22  6 47  5.0800000  0  4G 6G 9G11G13
  31011350.914 9 -26923821.853 9  19532320.475    19532323.883       -3958.901
     -3071.070
 -13424503.474 9 -12959709.399 8  16755676.403    16755678.924       -2049.729
     -1600.000
   1184584.157 9    877449.088 9  18221690.170    18221694.335       -2049.617
     -1605.443
 -31877513.339 9   4771447.450 9  16854143.140    16854144.496         104.536
        83.886
 88  3 22  6 47 35.0800000  0  4G 6G 9G11G13
  31129981.418 9 -26831382.518 9  19554895.063    19554898.569       -3937.610
     -3091.538
 -13362367.071 8 -12911291.463 7  16767499.560    16767501.818       -2076.722
     -1606.947
   1246497.897 9    925693.555 8  18233473.023    18233476.541       -2056.738
     -1599.670
 -31880590.404 8   4769049.751 8  16853556.992    16853560.181          96.139
        87.310
 88  3 22  6 48  5.0800000  0  4G 6G 9G11G13
  31248835.318 8 -26738769.105 8  19577512.927    19577515.704       -3960.400
     -3091.066
 -13299632.875 8 -12862407.686 7  16779438.348    16779439.815       -2102.718
     -1633.815
   1308508.488 9    974013.484 9  18245272.799    18245276.386       -2072.471
     -1618.678
 -31883334.510 9   4766911.500 9  16853034.432    16853037.043          84.066
        57.260
 88  3 22  6 48 35.0800000  0  4G 6G 9G11G13
  31367909.671 9 -26645983.906 8  19600171.639    19600173.803       -3972.354
     -3102.710
 -13236302.617 9 -12813059.455 8  16791489.032    16791492.306       -2108.444
     -1658.627
   1370614.588 9   1022407.831 9  18257091.657    18257093.804       -2077.687
     -1610.358
 -31885747.317 9   4765031.395 8  16852575.487    16852579.004          68.611
        58.279
 88  3 22  6 49  5.0800000  0  4G 6G 9G11G13
  31487201.579 9 -26553029.197 8  19622872.147    19622875.432       -3974.443
     -3091.619
 -13172378.234 9 -12763248.265 9  16803653.257    16803656.069       -2147.422
     -1672.049
   1432814.800 9   1070875.514 9  18268927.848    18268931.401       -2074.226
     -1616.765
 -31887830.323 9   4763408.276 8  16852178.887    16852181.316          68.755
        48.853
 88  3 22  6 49 35.0800000  0  4G 6G 9G11G13
  31606707.541 9 -26459907.676 8  19645613.141    19645616.199       -3985.304
     -3101.735
 -13107862.223 9 -12712976.053 8  16815930.645    16815933.280       -2149.201
     -1683.003
   1495107.123 9   1119414.975 9  18280781.972    18280784.866       -2074.951
     -1617.075
 -31889585.249 9   4762040.799 9  16851844.512    16851847.101          56.546
        39.843
 88  3 22  6 50  5.0800000  0  4G 6G 9G11G13
  31726424.956 9 -26366621.382 9  19668395.553    19668397.347       -3999.833
     -3105.867
 -13042755.934 8 -12662243.907 8  16828320.038    16828322.619       -2164.057
     -1687.906
   1557490.154 9   1168025.132 9  18292653.048    18292656.254       -2069.481
     -1617.982
 -31891013.251 9   4760928.084 9  16851572.398    16851576.159          52.057
        43.851
 88  3 22  6 50 35.0800000  0  4G 6G 9G11G13
  31846350.674 9 -26273172.770 9  19691215.798    19691219.326       -3995.320
     -3106.215
 -12977061.574 9 -12611053.502 7  16840822.536    16840822.767       -2210.906
     -1702.148
   1619962.494 9   1216704.854 9  18304540.480    18304544.763       -2068.508
     -1626.831
 -31892115.888 9   4760068.896 8  16851362.367    16851365.598          30.901
        28.428
 88  3 22  6 51  5.0800000  0  4G 6G 9G11G13
  31966481.804 9 -26179564.086 9  19714076.385    19714078.466       -3992.920
     -3125.266
 -12910781.207 9 -12559406.487 8  16853434.300    16853435.513       -2222.844
     -1722.747
   1682522.429 9   1265452.852 9  18316445.014    18316448.764       -2078.572
     -1624.358
 -31892894.317 9   4759462.332 9  16851214.185    16851217.725          19.689
         8.401
 88  3 22  6 51 35.0800000  0  4G 6G 9G11G13
  32086815.242 9 -26085797.766 8  19736975.555    19736977.737       -4009.482
     -3119.655
 -12843916.999 8 -12507304.518 7  16866157.443    16866160.199       -2238.832
     -1735.553
   1745168.445 9   1314267.919 8  18328367.645    18328370.610       -2092.918
     -1630.609
 -31893350.318 9   4759107.005 9  16851129.087    16851130.887          18.756
        -2.237
 88  3 22  6 52  5.0800000  0  4G 6G 9G11G13
  32207347.884 9 -25991876.243 9  19759911.627    19759914.100       -4011.293
     -3124.110
 -12776470.859 8 -12454749.104 8  16878992.487    16878993.512       -2250.316
     -1747.627
   1807898.957 8   1363148.821 9  18340304.690    18340306.857       -2094.704
     -1627.893
 -31893485.527 9   4759001.646 8  16851102.465    16851105.721          -2.719
        -2.573
 88  3 22  6 52 35.0800000  0  4G 6G 9G11G13
  32328076.708 8 -25897801.850 8  19782884.397    19782888.128       -4017.226
     -3129.405
 -12708445.072 8 -12401742.027 8  16891937.852    16891938.844       -2284.055
     -1754.754
   1870712.721 9   1412094.613 9  18352257.197    18352260.095       -2085.621
     -1633.101
 -31893301.248 9   4759145.244 9  16851138.134    16851140.512          -7.879
        -2.852
 88  3 22  6 53  5.0800000  0  4G 6G 9G11G13
  32448998.347 8 -25803577.223 9  19805895.686    19805898.726       -4033.294
     -3137.451
 -12639842.009 9 -12348285.108 8  16904992.026    16904994.774       -2285.722
     -1789.396
   1933607.796 9   1461103.759 8  18364226.107    18364228.726       -2094.265
     -1623.550
 -31892799.968 9   4759535.862 9  16851232.775    16851236.039         -24.984
       -20.959
 88  3 22  6 53 35.0800000  0  4G 6G 9G11G13
  32570110.032 8 -25709204.522 9  19828942.288    19828946.615       -4049.131
     -3144.914
 -12570663.689 9 -12294379.949 7  16918156.375    16918159.283       -2318.353
     -1809.212
   1996583.098 9   1510175.420 9  18376210.273    18376212.042       -2107.925
     -1630.534
 -31891982.254 9   4760173.047 9  16851387.927    16851391.173         -25.016
       -33.791
 88  3 22  6 54  5.0800000  0  4G 6G 9G11G13
  32691408.834 8 -25614686.009 9  19852022.378    19852027.870       -4043.900
     -3152.222
 -12500912.197 9 -12240028.144 8  16931429.444    16931432.258       -2337.077
     -1814.698
   2059636.981 9   1559308.302 9  18388207.690    18388211.668       -2092.320
     -1637.444
 -31890849.882 9   4761055.417 8  16851604.466    16851607.355         -49.345
       -37.426
 88  3 22  6 54 35.0800000  0  4G 6G 9G11G13
  32812891.645 8 -25520024.120 9  19875140.843    19875145.059       -4038.086
     -3146.263
 -12430589.780 9 -12185231.465 8  16944811.783    16944813.471       -2362.307
     -1824.759
   2122767.905 9   1608501.209 9  18400221.382    18400225.066       -2101.849
     -1633.958
 -31889404.260 9   4762181.901 8  16851879.113    16851881.490         -46.235
       -40.912
 88  3 22  6 55  5.0800000  0  4G 6G 9G11G13
  32934555.132 8 -25425221.432 9  19898294.376    19898298.004       -4059.530
     -3156.764
 -12359698.911 8 -12129991.855 8  16958302.072    16958303.945       -2358.599
     -1825.573
   2185974.318 9   1657752.953 9  18412250.129    18412252.775       -2114.720
     -1644.658
 -31887647.523 9   4763550.792 9  16852214.196    16852216.317         -61.259
       -34.953
 88  3 22  6 55 35.0800000  0  4G 6G 9G11G13
  33056396.655 8 -25330280.018 9  19921478.766    19921483.314       -4067.879
     -3169.869
 -12288241.201 9 -12074310.531 8  16971898.860    16971900.929       -2390.138
     -1859.842
   2249254.990 9   1707062.563 9  18424291.731    18424294.452       -2125.182
     -1643.546
 -31885580.581 9   4765161.397 8  16852607.487    16852609.703         -83.212
       -53.128
 88  3 22  6 56  5.0800000  0  4G 6G 9G11G13
  33178412.965 8 -25235202.399 9  19944698.298    19944703.143       -4065.885
     -3181.712
 -12216219.624 9 -12018189.841 8  16985605.286    16985606.329       -2410.752
     -1863.999
   2312608.450 9   1756428.883 9  18436347.351    18436350.594       -2112.965
     -1634.312
 -31883205.585 9   4767012.053 9  16853060.039    16853060.901         -83.882
       -58.627
 88  3 22  6 56 35.0800000  0  4G 6G 9G11G13
  33300601.014 9 -25139990.969 9  19967949.781    19967954.460       -4077.536
     -3179.482
 -12143636.101 9 -11961631.277 7  16999416.266    16999419.322       -2431.158
     -1889.183
   2376033.284 9   1805850.837 9  18448417.251    18448419.154       -2111.905
     -1649.486
 -31880523.147 9   4769102.272 8  16853569.485    16853571.742         -88.396
       -83.004
 88  3 22  6 57  5.0800000  0  4G 6G 9G11G13
  33422958.069 9 -25044647.836 9  19991234.651    19991238.401       -4091.347
     -3173.237
 -12070492.842 9 -11904636.558 9  17013335.782    17013338.778       -2454.204
     -1910.788
   2439528.295 8   1855327.457 9  18460500.861    18460501.917       -2132.255
     -1643.906
 -31877534.762 9   4771430.867 9  16854138.098    16854140.705         -98.499
       -80.183
 88  3 22  6 57 35.0800000  0  4G 6G 9G11G13
  33545480.567 8 -24949175.762 9  20014548.526    20014553.570       -4083.700
     -3178.568
 -11996792.661 9 -11847207.856 9  17027360.650    17027361.977       -2470.751
     -1918.264
   2503091.579 9   1904857.277 9  18472594.767    18472598.323       -2108.922
     -1665.307
 -31874242.318 9   4773996.420 9  16854764.275    16854766.909        -108.722
       -93.903
 88  3 22  6 58  5.0800000  0  4G 6G 9G11G13
  33668165.666 9 -24853576.993 9  20037894.986    20037899.407       -4082.400
     -3203.113
 -11922537.645 9 -11789346.834 8  17041490.711    17041493.750       -2488.446
     -1939.415
   2566722.190 9   1954439.555 9  18484704.848    18484706.754       -2128.427
     -1645.522
 -31870647.533 9   4776797.552 8  16855448.635    16855452.210        -127.741
      -104.255
 88  3 22  6 58 35.0800000  0  4G 6G 9G11G13
  33791010.469 9 -24757853.750 8  20061271.926    20061275.596       -4091.323
     -3182.800
 -11847730.114 9 -11731055.271 8  17055726.812    17055728.904       -2520.806
     -1938.937
   2630418.434 9   2004072.992 8  18496824.939    18496827.069       -2130.868
     -1656.576
 -31866751.950 9   4779833.075 9  16856190.330    16856192.954        -121.266
      -104.671
 88  3 22  6 59  5.0800000  0  4G 6G 9G11G13
  33914011.740 9 -24662008.599 8  20084678.399    20084682.239       -4097.854
     -3203.287
 -11772372.584 9 -11672335.143 8  17070066.923    17070068.436       -2524.641
     -1954.428
   2694179.080 9   2053756.612 9  18508959.103    18508960.348       -2134.105
     -1654.762
 -31862557.331 9   4783101.621 8  16856986.987    16856990.312        -135.787
      -103.174
 88  3 22  6 59 35.0800000  0  4G 6G 9G11G13
  34037166.258 9 -24566044.040 9  20108114.245    20108117.775       -4103.939
     -3214.968
 -11696467.673 8 -11613188.472 8  17084511.328    17084513.514       -2536.619
     -1964.743
   2758002.472 9   2103489.117 8  18521103.474    18521105.217       -2127.702
     -1654.861
 -31858064.774 9   4786602.312 7  16857841.766    16857845.694        -151.888
      -109.064
 88  3 22  7  0  5.0800000  0  4G 6G 9G11G13
  34160471.186 8 -24469962.304 9  20131577.066    20131581.908       -4116.881
     -3199.210
 -11620017.667 9 -11553617.060 8  17099058.552    17099061.186       -2571.212
     -2005.698
   2821887.463 9   2153269.624 8  18533260.002    18533262.264       -2120.525
     -1659.621
 -31853276.081 9   4790333.774 8  16858754.836    16858755.930        -163.905
      -120.883
 88  3 22  7  0 35.0800000  0  4G 6G 9G11G13
  34283923.539 9 -24373765.694 8  20155070.457    20155075.081       -4114.250
     -3213.657
 -11543025.051 9 -11493622.833 9  17113710.525    17113711.475       -2569.505
     -2002.398
   2885832.848 9   2203097.190 8  18545429.569    18545430.296       -2136.681
     -1661.404
 -31848192.772 9   4794294.798 8  16859721.652    16859724.369        -175.061
      -119.348
 88  3 22  7  1  5.0800000  0  4G 6G 9G11G13
  34407520.114 8 -24277456.690 9  20178589.777    20178593.849       -4088.389
     -3202.056
 -11465492.297 9 -11433207.722 8  17128464.116    17128465.777       -2603.883
     -2022.842
   2949837.054 9   2252970.587 8  18557608.306    18557611.359       -2134.408
     -1657.372
 -31842816.726 9   4798483.941 9  16860744.445    16860747.796        -180.571
      -146.484
 88  3 22  7  1 35.0800000  0  4G 6G 9G11G13
  34531257.986 8 -24181037.581 8  20202135.582    20202140.534       -4145.350
     -3215.335
 -11387421.534 9 -11372373.364 8  17143320.316    17143321.325       -2618.372
     -2015.596
   3013899.101 9   2302889.039 9  18569798.533    18569801.513       -2133.722
     -1661.740
 -31837148.577 9   4802900.698 8  16861822.450    16861825.367        -186.608
      -124.711
 88  3 22  7  2  5.0800000  0  3G 9G11G13
 -11308815.611 9 -11311122.020 8  17158279.006    17158280.941       -2622.247
     -2049.020
   3078017.718 8   2352851.580 9  18581999.982    18582002.902       -2146.314
     -1661.616
 -31831190.606 9   4807543.274 9  16862957.394    16862959.570        -210.643
      -154.773
 88  3 22  7  2 35.0800000  0  4G 3G 9G11G13
 -72119654.728 8 -23817079.962 8                                      2145.517
     -3221.816
 -11229677.066 9 -11249455.638 7  17173338.609    17173340.039       -2633.922
     -2051.381
   3142191.320 8   2402856.964 9  18594211.106    18594214.749       -2156.633
     -1669.849
 -31824944.319 9   4812410.513 8  16864145.649    16864148.703        -228.457
      -176.757
 88  3 22  7  3  5.0800000  0  4G 3G 9G11G13
 -72183564.681 9  91409564.701 8  19353685.686    19353689.318        2132.231
      1665.829
 -11150008.447 9 -11187376.198 8  17188498.900    17188500.305       -2668.052
     -2068.258
   3206418.750 9   2452904.299 9  18606433.248    18606436.826       -2130.166
     -1665.126
 -31818411.538 9   4817500.988 9  16865389.347    16865392.069        -220.164
      -179.168
 88  3 22  7  3 35.0800000  0  4G 3G 9G11G13
 -72247257.983 9  91359933.580 8  19341564.775    19341567.937        2121.777
      1670.110
 -11069812.319 9 -11124885.729 8  17203758.552    17203761.799       -2694.080
     -2089.379
   3270698.438 8   2502992.347 9  18618665.673    18618668.795       -2150.421
     -1659.223
 -31811593.255 9   4822813.949 8  16866686.615    16866688.427        -236.216
      -179.199
 88  3 22  7  4  5.0800000  0  4G 3G 9G11G13
 -72310733.275 9  91310472.344 9  19329487.303    19329489.271        2111.610
      1654.178
 -10989091.647 9 -11061986.525 8  17219119.312    17219121.977       -2708.171
     -2109.257
   3335029.224 9   2553120.215 9  18630907.268    18630910.817       -2139.209
     -1657.378
 -31804491.352 9   4828347.898 9  16868037.714    16868039.481        -244.063
      -188.501
 88  3 22  7  4 35.0800000  0  4G 3G 9G11G13
 -72373990.890 9  91261180.713 9  19317449.575    19317452.217        2116.713
      1636.810
 -10907848.748 9 -10998680.390 8  17234579.916    17234581.641       -2720.515
     -2121.349
   3399409.718 9   2603286.812 9  18643158.258    18643162.077       -2144.863
     -1669.812
 -31797107.654 9   4834101.433 9  16869442.922    16869445.326        -268.289
      -194.995
 88  3 22  7  5  5.0800000  0  4G 3G 9G11G13
 -72437030.722 9  91212058.784 9  19305453.068    19305456.084        2089.489
      1633.560
 -10826086.422 9 -10934969.503 8  17250138.506    17250140.604       -2732.118
     -2123.287
   3463838.620 9   2653491.152 9  18655419.258    18655422.533       -2144.592
     -1668.066
 -31789443.261 9   4840073.689 9  16870900.869    16870904.162        -248.704
      -203.141
 88  3 22  7  5 35.0800000  0  4G 3G 9G11G13
 -72499852.622 9  91163106.682 9  19293499.195    19293501.162        2099.600
      1628.788
 -10743806.933 9 -10870855.628 8  17265796.382    17265797.701       -2747.907
     -2154.443
   3528315.037 9   2703732.510 9  18667688.654    18667692.443       -2152.079
     -1674.360
 -31781499.949 9   4846263.279 9  16872412.736    16872415.647        -267.914
      -211.449
 88  3 22  7  6  5.0800000  0  4G 3G 9G11G13
 -72562457.502 9  91114323.676 9  19281584.931    19281587.708        2094.975
      1630.957
 -10661013.085 9 -10806340.958 7  17281551.967    17281552.553       -2775.451
     -2155.916
   3592837.877 9   2754010.029 9  18679965.791    18679970.693       -2142.072
     -1670.750
 -31773279.156 9   4852669.097 9  16873977.384    16873980.083        -282.515
      -216.420
 88  3 22  7  6 35.0800000  0  4G 3G 9G11G13
 -72624846.042 8  91065709.262 8  19269712.317    19269715.454        2066.499
      1624.414
 -10577707.941 9 -10741427.881 7  17297405.011    17297406.743       -2790.961
     -2166.597
   3657405.610 9   2804322.528 9  18692253.676    18692257.026       -2146.497
     -1676.373
 -31764782.820 9   4859289.624 8  16875593.953    16875595.650        -275.618
      -208.659
 88  3 22  7  7  5.0800000  0  4G 3G 9G11G13
 -72687018.119 8  91017263.525 8  19257880.558    19257884.589        2061.985
      1611.806
 -10493894.300 9 -10676118.559 7  17313353.494    17313354.875       -2798.600
     -2176.477
   3722016.730 9   2854668.824 9  18704549.081    18704551.875       -2153.411
     -1663.865
 -31756013.048 9   4866123.221 9  16877262.961    16877266.252        -285.506
      -239.019
 88  3 22  7  7 35.0800000  0  4G 3G 9G11G13
 -72748973.689 8  90968986.486 9  19246091.104    19246095.308        2050.765
      1601.143
 -10409574.355 9 -10610414.723 8  17329398.712    17329400.848       -2807.827
     -2191.906
   3786670.526 9   2905048.396 9  18716853.368    18716854.714       -2145.341
     -1676.746
 -31746970.614 9   4873169.285 8  16878983.523    16878985.588        -303.480
      -239.914
 88  3 22  7  8  5.0800000  0  4G 3G 9G11G13
 -72810713.087 8  90920877.886 7  19234343.270    19234346.774        2058.947
      1588.740
 -10324751.171 9 -10544318.750 8  17345540.084    17345541.470       -2830.753
     -2213.816
   3851365.626 9   2955460.150 9  18729164.098    18729167.183       -2159.615
     -1670.365
 -31737657.179 9   4880426.510 9  16880755.073    16880758.372        -313.815
      -243.357
 88  3 22  7  8 35.0800000  0  4G 3G 9G11G13
 -72872236.514 9  90872937.592 8  19222635.442    19222639.538        2048.780
      1588.200
 -10239427.525 9 -10477832.805 8  17361776.448    17361777.578       -2838.568
     -2220.570
   3916100.717 9   3005903.064 9  18741482.119    18741485.202       -2165.532
     -1679.474
 -31728073.723 9   4887894.152 9  16882578.942    16882580.804        -319.987
      -262.644
 88  3 22  7  9  5.0800000  0  4G 3G 9G11G13
 -72933544.323 9  90825165.274 8  19210969.004    19210972.936        2052.488
      1583.776
 -10153605.826 9 -10410958.772 7  17378108.832    17378110.368       -2876.574
     -2221.819
   3980874.703 9   3056376.302 9  18753808.681    18753811.137       -2176.569
     -1683.140
 -31718222.461 8   4895570.450 8  16884453.523    16884456.872        -314.963
      -262.725
 88  3 22  7  9 35.0800000  0  4G 3G 9G11G13
 -72994636.656 8  90777560.879 8  19199342.792    19199346.496        2033.269
      1586.634
 -10067289.239 9 -10343699.109 9  17394532.708    17394534.257       -2884.516
     -2236.490
   4045686.755 9   3106879.182 9  18766141.290    18766144.688       -2156.784
     -1687.875
 -31708105.084 9   4903454.125 9  16886379.101    16886382.354        -333.312
      -266.230
 88  3 22  7 10  5.0800000  0  4G 3G 9G11G13
 -73055514.193 8  90730123.874 9  19187759.820    19187762.057        2019.035
      1586.690
  -9980480.461 9 -10276055.914 8  17411053.210    17411054.088       -2911.932
     -2258.630
   4110535.488 9   3157410.643 9  18778480.994    18778484.584       -2152.542
     -1687.595
 -31697723.480 9   4911543.699 8  16888354.245    16888356.241        -334.277
      -259.556
 88  3 22  7 10 35.0800000  0  4G 3G 9G11G13
 -73116176.747 9  90682854.371 9  19176215.564    19176218.803        2006.531
      1573.504
  -9893182.147 9 -10208031.281 9  17427664.194    17427666.586       -2908.391
     -2264.185
   4175419.688 9   3207969.751 9  18790828.691    18790831.803       -2156.944
     -1688.459
 -31687078.447 9   4919838.524 8  16890380.584    16890383.060        -343.814
      -284.001
 88  3 22  7 11  5.0800000  0  4G 3G 9G11G13
 -73176624.763 9  90635752.054 9  19164714.346    19164715.140        2006.635
      1572.162
  -9805397.402 9 -10139627.603 9  17444370.250    17444372.721       -2934.731
     -2279.931
   4240338.440 9   3258555.777 9  18803182.161    18803185.462       -2164.312
     -1689.230
 -31676171.785 9   4928337.232 8  16892454.859    16892458.098        -364.452
      -284.610
 88  3 22  7 11 35.0800000  0  4G 3G 9G11G13
 -73236858.959 9  90588816.335 9  19153251.128    19153253.277        2007.297
      1560.791
  -9717128.996 9 -10070847.033 8  17461166.095    17461169.113       -2950.456
     -2306.352
   4305290.609 9   3309167.858 9  18815542.694    18815545.430       -2159.870
     -1667.015
 -31665005.105 9   4937038.550 8  16894580.528    16894582.866        -373.774
      -294.993
 88  3 22  7 12  5.0800000  0  4G 3G 9G11G13
 -73296879.759 9  90542046.899 9  19141829.054    19141832.323        1988.844
      1557.945
  -9628379.733 8 -10001691.771 8  17478055.024    17478058.280       -2962.665
     -2300.728
   4370275.043 9   3359805.074 8  18827909.694    18827911.864       -2180.994
     -1689.938
 -31653579.994 8   4945941.229 9  16896755.503    16896757.431        -395.424
      -302.468
 88  3 22  7 12 35.0800000  0  4G 3G 9G11G13
 -73356687.362 9  90495443.591 8  19130447.825    19130450.098        1993.653
      1558.423
  -9539152.636 9  -9932164.183 9  17495035.274    17495036.961       -2974.961
     -2327.802
   4435290.224 9   3410466.246 9  18840280.510    18840283.752       -2162.071
     -1690.286
 -31641898.190 9   4955043.934 9  16898977.827    16898980.266        -395.289
      -309.925
 88  3 22  7 13  5.0800000  0  4G 3G 9G11G13
 -73416281.900 9  90449006.296 8  19119108.244    19119110.335        1990.224
      1547.369
  -9449450.536 9  -9862266.461 8  17512104.324    17512106.852       -2992.154
     -2333.270
   4500335.429 9   3461150.793 9  18852658.802    18852661.410       -2162.677
     -1687.036
 -31629960.964 9   4964345.672 8  16901249.198    16901251.854        -391.724
      -300.865
 88  3 22  7 13 35.0800000  0  4G 3G 9G11G13
 -73475663.543 9  90402734.904 8  19107807.589    19107809.811        1974.554
      1533.668
  -9359276.108 9  -9792000.687 9  17529263.340    17529266.339       -3020.973
     -2347.344
   4565409.592 8   3511857.913 8  18865041.321    18865044.691       -2156.601
     -1703.826
 -31617769.770 9   4973845.314 8  16903569.414    16903571.364        -391.469
      -314.101
 88  3 22  7 14  5.0800000  0  4G 3G 9G11G13
 -73534832.862 9  90356628.960 9  19096548.474    19096550.203        1983.749
      1531.841
  -9268632.663 8  -9721369.452 8  17546513.885    17546515.421       -3024.705
     -2344.448
   4630511.721 8   3562586.823 9  18877429.774    18877433.705       -2156.505
     -1698.047
 -31605326.708 9   4983541.215 8  16905937.481    16905940.101        -414.148
      -334.364
 88  3 22  7 14 35.0800000  0  4G 3G 9G11G13
 -73593790.338 9  90310688.077 9  19085329.212    19085331.433        1965.862
      1526.975
  -9177523.066 9  -9650374.977 8  17563850.551    17563853.245       -3038.868
     -2366.886
   4695640.955 9   3613336.867 9  18889824.450    18889827.126       -2177.438
     -1689.938
 -31592633.470 9   4993432.048 8  16908353.281    16908355.249        -425.990
      -328.243
 88  3 22  7 15  5.0800000  0  4G 3G 9G11G13
 -73652536.547 8  90264911.832 8  19074149.949    19074153.274        1964.523
      1525.403
  -9085950.393 9  -9579019.667 9  17581275.666    17581278.332       -3066.929
     -2376.518
   4760795.926 9   3664106.952 9  18902222.818    18902225.300       -2172.366
     -1684.731
 -31579691.425 9   5003516.755 8  16910815.563    16910817.469        -410.600
      -331.021
 88  3 22  7 15 35.0800000  0  4G 3G 9G11G13
 -73711071.798 9  90219299.973 9  19063011.219    19063013.147        1945.400
      1523.228
  -8993916.913 9  -9507305.295 8  17598789.470    17598792.275       -3083.006
     -2393.015
   4825975.816 9   3714896.482 9  18914624.625    18914629.265       -2163.578
     -1699.315
 -31566501.927 9   5013794.292 9  16913324.967    16913327.588        -436.596
      -321.271
 88  3 22  7 16  5.0800000  0  4G 3G 9G11G13
 -73769396.083 9  90173852.503 8  19051911.941    19051914.657        1948.071
      1505.451
  -8901426.796 9  -9435235.080 8  17616390.412    17616392.552       -3101.993
     -2413.229
   4891179.393 9   3765704.435 9  18927033.331    18927035.816       -2167.310
     -1692.150
 -31553066.585 8   5024263.387 7  16915881.338    16915885.692        -445.081
      -355.254
 88  3 22  7 16 35.0800000  0  4G 3G 9G11G13
 -73827509.878 9  90128569.066 8  19040853.279    19040855.503        1949.020
      1510.248
  -8808482.304 9  -9362810.806 9  17634076.089    17634078.449       -3113.380
     -2418.442
   4956405.780 9   3816530.176 9  18939445.898    18939448.995       -2161.625
     -1690.982
 -31539386.953 9   5034922.846 8  16918485.793    16918487.331        -453.653
      -352.713
 88  3 22  7 17  5.0800000  0  4G 3G 9G11G13
 -73885413.798 9  90083449.155 8  19029834.810    19029838.080        1919.467
      1505.420
  -8715086.493 8  -9290034.861 8  17651848.690    17651851.637       -3123.308
     -2433.660
   5021653.875 8   3867372.840 9  18951861.291    18951864.987       -2180.660
     -1697.612
 -31525464.529 9   5045771.492 8  16921134.200    16921137.388        -461.253
      -383.770
 88  3 22  7 17 35.0800000  0  4G 3G 9G11G13
 -73943108.149 8  90038492.528 8  19018854.864    19018857.799        1933.064
      1503.897
  -8621242.320 8  -9216909.541 8  17669705.764    17669709.052       -3122.487
     -2450.400
   5086922.825 9   3918231.741 9  18964282.664    18964284.840       -2176.146
     -1700.675
 -31511300.873 9   5056808.110 9  16923830.365    16923832.590        -489.633
      -381.247
 88  3 22  7 18  5.0800000  0  4G 3G 9G11G13
 -74000592.951 9  89993699.195 8  19007916.741    19007919.989        1920.249
      1477.942
  -8526953.063 9  -9143437.409 9  17687650.136    17687652.209       -3139.855
     -2446.622
   5152211.602 9   3969106.088 8  18976706.271    18976709.545       -2180.891
     -1698.314
 -31496897.567 9   5068031.470 9  16926571.335    16926571.983        -469.195
      -370.478
 88  3 22  7 18 35.0800000  0  4G 3G 9G11G13
 -74057868.827 9  89949068.660 8  18997017.630    18997019.962        1907.538
      1487.841
  -8432221.756 9  -9069620.821 8  17705676.896    17705679.155       -3149.552
     -2462.566
   5217519.275 9   4019995.177 8  18989135.311    18989136.839       -2190.516
     -1690.100
 -31482256.054 9   5079440.435 8  16929356.982    16929359.542        -500.949
      -378.183
 88  3 22  7 19  5.0800000  0  4G 3G 9G11G13
 -74114936.347 9  89904600.472 8  18986157.324    18986159.979        1894.627
      1482.963
  -8337051.231 9  -8995461.993 7  17723786.948    17723789.177       -3160.349
     -2480.996
   5282844.764 9   4070898.138 9  19001565.005    19001567.507       -2176.034
     -1691.218
 -31467378.445 9   5091033.367 9  16932188.289    16932189.689        -512.097
      -388.896
 88  3 22  7 19 35.0800000  0  4G 3G 9G11G13
 -74171796.229 8  89860294.104 9  18975337.352    18975339.791        1914.771
      1482.721
  -8241444.880 9  -8920963.555 8  17741980.084    17741982.357       -3187.797
     -2481.798
   5348186.930 9   4121814.105 9  19013999.567    19014002.021       -2172.095
     -1701.974
 -31452266.141 9   5102809.194 8  16935063.782    16935066.601        -509.211
      -411.234
 88  3 22  7 20  5.0800000  0  4G 3G 9G11G13
 -74228448.504 9  89816149.490 9  18964556.156    18964560.104        1878.822
      1465.788
  -8145405.779 9  -8846127.904 8  17760256.125    17760257.268       -3213.458
     -2503.515
   5413545.167 9   4172742.599 9  19026435.624    19026439.819       -2165.413
     -1705.479
 -31436920.208 9   5114767.066 8  16937983.548    16937986.969        -503.581
      -406.425
 88  3 22  7 20 35.0800000  0  4G 3G 9G11G13
 -74284893.526 8  89772166.384 9  18953816.928    18953819.303        1883.407
      1465.142
  -8048936.739 9  -8770957.252 7  17778613.711    17778614.997       -3220.069
     -2508.150
   5478918.425 9   4223682.782 9  19038876.906    19038880.679       -2176.290
     -1697.177
 -31421342.498 9   5126905.555 9  16940948.326    16940950.126        -515.215
      -393.295
 88  3 22  7 21  5.0800000  0  4G 3G 9G11G13
 -74341132.028 9  89728344.179 8  18943114.595    18943116.851        1866.199
      1460.600
  -7952041.025 9  -8695454.107 8  17797052.016    17797053.602       -3236.991
     -2528.911
   5544305.905 8   4274634.059 9  19051319.563    19051323.040       -2187.446
     -1695.164
 -31405534.380 9   5139223.572 8  16943956.095    16943958.858        -512.616
      -410.191
 88  3 22  7 21 35.0800000  0  4G 3G 9G11G13
 -74397163.903 8  89684682.985 8  18932450.972    18932454.800        1866.885
      1445.450
  -7854721.407 9  -8619620.647 8  17815571.804    17815573.105       -3253.434
     -2535.715
   5609706.897 9   4325595.847 9  19063765.021    19063767.793       -2181.608
     -1689.745
 -31389497.092 9   5151720.152 8  16947008.322    16947011.189        -531.531
      -420.822
 88  3 22  7 22  5.0800000  0  4G 3G 9G11G13
 -74452989.816 9  89641182.290 9  18921828.712    18921830.896        1859.277
      1435.887
  -7756981.289 9  -8543459.527 7  17834170.876    17834171.794       -3265.212
     -2576.502
   5675120.350 9   4376567.351 9  19076213.102    19076215.642       -2184.830
     -1713.818
 -31373232.623 9   5164393.769 8  16950103.741    16950105.582        -545.095
      -421.077
 88  3 22  7 22 35.0800000  0  4G 3G 9G11G13
 -74508611.098 8  89597841.068 9  18911244.440    18911246.806        1877.275
      1435.689
  -7658824.170 9  -8466973.459 8  17852849.786    17852851.464       -3298.090
     -2568.710
   5740544.899 9   4427547.514 9  19088662.237    19088665.767       -2179.974
     -1700.054
 -31356742.583 9   5177243.153 9  16953241.738    16953243.989        -561.004
      -413.453
 88  3 22  7 23  5.0800000  0  4G 3G 9G11G13
 -74564027.527 8  89554659.444 8  18900697.884    18900701.526        1842.228
      1426.269
  -7560252.870 8  -8390164.660 7  17871607.019    17871609.584       -3294.231
     -2574.644
   5805980.380 8   4478536.169 8  19101113.183    19101117.950       -2179.822
     -1702.906
 -31340028.413 9   5190267.186 9  16956422.128    16956425.396        -560.884
      -444.366
 88  3 22  7 23 35.0800000  0  4G 3G 9G11G13
 -74619239.810 8  89511636.906 8  18890191.095    18890194.279        1841.303
      1425.293
  -7461270.791 9  -8313035.795 7  17890442.162    17890445.107       -3283.465
     -2586.631
   5871425.466 8   4529532.319 9  19113566.843    19113571.302       -2182.159
     -1687.769
 -31323091.783 9   5203464.560 9  16959644.954    16959647.224        -565.175
      -438.892
 88  3 22  7 24  5.0800000  0  4G 3G 9G11G13
 -74674247.948 9  89468773.435 9  18879722.918    18879727.143        1831.630
      1421.049
  -7361880.803 8  -8235589.059 8  17909356.076    17909357.716       -3336.088
     -2586.040
   5936879.388 9   4580535.359 9  19126022.854    19126027.485       -2160.564
     -1700.166
 -31305934.354 9   5216833.981 9  16962909.654    16962911.882        -564.736
      -435.133
 88  3 22  7 24 35.0800000  0  4G 3G 9G11G13
 -74729052.445 9  89426068.639 8  18869294.937    18869298.729        1824.126
      1421.186
  -7262085.919 9  -8157826.830 8  17928345.866    17928347.734       -3336.231
     -2620.589
   6002341.775 8   4631544.995 9  19138480.790    19138484.543       -2192.693
     -1708.492
 -31288556.737 9   5230374.979 8  16966216.928    16966219.442        -577.934
      -447.858
 88  3 22  7 25  5.0800000  0  4G 3G 9G11G13
 -74783654.162 9  89383521.867 8  18858903.857    18858907.346        1818.656
      1419.278
  -7161889.628 9  -8079751.814 8  17947412.312    17947414.954       -3344.517
     -2609.379
   6067811.598 9   4682560.427 9  19150938.576    19150942.857       -2181.282
     -1700.912
 -31270961.489 9   5244085.563 8  16969565.503    16969567.884        -589.233
      -462.604
 88  3 22  7 25 35.0800000  0  4G 3G 9G11G13
 -74838053.388 9  89341132.877 9  18848553.374    18848555.819        1821.263
      1401.041
  -7061295.112 9  -8001366.498 7  17966555.154    17966558.081       -3354.293
     -2607.540
   6133288.268 8   4733581.205 9  19163398.888    19163402.683       -2188.769
     -1690.677
 -31253149.776 9   5257964.823 8  16972955.345    16972956.799        -594.050
      -458.366
 88  3 22  7 26  5.0800000  0  4G 3G 9G11G13
 -74892250.577 9  89298901.320 9  18838240.186    18838242.172        1818.448
      1401.370
  -6960305.834 9  -7922673.573 8  17985772.351    17985775.218       -3373.687
     -2618.302
   6198770.340 9   4784606.179 9  19175861.500    19175862.491       -2181.489
     -1700.402
 -31235122.968 9   5272011.695 8  16976384.623    16976387.977        -596.386
      -467.432
 88  3 22  7 26 35.0800000  0  4G 3G 9G11G13
 -74946246.648 9  89256826.472 8  18827965.610    18827966.506        1797.970
      1390.987
  -6858924.878 9  -7843675.442 8  18005065.127    18005068.346       -3388.591
     -2641.262
   6264257.026 8   4835634.742 8  19188321.111    19188325.329       -2172.877
     -1709.120
 -31216882.773 9   5286224.832 9  16979855.934    16979858.085        -608.188
      -479.841
 88  3 22  7 27  5.0800000  0  4G 3G 9G11G13
 -75000041.976 9  89214908.051 9  18817727.977    18817729.542        1787.596
      1387.327
  -6757155.369 9  -7764374.540 8  18024430.598    18024433.019       -3393.974
     -2649.048
   6329747.799 9   4886666.494 9  19200784.734    19200787.133       -2197.111
     -1700.961
 -31198430.648 9   5300603.103 9  16983366.483    16983369.835        -611.195
      -484.601
 88  3 22  7 27 35.0800000  0  4G 3G 9G11G13
 -75053636.639 9  89173145.984 9  18807529.345    18807530.946        1786.471
      1395.442
  -6655000.357 9  -7684773.242 7  18043871.040    18043872.652       -3418.272
     -2650.465
   6395241.961 7   4937700.896 9  19213247.976    19213249.754       -2165.078
     -1701.340
 -31179767.876 9   5315145.536 8  16986918.272    16986921.539        -620.812
      -489.920
 88  3 22  7 28  5.0800000  0  4G 3G 9G11G13
 -75107030.930 9  89131540.051 9  18797368.974    18797371.058        1788.401
      1380.088
  -6552463.345 9  -7604874.314 9  18063382.604    18063385.307       -3426.900
     -2687.505
   6460738.878 9   4988737.445 8  19225711.173    19225714.408       -2176.393
     -1699.265
 -31160896.101 9   5329850.830 8  16990509.870    16990512.896        -626.481
      -489.000
 88  3 22  7 28 35.0800000  0  4G 3G 9G11G13
 -75160225.983 9  89090089.382 9  18787245.471    18787248.325        1784.230
      1380.193
  -6449547.525 9  -7524680.164 9  18082967.493    18082969.524       -3445.576
     -2684.032
   6526237.514 9   5039775.346 8  19238174.693    19238177.309       -2182.980
     -1698.836
 -31141816.902 9   5344717.738 9  16994140.297    16994143.660        -645.125
      -485.458
 88  3 22  7 29  5.0800000  0  4G 3G 9G11G13
 -75213222.008 9  89048793.799 9  18777160.749    18777163.838        1763.736
      1378.944
  -6346256.115 9  -7444193.377 8  18102623.444    18102624.838       -3441.174
     -2692.712
   6591737.306 9   5090814.140 8  19250639.335    19250642.710       -2184.846
     -1701.347
 -31122531.621 9   5359745.236 7  16997809.735    16997812.996        -649.679
      -492.995
 88  3 22  7 29 35.0800000  0  4G 3G 9G11G13
 -75266020.082 9  89007652.446 9  18767114.882    18767116.684        1759.063
      1372.855
  -6242592.414 9  -7363416.478 9  18122349.820    18122351.365       -3466.014
     -2691.053
   6657237.347 8   5141853.126 9  19263102.979    19263105.953       -2165.269
     -1696.438
 -31103041.623 9   5374932.243 8  17001519.577    17001520.647        -663.490
      -507.430
 88  3 22  7 30  5.0800000  0  4G 3G 9G11G13
 -75318620.366 9  88966665.225 9  18757105.309    18757106.699        1753.952
      1363.907
  -6138559.675 9  -7282352.022 9  18142145.800    18142148.303       -3465.863
     -2699.336
   6722737.295 8   5192892.021 9  19275567.579    19275571.214       -2174.862
     -1699.246
 -31083348.327 9   5390277.668 8  17005266.605    17005268.952        -648.108
      -488.633
 88  3 22  7 30 35.0800000  0  4G 3G 9G11G13
 -75371023.334 9  88925831.766 8  18747132.158    18747134.679        1749.877
      1361.123
  -6034161.226 9  -7201002.602 8  18162012.962    18162015.737       -3500.790
     -2721.526
   6788236.321 9   5243930.187 9  19288031.156    19288034.952       -2168.546
     -1702.552
 -31063453.177 9   5405780.380 8  17009052.162    17009055.076        -666.600
      -517.627
 88  3 22  7 31  5.0800000  0  4G 3G 9G11G13
 -75423229.189 9  88885151.893 9  18737197.656    18737200.726        1740.076
      1342.047
  -5929400.000 9  -7119370.477 8  18181947.772    18181949.673       -3501.006
     -2730.194
   6853733.754 9   5294967.112 8  19300495.226    19300498.628       -2182.079
     -1719.311
 -31043357.446 9   5421439.398 9  17012876.625    17012879.325        -675.556
      -519.783
 88  3 22  7 31 35.0800000  0  4G 3G 9G11G13
 -75475238.714 9  88844625.009 8  18727300.287    18727304.224        1730.332
      1345.819
  -5824279.793 9  -7037458.656 9  18201952.440    18201954.733       -3515.670
     -2730.337
   6919228.652 8   5346002.101 8  19312958.607    19312961.921       -2191.074
     -1708.300
 -31023063.308 9   5437253.006 9  17016738.746    17016741.613        -673.450
      -531.794
 88  3 22  7 32  5.0800000  0  4G 3G 9G11G13
 -75527052.689 8  88804250.502 9  18717440.860    18717443.432        1734.024
      1339.425
  -5718803.923 9  -6955269.671 9  18222022.978    18222026.072       -3516.938
     -2746.232
   6984720.298 9   5397034.550 9  19325422.421    19325424.399       -2177.948
     -1698.519
 -31002571.862 9   5453220.378 8  17020638.271    17020639.412        -682.334
      -523.990
 88  3 22  7 32 35.0800000  0  3G 3G 9G13
 -75578671.763 9  88764027.865 9  18707618.171    18707620.110        1721.544
      1348.205
  -5612975.443 9  -6872805.939 9  18242161.911    18242163.021       -3529.243
     -2752.321
 -30981884.996 9   5469340.026 8  17024574.281    17024577.205        -688.474
      -542.333
 88  3 22  7 33  5.0800000  0  3G 3G 9G13
 -75630096.647 9  88723956.547 9  18697832.065    18697834.493        1725.946
      1313.867
  -5506798.235 8  -6790070.466 8  18262366.167    18262369.738       -3537.568
     -2776.455
 -30961004.358 9   5485610.661 8  17028548.387    17028550.635        -692.485
      -551.156
 88  3 22  7 33 35.0800000  0  3G 3G 9G13
 -75681327.527 9  88684036.393 8  18688082.646    18688085.005        1695.938
      1342.184
  -5400275.269 9  -6707065.568 8  18282637.205    18282638.998       -3558.860
     -2761.679
 -30939930.544 9   5502031.812 8  17032558.629    17032560.717        -712.971
      -539.276
 88  3 22  7 34  5.0800000  0  3G 3G 9G13
 -75732364.748 9  88644267.149 8  18678370.972    18678374.864        1697.948
      1306.380
  -5293409.390 9  -6623793.469 9  18302972.161    18302975.417       -3567.249
     -2782.725
 -30918665.270 9   5518602.150 9  17036604.220    17036606.834        -712.030
      -549.578
 88  3 22  7 34 35.0800000  0  3G 3G 9G13
 -75783209.358 9  88604648.003 8  18668695.327    18668698.898        1687.230
      1318.907
  -5186204.358 8  -6540257.107 9  18323373.327    18323376.322       -3581.674
     -2778.605
 -30897209.645 9   5535320.817 9  17040687.100    17040690.296        -707.278
      -557.526
 88  3 22  7 35  5.0800000  0  3G 3G 9G13
 -75833861.992 9  88565178.417 9  18659056.923    18659059.424        1678.482
      1312.183
  -5078664.226 9  -6456459.618 9  18343837.338    18343839.292       -3573.500
     -2796.911
 -30875566.255 9   5552185.790 8  17044805.897    17044808.044        -709.686
      -566.741
 88  3 22  7 35 35.0800000  0  3G 3G 9G13
 -75884322.661 9  88525858.432 9  18649453.864    18649457.159        1670.213
      1315.800
  -4970791.369 9  -6372402.893 8  18364363.886    18364368.140       -3591.132
     -2814.266
 -30853735.089 9   5569197.088 8  17048960.997    17048962.714        -733.513
      -559.328
 88  3 22  7 36  5.0800000  0  3G 3G 9G13
 -75934592.256 9  88486687.343 9  18639887.680    18639891.169        1662.566
      1299.743
  -4862589.486 9  -6288089.737 8  18384955.176    18384957.550       -3612.407
     -2813.539
 -30831718.255 9   5586353.066 8  17053150.289    17053153.129        -732.532
      -578.814
 88  3 22  7 36 35.0800000  0  3G 3G 9G13
 -75984671.177 8  88447664.811 9  18630358.402    18630361.819        1668.451
      1301.403
  -4754061.695 9  -6203522.641 8  18405607.662    18405609.788       -3638.779
     -2821.002
 -30809516.666 9   5603653.015 8  17057375.175    17057377.462        -735.507
      -586.283
 88  3 22  7 37  5.0800000  0  3G 3G 9G13
 -76034560.098 9  88408790.350 9  18620865.122    18620868.167        1665.644
      1302.770
  -4645211.351 8  -6118704.221 8  18426319.874    18426323.126       -3631.378
     -2825.507
 -30787132.224 9   5621095.439 8  17061634.976    17061636.746        -749.582
      -578.994
 88  3 22  7 37 35.0800000  0  3G 3G 9G13
 -76084259.560 9  88370063.514 8  18611407.981    18611411.202        1647.574
      1295.847
  -4536042.090 8  -6033637.269 7  18447094.847    18447097.864       -3634.855
     -2839.258
 -30764566.426 9   5638679.179 9  17065927.975    17065931.422        -757.899
      -586.463
 88  3 22  7 38  5.0800000  0  3G 3G 9G13
 -76133770.205 9  88331483.802 8  18601986.728    18601988.887        1644.360
      1283.463
  -4426557.525 9  -5948324.639 9  18467929.084    18467931.841       -3660.445
     -2837.655
 -30741820.606 9   5656403.194 8  17070255.958    17070259.884        -741.966
      -584.935
 88  3 22  7 38 35.0800000  0  3G 3G 9G13
 -76183092.677 8  88293050.724 9  18592600.196    18592601.974        1651.090
      1271.595
  -4316760.629 8  -5862768.613 9  18488823.402    18488825.395       -3690.604
     -2856.166
 -30718895.692 9   5674266.765 8  17074619.999    17074622.424        -772.962
      -609.504
 88  3 22  7 39  5.0800000  0  3G 3G 9G13
 -76232227.744 8  88254763.677 9  18583251.170    18583252.892        1623.380
      1282.842
  -4206654.832 9  -5776971.894 8  18509776.402    18509777.770       -3694.105
     -2865.052
 -30695793.128 9   5692268.767 8  17079015.961    17079017.185        -777.827
      -594.734
 88  3 22  7 39 35.0800000  0  3G 3G 9G13
 -76281175.681 9  88216622.442 8  18573935.405    18573939.367        1614.672
      1260.932
  -4096243.452 9  -5690937.060 7  18530785.938    18530788.713       -3682.303
     -2879.660
 -30672514.443 9   5710408.009 9  17083445.834    17083447.652        -783.233
      -609.653
 88  3 22  7 40  5.0800000  0  3G 3G 9G13
 -76329937.550 8  88178626.198 8  18564656.390    18564658.987        1612.016
      1279.325
  -3985530.289 9  -5604667.075 8  18551854.407    18551856.762       -3695.452
     -2871.296
 -30649060.858 9   5728683.534 8  17087909.049    17087911.032        -789.382
      -605.695
 88  3 22  7 40 35.0800000  0  3G 3G 9G13
 -76378513.225 9  88140775.050 9  18555413.118    18555415.676        1606.067
      1254.781
  -3874518.060 9  -5518164.044 8  18572979.641    18572982.104       -3710.604
     -2896.257
 -30625433.641 9   5747094.349 8  17092404.488    17092407.340        -791.838
      -622.137
 88  3 22  7 41  5.0800000  0  3G 3G 9G13
 -76426903.524 9  88103068.339 8  18546204.407    18546207.149        1613.475
      1252.773
  -3763210.391 9  -5431430.830 9  18594160.008    18594162.977       -3714.774
     -2892.865
 -30601634.402 9   5765639.211 9  17096932.865    17096935.968        -795.857
      -617.551
 88  3 22  7 41 35.0800000  0  3G 3G 9G13
 -76475109.444 8  88065505.294 9  18537031.181    18537033.145        1604.353
      1258.751
  -3651611.265 9  -5344470.480 8  18615397.471    18615399.043       -3718.690
     -2915.756
 -30577664.716 9   5784316.893 8  17101495.156    17101496.254        -801.447
      -602.812
 88  3 22  7 42  5.0800000  0  3G 3G 9G13
 -76523131.654 9  88028085.420 9  18527893.152    18527894.457        1611.410
      1256.632
  -3539724.010 9  -5257285.614 8  18636688.622    18636690.697       -3749.702
     -2905.621
 -30553526.128 9   5803126.173 8  17106088.321    17106091.298        -810.729
      -632.663
 88  3 22  7 42 35.0800000  0  3G 3G 9G13
 -76570970.711 9  87990808.238 8  18518789.731    18518791.644        1593.045
      1250.990
  -3427551.592 9  -5169878.571 8  18658034.508    18658037.199       -3735.101
     -2921.939
 -30529219.362 9   5822066.513 9  17110714.010    17110716.334        -835.394
      -639.858
 88  3 22  7 43  5.0800000  0  3G 3G 9G13
 -76618626.874 9  87953673.595 8  18509721.022    18509723.860        1584.935
      1234.486
  -3315097.482 9  -5082252.005 9  18679432.860    18679435.708       -3737.724
     -2923.884
 -30504745.597 9   5841136.983 8  17115371.634    17115373.280        -806.606
      -628.009
 88  3 22  7 43 35.0800000  0  3G 3G 9G13
 -76666100.963 8  87916680.814 8  18500686.766    18500688.682        1572.479
      1231.547
  -3202365.233 9  -4994408.711 9  18700885.782    18700888.639       -3744.096
     -2940.201
 -30480106.437 9   5860336.329 9  17120059.334    17120063.238        -821.391
      -654.156
 88  3 22  7 44  5.0800000  0  3G 3G 9G13
 -76713393.708 9  87879829.339 8  18491687.577    18491690.370        1571.626
      1216.348
  -3089358.114 8  -4906351.230 8  18722390.190    18722392.603       -3782.046
     -2940.363
 -30455303.667 9   5879663.155 8  17124779.382    17124782.783        -814.947
      -645.171
 88  3 22  7 44 35.0800000  0  3G 3G 9G13
 -76760505.591 8  87843118.803 9  18482721.967    18482724.188        1581.498
      1213.446
  -2976079.688 9  -4818082.331 9  18743945.216    18743950.137       -3765.730
     -2948.192
 -30430338.140 9   5899116.828 8  17129531.432    17129532.145        -850.513
      -660.898
 88  3 22  7 45  5.0800000  0  3G 3G 9G13
 -76807437.319 9  87806548.650 8  18473792.030    18473794.609        1579.090
      1211.526
  -2862533.588 9  -4729604.868 8  18765553.769    18765555.869       -3786.822
     -2941.059
 -30405211.126 9   5918696.317 8  17134312.632    17134314.557        -836.805
      -659.923
 88  3 22  7 45 35.0800000  0  3G 3G 9G13
 -76854189.164 9  87770118.661 9  18464895.425    18464896.775        1547.001
      1222.146
  -2748722.606 9  -4640921.012 8  18787209.922    18787212.920       -3773.952
     -2970.176
 -30379923.394 9   5938401.044 9  17139123.898    17139124.764        -840.425
      -646.600
 88  3 22  7 46  5.0800000  0  3G 3G 9G13
 -76900761.610 9  87733828.445 8  18456032.006    18456035.296        1552.615
      1196.638
  -2634650.304 9  -4552033.530 9  18808917.007    18808921.839       -3788.728
     -2973.992
 -30354476.741 9   5958229.603 8  17143965.956    17143968.493        -853.463
      -668.547
 88  3 22  7 46 35.0800000  0  3G 3G 9G13
 -76947156.427 9  87697676.661 8  18447202.871    18447205.731        1550.175
      1197.185
  -2520320.645 8  -4462945.512 8  18830674.204    18830676.840       -3802.955
     -2968.356
 -30328873.340 9   5978180.296 9  17148837.738    17148840.568        -841.454
      -669.200
 88  3 22  7 47  5.0800000  0  3G 3G 9G13
 -76993373.461 9  87661663.402 8  18438408.748    18438411.927        1540.207
      1190.965
  -2405736.995 9  -4373659.584 9  18852478.987    18852481.684       -3825.012
     -2978.484
 -30303113.649 9   5998252.781 7  17153739.612    17153742.942        -860.529
      -663.514
 88  3 22  7 47 35.0800000  0  3G 3G 9G13
 -77039413.395 9  87625788.134 8  18429646.830    18429651.440        1540.925
      1181.918
  -2290902.447 9  -4284178.120 8  18874331.696    18874334.718       -3830.689
     -2988.930
 -30277198.741 9   6018446.221 9  17158671.387    17158674.463        -868.192
      -675.581
 88  3 22  7 48  5.0800000  0  3G 3G 9G13
 -77085276.849 9  87590050.393 7  18420919.423    18420922.874        1534.673
      1189.126
  -2175820.623 8  -4194504.005 9  18896231.143    18896233.258       -3844.294
     -2983.138
 -30251129.996 9   6038759.517 9  17163631.920    17163633.810        -875.584
      -662.700
 88  3 22  7 48 35.0800000  0  3G 3G 9G13
 -77130964.419 9  87554449.716 8  18412226.322    18412226.927        1524.553
      1196.122
  -2060494.911 8  -4104639.837 9  18918176.716    18918179.694       -3847.133
     -3007.142
 -30224908.498 9   6059191.850 8  17168621.431    17168624.364        -855.521
      -684.088
 88  3 22  7 49  5.0800000  0  3G 3G 9G13
 -77176477.179 9  87518985.234 9  18403564.545    18403568.549        1529.083
      1171.702
  -1944928.771 9  -4014588.321 8  18940167.710    18940169.509       -3844.405
     -2983.977
 -30198535.543 9   6079742.202 8  17173640.376    17173643.863        -857.522
      -700.884
 88  3 22  7 49 35.0800000  0  3G 3G 9G13
 -77221815.444 9  87483656.728 9  18394937.630    18394940.262        1512.839
      1184.652
  -1829125.430 9  -3924351.993 8  18962203.957    18962207.342       -3869.405
     -3011.666
 -30172012.424 9   6100409.550 8  17178687.575    17178690.080        -887.012
      -673.593
 88  3 22  7 50  5.0800000  0  3G 3G 9G13
 -77266979.645 9  87448463.859 9  18386343.654    18386345.694        1498.087
      1169.751
  -1713088.355 9  -3833933.492 8  18984286.204    18984288.432       -3873.743
     -3010.690
 -30145340.201 9   6121193.102 9  17183762.693    17183766.082        -891.429
      -694.173
 88  3 22  7 50 35.0800000  0  3G 3G 9G13
 -77311970.754 9  87413405.874 8  18377781.147    18377784.552        1497.600
      1164.699
  -1596821.142 9  -3743335.687 9  19006410.275    19006413.385       -3874.620
     -3021.303
 -30118520.417 9   6142091.624 8  17188867.742    17188869.926        -886.621
      -703.065
 88  3 22  7 51  5.0800000  0  3G 3G 9G13
 -77356789.180 9  87378482.440 8  18369253.986    18369254.725        1472.234
      1167.732
  -1480327.134 9  -3652561.143 9  19028579.274    19028582.211       -3890.936
     -3037.832
 -30091554.151 9   6163104.301 8  17193998.422    17194000.681        -912.904
      -706.526
 88  3 22  7 51 35.0800000  0  3G 3G 9G13
 -77401435.847 9  87343692.848 8  18360756.260    18360759.110        1484.865
      1163.668
  -1363610.135 9  -3561612.851 8  19050788.810    19050791.512       -3900.489
     -3025.734
 -30064442.859 9   6184229.972 8  17199156.233    17199160.424        -892.059
      -713.050
 88  3 22  7 52  5.0800000  0  3G 3G 9G13
 -77445911.313 9  87309036.657 8  18352294.019    18352296.022        1475.519
      1156.037
  -1246673.446 9  -3470493.361 9  19073042.188    19073044.072       -3904.540
     -3032.538
 -30037187.492 9   6205467.927 8  17204344.881    17204346.040        -903.064
      -704.469
 88  3 22  7 52 35.0800000  0  3G 3G 9G13
 -77490216.091 9  87274513.475 9  18343862.340    18343864.638        1482.592
      1149.469
  -1129520.131 9  -3379205.077 8  19095335.923    19095337.609       -3918.798
     -3041.908
 -30009788.780 9   6226817.564 8  17209558.063    17209560.391        -926.971
      -716.673
 88  3 22  7 53  5.0800000  0  3G 3G 9G13
 -77534350.600 9  87240122.963 8  18335464.746    18335466.816        1476.301
      1143.218
  -1012154.013 9  -3287750.979 8  19117668.908    19117671.819       -3913.033
     -3048.476
 -29982248.510 9   6248277.501 9  17214799.330    17214800.249        -923.064
      -705.252
 88  3 22  7 53 35.0800000  0  3G 3G 9G13
 -77578315.889 9  87205864.312 8  18327098.559    18327100.474        1470.057
      1131.313
   -894578.375 9  -3196133.608 9  19140043.097    19140045.604       -3910.210
     -3053.230
 -29954567.956 9   6269846.778 8  17220066.324    17220068.336        -907.139
      -719.780
 88  3 22  7 54  5.0800000  0  3G 3G 9G13
 -77622112.578 9  87171737.027 9  18318764.126    18318765.293        1455.599
      1139.422
   -776796.740 9  -3104355.731 8  19162456.323    19162458.992       -3932.697
     -3059.232
 -29926747.731 9   6291524.859 8  17225361.266    17225362.817        -936.070
      -717.276
 88  3 22  7 54 35.0800000  0  3G 3G 9G13
 -77665741.037 9  87137740.829 8  18310461.383    18310463.796        1453.733
      1143.411
   -658812.116 8  -3012419.671 9  19184907.531    19184910.155       -3932.745
     -3068.690
 -29898789.407 9   6313310.564 9  17230681.325    17230682.568        -937.824
      -727.951
 88  3 22  7 55  5.0800000  0  3G 3G 9G13
 -77709201.816 9  87103875.312 8  18302190.572    18302193.751        1440.193
      1123.303
   -540628.368 9  -2920328.457 9  19207398.277    19207401.152       -3943.439
     -3085.336
 -29870694.009 9   6335203.076 8  17236027.545    17236030.834        -948.398
      -737.222
 88  3 22  7 55 35.0800000  0  3G 3G 9G13
 -77752495.898 9  87070139.672 8  18293950.578    18293955.017        1457.680
      1135.668
   -422248.818 9  -2828084.677 9  19229924.089    19229926.499       -3944.165
     -3075.966
 -29842462.284 9   6357201.822 8  17241399.303    17241401.425        -929.977
      -731.288
 88  3 22  7 56  5.0800000  0  3G 3G 9G13
 -77795624.334 9  87036533.122 9  18285744.036    18285747.616        1441.333
      1115.641
   -303676.791 9  -2735690.905 8  19252487.435    19252490.930       -3944.651
     -3081.658
 -29814095.750 9   6379305.616 8  17246797.733    17246799.700        -956.835
      -736.439
 88  3 22  7 56 35.0800000  0  3G 3G 9G13
 -77838587.238 9  87003055.544 8  18277569.281    18277573.360        1403.822
      1110.105
   -184915.840 9  -2643149.910 9  19275088.236    19275089.448       -3962.354
     -3077.401
 -29785595.334 9   6401513.727 8  17252221.064    17252223.456        -954.132
      -745.200
 88  3 22  7 57  5.0800000  0  3G 3G 9G13
 -77881385.202 8  86969706.491 9  18269425.330    18269427.836        1431.612
      1097.876
    -65969.367 9  -2550464.365 8  19297721.890    19297724.077       -3976.867
     -3084.858
 -29756961.883 9   6423825.487 8  17257668.694    17257672.777        -947.657
      -744.237
 88  3 22  7 57 35.0800000  0  3G 3G 9G13
 -77924018.820 9  86936485.494 8  18261313.007    18261314.985        1425.456
      1101.648
     53159.372 8  -2457636.796 9  19320393.268    19320393.645       -3961.262
     -3089.214
 -29728196.661 9   6446239.943 9  17263143.009    17263146.691        -962.608
      -756.137
 88  3 22  7 58  5.0800000  0  3G 3G 9G13
 -77966488.911 9  86903391.920 8  18253230.083    18253232.682        1427.187
      1115.946
    172466.496 8  -2364670.228 8  19343095.630    19343096.609       -3976.118
     -3098.118
 -29699300.979 9   6468756.065 8  17268641.349    17268644.493        -951.556
      -758.554
 88  3 22  7 58 35.0800000  0  3G 3G 9G13
 -78008795.622 9  86870425.660 8  18245179.555    18245182.110        1422.171
      1093.937
    291949.051 9  -2271566.974 7  19365832.704    19365833.921       -3990.169
     -3090.078
 -29670276.047 9   6491372.873 9  17274165.563    17274167.273        -962.321
      -758.013
 88  3 22  7 59  5.0800000  0  3G 3G 9G13
 -78050940.197 9  86837585.747 8  18237160.653    18237163.090        1404.404
      1094.533
    411603.302 8  -2178329.879 8  19388601.513    19388605.703       -3977.872
     -3117.977
 -29641122.775 9   6514089.704 9  17279712.055    17279716.682        -977.401
      -748.202
 88  3 22  7 59 35.0800000  0  3G 3G 9G13
 -78092923.196 9  86804871.732 9  18229171.321    18229173.786        1413.558
      1083.746
    531425.907 9  -2084961.653 8  19411403.306    19411406.137       -3992.250
     -3127.199
 -29611842.095 9   6536905.818 9  17285284.896    17285288.686        -983.469
      -764.488
 88  3 22  8  0  5.0800000  0  3G 3G 9G13
 -78134745.189 9  86772283.188 8  18221212.378    18221214.900        1389.771
      1091.563
    651413.509 9  -1991464.854 8  19434236.484    19434237.740       -4003.326
     -3110.067
 -29582435.120 9   6559820.331 9  17290881.347    17290883.804        -989.681
      -767.191
 88  3 22  8  0 35.0800000  0  3G 3G 9G13
 -78176407.071 9  86739819.398 8  18213286.195    18213285.859        1386.868
      1092.371
    771562.491 9  -1897842.283 9  19457100.327    19457102.426       -4012.736
     -3115.343
 -29552902.984 9   6582832.371 8  17296501.601    17296502.527        -992.975
      -767.601
 88  3 22  8  1  5.0800000  0  3G 3G 9G13
 -78217909.255 9  86707480.048 9  18205388.247    18205389.781        1376.358
      1063.775
    891869.458 9  -1804096.626 8  19479992.568    19479995.572       -3997.736
     -3130.765
 -29523246.733 9   6605941.155 8  17302144.001    17302146.788        -978.996
      -777.462
 88  3 22  8  1 35.0800000  0  3G 3G 9G13
 -78259252.232 9  86675264.749 8  18197520.315    18197522.036        1365.808
      1074.773
   1012331.171 8  -1710230.352 8  19502917.139    19502918.466       -4020.256
     -3122.700
 -29493467.573 9   6629145.689 8  17307811.395    17307812.982        -990.391
      -769.130
 88  3 22  8  2  5.0800000  0  3G 3G 9G13
 -78300437.087 9  86643172.667 8  18189682.351    18189684.305        1377.323
      1067.441
   1132944.098 9  -1616246.276 9  19525868.211    19525871.765       -4020.288
     -3134.587
 -29463565.795 9   6652445.769 9  17313501.926    17313503.528       -1013.923
      -788.821
 88  3 22  8  2 35.0800000  0  3G 3G 9G13
 -78341464.121 9  86611203.563 8  18181875.957    18181877.425        1348.886
      1069.989
   1253704.936 9  -1522146.958 8  19548847.731    19548850.658       -4020.981
     -3131.816
 -29433542.891 9   6675840.237 8  17319214.269    17319216.992       -1004.554
      -788.424
 88  3 22  8  3  5.0800000  0  3G 3G 9G13
 -78382334.334 8  86579356.663 8  18174098.199    18174100.621        1354.843
      1063.800
   1374610.127 9  -1427935.149 9  19571855.275    19571859.421       -4019.498
     -3149.531
 -29403400.478 9   6699327.838 8  17324950.549    17324953.101       -1015.853
      -780.507
 88  3 22  8  3 35.0800000  0  3G 3G 9G13
 -78423048.363 9  86547631.455 8  18166350.734    18166351.506        1355.114
      1070.877
   1495655.985 8  -1333613.748 9  19594889.498    19594892.828       -4035.957
     -3135.563
 -29373139.087 9   6722908.133 8  17330708.686    17330712.301       -1016.579
      -785.267
 88  3 22  8  4  5.0800000  0  3G 3G 9G13
 -78463606.457 9  86516027.754 8  18158632.245    18158634.133        1341.749
      1050.714
   1616839.663 9  -1239184.953 8  19617951.098    19617953.157       -4054.657
     -3144.312
 -29342759.278 9   6746580.700 8  17336489.976    17336493.119       -1021.523
      -790.710
 88  3 22  8  4 35.0800000  0  3G 3G 9G13
 -78504009.477 8  86484544.902 8  18150944.241    18150945.710        1334.636
      1048.986
   1738157.328 9  -1144651.741 9  19641036.490    19641038.730       -4043.302
     -3149.022
 -29312262.039 9   6770344.761 8  17342293.125    17342295.033       -1023.987
      -803.796
 88  3 22  8  5  5.0800000  0  3G 3G 9G13
 -78544258.005 9  86453182.425 9  18143284.623    18143287.202        1344.700
      1048.160
   1859605.888 9  -1050016.520 8  19664148.102    19664150.168       -4049.402
     -3157.864
 -29281648.895 9   6794199.167 8  17348118.450    17348121.261       -1010.566
      -795.799
 88  3 22  8  5 35.0800000  0  3G 3G 9G13
 -78584352.876 8  86421939.692 8  18135655.212    18135657.504        1342.850
      1037.304
   1981181.880 9   -955282.018 8  19687282.312    19687285.420       -4046.683
     -3161.008
 -29250920.755 9   6818143.171 8  17353965.624    17353968.947       -1032.647
      -807.618
 88  3 22  8  6  5.0800000  0  3G 3G 9G13
 -78624294.451 8  86390816.406 8  18128055.712    18128057.876        1325.665
      1022.696
   2102881.995 9   -860450.781 8  19710441.054    19710443.589       -4061.356
     -3171.721
 -29220077.846 9   6842176.612 9  17359835.117    17359837.248       -1037.416
      -803.647
 88  3 22  8  6 35.0800000  0  3G 3G 9G13
 -78664083.060 9  86359812.286 9  18120483.443    18120485.426        1317.228
      1039.765
   2224702.827 9   -765525.476 8  19733623.178    19733625.372       -4053.182
     -3161.996
 -29189121.401 9   6866298.515 9  17365725.724    17365728.205       -1033.293
      -810.793
 88  3 22  8  7  5.0800000  0  3G 3G 9G13
 -78703719.487 9  86328926.763 9  18112940.742    18112943.517        1319.541
      1024.653
   2346641.084 9   -670508.660 8  19756826.325    19756830.244       -4052.775
     -3173.317
 -29158052.298 9   6890508.207 9  17371639.176    17371639.922       -1047.934
      -799.428
 88  3 22  8  7 35.0800000  0  3G 3G 9G13
 -78743204.815 9  86298158.976 8  18105426.387    18105428.967        1308.121
      1035.931
   2468693.240 9   -575403.118 8  19780053.168    19780055.206       -4074.968
     -3172.945
 -29126871.757 9   6914804.722 8  17377572.543    17377573.435       -1046.188
      -805.598
 88  3 22  8  8  5.0800000  0  3G 3G 9G13
 -78782539.466 9  86267508.596 8  18097941.075    18097943.845        1313.616
      1019.440
   2590856.037 9   -480211.331 8  19803300.351    19803303.429       -4078.564
     -3184.577
 -29095580.657 9   6939187.391 9  17383527.637    17383529.267       -1059.321
      -823.345
 88  3 22  8  8 35.0800000  0  3G 3G 9G13
 -78821724.317 8  86236974.968 8  18090484.750    18090486.814        1289.996
      1024.684
   2713125.752 9   -384936.232 9  19826566.547    19826569.115       -4077.591
     -3178.655
 -29064180.052 9   6963655.389 9  17389502.626    17389504.696       -1042.695
      -823.519
 88  3 22  8  9  5.0800000  0  3G 3G 9G13
 -78860760.060 9  86206557.518 8  18083056.608    18083058.548        1290.817
      1010.013
   2835499.046 9   -289580.424 9  19849854.708    19849855.838       -4088.341
     -3167.476
 -29032670.749 9   6988208.084 9  17395497.428    17395500.405       -1042.767
      -811.638
 88  3 22  8  9 35.0800000  0  3G 3G 9G13
 -78899647.156 9  86176255.903 9  18075656.433    18075659.346        1298.257
      1005.546
   2957972.657 9   -194146.464 9  19873159.298    19873162.409       -4077.607
     -3178.077
 -29001053.655 9   7012844.791 9  17401514.055    17401515.640       -1057.208
      -822.755
 88  3 22  8 10  5.0800000  0  3G 3G 9G13
 -78938386.167 9  86146069.670 9  18068283.974    18068286.124        1292.731
      1015.034
   3080543.213 9    -98636.954 9  19896483.918    19896487.556       -4072.177
     -3179.544
 -28969329.821 9   7037564.655 8  17407551.465    17407552.929       -1052.376
      -826.098
 88  3 22  8 10 35.0800000  0  3G 3G 9G13
 -78976977.385 9  86115998.606 8  18060942.377    18060942.390        1291.391
      1003.942
   3203207.462 8     -3054.456 8  19919825.527    19919828.759       -4092.328
     -3173.672
 -28937499.634 9   7062367.409 8  17413607.976    17413610.030       -1055.063
      -834.722
 88  3 22  8 11  5.0800000  0  3G 3G 9G13
 -79015421.883 9  86086041.857 8  18053624.897    18053626.656        1290.913
       993.205
   3325961.727 9     92598.176 8  19943186.131    19943188.412       -4093.070
     -3188.429
 -28905564.025 9   7087252.290 8  17419685.923    17419687.802       -1071.738
      -824.482
 88  3 22  8 11 35.0800000  0  3G 3G 9G13
 -79053719.946 8  86056199.217 7  18046336.994    18046340.694        1272.085
       993.373
   3448803.205 7    188318.765 8  19966559.237    19966564.524       -4093.285
     -3186.025
 -28873523.884 9   7112218.624 8  17425781.517    17425784.749       -1069.632
      -830.547
 88  3 22  8 12  5.0800000  0  3G 3G 9G13
 -79091872.223 9  86026470.185 8  18039075.926    18039079.540        1273.242
       994.417
   3571728.465 8    284104.651 8  19989952.864    19989957.026       -4085.343
     -3200.354
 -28841379.817 9   7137265.943 9  17431897.373    17431900.300       -1059.058
      -835.816
 88  3 22  8 12 35.0800000  0  3G 3G 9G13
 -79129879.579 9  85996854.062 9  18031844.497    18031847.979        1270.985
       982.182
   3694733.789 7    379952.915 9  20013359.484    20013363.182       -4110.749
     -3204.902
 -28809132.990 9   7162393.334 8  17438035.512    17438038.788       -1086.012
      -845.267
 88  3 22  8 13  5.0800000  0  3G 3G 9G13
 -79167742.480 9  85967350.519 9  18024640.148    18024641.612        1267.093
       988.166
   3817816.139 8    475861.198 9  20036781.200    20036784.890       -4101.188
     -3180.637
 -28776784.368 9   7187600.055 8  17444190.800    17444194.518       -1084.632
      -843.695
 88  3 22  8 13 35.0800000  0  3G 3G 9G13
 -79205461.431 9  85937959.155 8  18017461.170    18017463.167        1253.114
       979.628
   3940972.128 9    571826.865 9  20060217.639    20060221.321       -4120.573
     -3182.974
 -28744334.623 9   7212885.574 8  17450366.391    17450368.385       -1096.123
      -842.931
 88  3 22  8 14  5.0800000  0  3G 3G 9G13
 -79243036.739 9  85908679.699 8  18010311.269    18010313.042        1244.470
       973.346
   4064198.489 9    667847.387 9  20083667.442    20083670.194       -4103.277
     -3201.137
 -28711784.213 8   7238249.526 8  17456560.123    17456563.419       -1103.348
      -864.766
 88  3 22  8 14 35.0800000  0  3G 3G 9G13
 -79280469.035 9  85879511.665 8  18003187.662    18003190.582        1235.539
       967.971
   4187492.078 9    763920.286 9  20107129.599    20107132.717       -4110.526
     -3217.485
 -28679134.074 9   7263691.181 8  17462772.929    17462775.131       -1085.238
      -842.794
 88  3 22  8 15  5.0800000  0  3G 3G 9G13
 -79317759.158 9  85850454.447 8  17996092.962    17996094.855        1237.397
       964.752
   4310849.532 9    860042.963 9  20130603.458    20130605.699       -4110.900
     -3196.917
 -28646384.427 9   7289210.385 8  17469005.154    17469007.086       -1098.077
      -857.210
 88  3 22  8 15 35.0800000  0  3G 3G 9G13
 -79354907.661 8  85821507.577 8  17989023.151    17989025.415        1260.052
       975.340
   4434267.392 9    956212.706 9  20154089.346    20154092.058       -4121.434
     -3208.773
 -28613536.568 9   7314806.105 8  17475256.295    17475258.875       -1104.249
      -865.443
 88  3 22  8 16  5.0800000  0  3G 3G 9G13
 -79391915.318 9  85792670.446 9  17981980.556    17981983.483        1220.324
       954.885
   4557742.483 9   1052427.015 9  20177585.603    20177589.388       -4112.232
     -3200.876
 -28580591.656 9   7340477.460 9  17481526.202    17481527.929       -1108.683
      -858.192
 88  3 22  8 16 35.0800000  0  3G 3G 9G13
 -79428782.605 9  85763942.694 8  17974965.622    17974967.468        1217.254
       961.676
   4681271.248 9   1148683.198 8  20201093.111    20201095.263       -4111.092
     -3202.243
 -28547549.878 9   7366224.297 8  17487813.278    17487815.298       -1102.008
      -863.200
 88  3 22  8 17  5.0800000  0  3G 3G 9G13
 -79465510.229 9  85735323.786 8  17967976.102    17967979.529        1231.408
       945.228
   4804850.573 9   1244978.743 9  20224609.397    20224610.801       -4115.677
     -3183.104
 -28514412.442 9   7392045.667 8  17494119.818    17494121.409       -1104.712
      -862.964
 88  3 22  8 17 35.0800000  0  3G 3G 9G13
 -79502098.370 9  85706813.558 8  17961014.933    17961017.483        1216.512
       946.577
   4928477.028 9   1341311.021 8  20248134.500    20248136.583       -4108.229
     -3199.005
 -28481179.643 9   7417941.353 9  17500441.865    17500445.651       -1097.479
      -865.443
 88  3 22  8 18  5.0800000  0  3G 3G 9G13
 -79538547.858 9  85678411.362 7  17954077.307    17954080.340        1221.711
       947.142
   5052147.222 9   1437677.390 8  20271669.616    20271670.642       -4129.584
     -3208.910
 -28447852.267 9   7443910.719 8  17506784.889    17506787.493       -1094.225
      -854.992
 88  3 22  8 18 35.0800000  0  3G 3G 9G13
 -79574859.584 9  85650116.521 8  17947167.495    17947170.560        1194.527
       931.154
   5175858.021 9   1534075.389 8  20295209.521    20295212.551       -4115.924
     -3197.489
 -28414431.290 9   7469953.044 7  17513146.074    17513146.616       -1118.132
      -852.221
 88  3 22  8 19  5.0800000  0  3G 3G 9G13
 -79611033.718 9  85621928.887 8  17940283.794    17940286.732        1206.058
       940.015
   5299606.535 9   1630502.779 9  20318758.281    20318761.143       -4110.749
     -3214.776
 -28380917.609 9   7496067.592 8  17519522.863    17519523.737       -1109.935
      -848.641
 88  3 22  8 19 35.0800000  0  3G 3G 9G13
 -79647071.099 9  85593847.830 9  17933426.673    17933428.265        1203.657
       929.918
   5423389.348 9   1726956.888 9  20342313.657    20342316.149       -4117.902
     -3214.353
 -28347311.163 9   7522254.436 9  17525917.408    17525920.016       -1117.614
      -877.113
 88  3 22  8 20  5.0800000  0  3G 3G 9G13
 -79682972.360 8  85565872.836 8  17926595.112    17926597.735        1189.678
       935.386
   5547202.938 9   1823434.969 9  20365874.872    20365877.939       -4118.524
     -3211.483
 -28313612.642 9   7548513.017 8  17532328.633    17532333.565       -1125.564
      -889.920
 88  3 22  8 20 35.0800000  0  3G 3G 9G13
 -79718737.674 9  85538003.765 8  17919788.491    17919790.378        1206.759
       936.486
   5671044.129 9   1919934.552 9  20389441.322    20389443.675       -4124.943
     -3211.128
 -28279823.023 9   7574842.563 9  17538758.485    17538761.927       -1126.083
      -869.551
 88  3 22  8 21  5.0800000  0  3G 3G 9G13
 -79754367.730 9  85510240.108 8  17913009.164    17913011.085        1194.997
       929.042
   5794909.639 9   2016453.129 8  20413011.477    20413014.164       -4128.388
     -3205.766
 -28245943.407 8   7601242.262 8  17545207.177    17545209.822       -1132.662
      -879.561
 88  3 22  8 21 35.0800000  0  3G 3G 9G13
 -79789863.050 9  85482581.424 8  17906253.203    17906255.640        1173.004
       921.927
   5918796.696 9   2112988.465 9  20436586.351    20436589.762       -4134.473
     -3221.027
 -28211973.766 9   7627712.109 8  17551670.762    17551672.616       -1123.834
      -867.040
 88  3 22  8 22  5.0800000  0  3G 3G 9G13
 -79825224.062 9  85455027.394 8  17899524.118    17899527.371        1176.249
       914.333
   6042701.437 9   2209537.572 8  20460164.475    20460167.657       -4133.571
     -3220.151
 -28177915.222 9   7654251.238 9  17558151.869    17558154.772       -1118.236
      -890.336
 88  3 22  8 22 35.0800000  0  3G 3G 9G13
 -79860451.530 9  85427577.445 9  17892822.269    17892823.213        1168.395
       922.952
   6166620.824 9   2306098.107 9  20483745.615    20483748.441       -4131.905
     -3215.130
 -28143767.758 8   7680859.647 9  17564650.327    17564652.107       -1138.642
      -875.435
 88  3 22  8 23  5.0800000  0  3G 3G 9G13
 -79895545.932 9  85400231.162 9  17886142.625    17886145.552        1184.104
       916.769
   6290551.839 9   2402667.712 8  20507328.657    20507332.882       -4128.875
     -3220.064
 -28109532.368 9   7707536.564 9  17571164.924    17571167.636       -1138.411
      -898.457
 88  3 22  8 23 35.0800000  0  3G 3G 9G13
 -79930507.805 8  85372988.161 8  17879489.643    17879493.027        1165.628
       904.572
   6414491.092 9   2499243.718 9  20530914.222    20530917.531       -4122.447
     -3215.316
 -28075209.938 8   7734281.305 9  17577697.039    17577698.928       -1159.025
      -887.179
 88  3 22  8 24  5.0800000  0  3G 3G 9G13
 -79965338.069 8  85345847.712 8  17872861.580    17872863.954        1168.857
       915.272
   6538435.361 9   2595823.643 8  20554499.149    20554502.766       -4114.935
     -3227.732
 -28040801.024 9   7761093.429 7  17584244.209    17584246.663       -1142.877
      -899.072
 88  3 22  8 24 35.0800000  0  3G 3G 9G13
 -80000036.971 9  85318809.610 8  17866259.135    17866260.008        1154.296
       905.914
   6662381.439 9   2692404.988 8  20578085.499    20578088.636       -4130.685
     -3224.954
 -28006306.189 9   7787972.512 9  17590808.139    17590810.124       -1145.955
      -887.011
 88  3 22  8 25  5.0800000  0  3G 3G 9G13
 -80034604.539 9  85291873.845 7  17859681.005    17859682.702        1152.837
       892.374
   6786326.285 9   2788985.328 8  20601671.338    20601675.305       -4129.465
     -3225.258
 -27971725.432 9   7814918.547 9  17597388.743    17597391.209       -1134.512
      -888.236
 88  3 22  8 25 35.0800000  0  3G 3G 9G13
 -80069041.597 8  85265039.793 7  17853128.055    17853130.167        1149.615
       878.989
   6910266.539 9   2885562.121 9  20625257.550    20625260.371       -4123.340
     -3221.070
 -27937059.771 9   7841930.749 9  17603985.244    17603987.293       -1140.963
      -891.237
 88  3 22  8 26  5.0800000  0  3G 3G 9G13
 -80103348.862 9  85238306.867 8  17846598.728    17846602.285        1150.923
       882.500
   7034198.966 8   2982132.816 7  20648839.165    20648843.862       -4127.351
     -3221.070
 -27902309.361 9   7869008.981 8  17610597.827    17610600.729       -1151.043
      -912.737
 88  3 22  8 26 35.0800000  0  3G 3G 9G13
 -80137526.341 9  85211675.071 9  17840094.787    17840098.357        1154.711
       886.421
   7158120.684 8   3078695.119 8  20672421.066    20672426.175       -4128.627
     -3229.030
 -27867475.340 9   7896152.364 9  17617227.217    17617230.093       -1167.414
      -908.493
 88  3 22  8 27  5.0800000  0  3G 3G 9G13
 -80171575.046 9  85185143.611 9  17833616.363    17833617.369        1132.622
       892.337
   7282028.266 9   3175246.433 7  20696000.671    20696003.351       -4141.307
     -3200.689
 -27832558.175 9   7923360.542 8  17623872.103    17623874.390       -1168.889
      -907.436
 88  3 22  8 27 35.0800000  0  3G 3G 9G13
 -80205495.453 9  85158712.142 9  17827161.478    17827163.958        1121.290
       874.795
   7405918.821 9   3271784.518 7  20719576.542    20719579.359       -4147.574
     -3219.505
 -27797558.148 9   7950633.290 9  17630532.583    17630534.550       -1154.870
      -909.791
 88  3 22  8 28  5.0800000  0  3G 3G 9G13
 -80239288.160 9  85132380.170 9  17820731.389    17820733.301        1119.911
       875.149
   7529789.016 8   3368306.673 8  20743148.246    20743151.426       -4112.439
     -3208.059
 -27762475.749 9   7977970.217 8  17637208.461    17637210.861       -1160.285
      -915.464
 88  3 22  8 28 35.0800000  0  3G 3G 9G13
 -80272954.062 9  85106147.004 8  17814324.494    17814326.872        1124.360
       867.401
   7653635.434 9   3464810.361 6  20766716.067    20766717.927       -4124.752
     -3228.726
 -27727311.899 9   8005370.618 8  17643899.143    17643901.351       -1163.738
      -911.382
 88  3 22  8 29  5.0800000  0  3G 3G 9G13
 -80306492.836 9  85080012.889 9  17807942.173    17807944.103        1126.210
       882.997
   7777455.097 9   3561293.202 7  20790277.772    20790279.010       -4126.044
     -3213.434
 -27692066.776 9   8032834.325 9  17650606.466    17650609.762       -1199.263
      -922.331
 88  3 22  8 29 35.0800000  0  3G 3G 9G13
 -80339905.062 9  85053977.392 9  17801584.566    17801585.505        1119.113
       875.504
   7901244.928 9   3657752.799 7  20813833.062    20813836.581       -4128.077
     -3230.074
 -27656741.078 9   8060360.823 9  17657328.144    17657330.903       -1167.342
      -923.480
 88  3 22  8 30  5.0800000  0  3G 3G 9G13
 -80373191.454 9  85028039.950 9  17795250.841    17795252.390        1096.378
       862.467
   8025001.921 9   3754186.799 7  20837384.120    20837387.954       -4125.127
     -3227.576
 -27621334.723 9   8087950.193 9  17664066.765    17664067.998       -1179.973
      -903.758
 88  3 22  8 30 35.0800000  0  3G 3G 9G13
 -80406352.668 9  85002200.045 8  17788939.647    17788941.697        1107.391
       870.141
   8148722.545 9   3850592.448 8  20860927.783    20860929.823       -4117.495
     -3205.760
 -27585848.940 9   8115601.453 8  17670819.748    17670821.954       -1189.152
      -929.184
 88  3 22  8 31  5.0800000  0  3G 3G 9G13
 -80439388.482 9  84976457.858 7  17782653.196    17782656.047        1107.957
       853.880
   8272404.153 9   3946967.720 8  20884463.593    20884466.324       -4121.387
     -3228.608
 -27550284.009 9   8143314.384 9  17677586.030    17677589.634       -1190.013
      -925.164
 88  3 22  8 31 35.0800000  0  3G 3G 9G13
 -80472299.687 9  84950812.775 8  17776390.562    17776392.578        1089.273
       863.766
   8396043.550 9   4043310.086 8  20907991.672    20907994.542       -4117.232
     -3206.729
 -27514640.476 9   8171088.554 9  17684369.223    17684372.766       -1182.685
      -933.080
 88  3 22  8 32  5.0800000  0  3G 3G 9G13
 -80505086.778 9  84925264.392 7  17770150.102    17770153.115        1092.790
       853.675
   8519637.606 9   4139617.130 8  20931510.287    20931513.283       -4113.524
     -3205.735
 -27478918.210 9   8198924.065 9  17691167.083    17691169.837       -1188.315
      -935.721
 88  3 22  8 32 35.0800000  0  3G 3G 9G13
 -80537750.731 9  84899811.976 7  17763935.917    17763937.348        1078.221
       863.014
   8643183.078 9   4235886.322 8  20955020.686    20955023.029       -4123.907
     -3202.330
 -27443117.885 9   8226820.417 8  17697980.930    17697982.974       -1194.670
      -927.233
 88  3 22  8 33  5.0800000  0  3G 3G 9G13
 -80570291.384 9  84874455.631 9  17757744.107    17757745.680        1075.757
       844.907
   8766676.932 9   4332115.305 9  20978520.584    20978523.854       -4112.854
     -3197.085
 -27407240.245 9   8254777.018 9  17704807.971    17704810.219       -1186.209
      -928.656
 88  3 22  8 33 35.0800000  0  3G 3G 9G13
 -80602709.637 9  84849194.657 8  17751575.002    17751575.798        1088.882
       841.390
   8890116.247 9   4428301.734 9  21002010.246    21002013.558       -4113.723
     -3206.549
 -27371285.406 9   8282793.757 8  17711649.348    17711651.638       -1193.179
      -929.315
 88  3 22  8 34  5.0800000  0  3G 3G 9G13
 -80635005.545 9  84824029.028 8  17745427.773    17745430.876        1079.871
       838.724
   9013497.918 9   4524443.255 9  21025488.764    21025492.652       -4130.717
     -3209.811
 -27335253.894 9   8310870.254 8  17718505.181    17718509.180       -1192.390
      -938.350
 88  3 22  8 34 35.0800000  0  3G 3G 9G13
 -80667179.738 8  84798958.230 8  17739307.128    17739306.956        1055.558
       836.288
   9136818.784 8   4620537.403 9  21048956.588    21048959.924       -4106.459
     -3209.040
 -27299146.292 9   8339006.033 9  17725376.894    17725379.655       -1209.168
      -939.885
